LiveFlight Tracker NTL97

Flight Info NTL97

Flight: NTL97 PIC: Burak Bugday
Departure: WADD Arrival: LTBA
Registration: TC-GJR
Current Alt: 14471 FT GS: 338 KT
Last Info: 2018-01-21 22:57:57
Distance: 21 NM Status: Descending

ACARS Info NTL97

Pilot Flight Time ALT GS Latitude Longitude
NTL001 NTL97 2018-01-21 22:57:57 14471 338 41.005812068211 29.276164409962
NTL001 NTL97 2018-01-21 22:57:42 14768 344 41.009549782584 29.307249963453
NTL001 NTL97 2018-01-21 22:57:27 15147 351 41.013130856703 29.338809744912
NTL001 NTL97 2018-01-21 22:57:12 15434 361 41.016720082137 29.371500562269
NTL001 NTL97 2018-01-21 22:56:58 15803 369 41.020410535943 29.40467503708
NTL001 NTL97 2018-01-21 22:56:42 16259 377 41.024423069968 29.438602330939
NTL001 NTL97 2018-01-21 22:56:27 16787 382 41.028346908291 29.473305086163
NTL001 NTL97 2018-01-21 22:56:12 17434 388 41.031779523932 29.508726222016
NTL001 NTL97 2018-01-21 22:55:57 18148 390 41.035766146235 29.544144132061
NTL001 NTL97 2018-01-21 22:55:42 18884 394 41.041029963378 29.579782772528
NTL001 NTL97 2018-01-21 22:55:27 19609 402 41.044060165853 29.616142694388
NTL001 NTL97 2018-01-21 22:55:12 20364 412 41.041837173499 29.653417229755
NTL001 NTL97 2018-01-21 22:54:57 21117 417 41.035639561186 29.690943098253
NTL001 NTL97 2018-01-21 22:54:42 21867 421 41.029274880352 29.728698871354
NTL001 NTL97 2018-01-21 22:54:27 22617 427 41.022855953188 29.766853139377
NTL001 NTL97 2018-01-21 22:54:12 23371 431 41.016332945401 29.805521592806
NTL001 NTL97 2018-01-21 22:53:57 24122 435 41.0097354566 29.844408078663
NTL001 NTL97 2018-01-21 22:53:42 24872 439 41.003089064823 29.88359370687
NTL001 NTL97 2018-01-21 22:53:27 25622 443 40.996382971663 29.923196488129
NTL001 NTL97 2018-01-21 22:53:12 26375 447 40.9895374033 29.963386537093
NTL001 NTL97 2018-01-21 22:52:57 27117 452 40.982604347062 30.00350855051
NTL001 NTL97 2018-01-21 22:52:42 27866 454 40.975502866427 30.044349402091
NTL001 NTL97 2018-01-21 22:52:27 28615 458 40.968349472659 30.085450940775
NTL001 NTL97 2018-01-21 22:52:12 29362 460 40.961173300474 30.126633511303
NTL001 NTL97 2018-01-21 22:51:57 30108 460 40.953976830972 30.16780488343
NTL001 NTL97 2018-01-21 22:51:42 30854 460 40.946723996622 30.209128613239
NTL001 NTL97 2018-01-21 22:51:27 31600 460 40.939464807078 30.250369319614
NTL001 NTL97 2018-01-21 22:51:12 32351 460 40.932161555822 30.291875307369
NTL001 NTL97 2018-01-21 22:50:57 33098 460 40.924927494802 30.333072723785
NTL001 NTL97 2018-01-21 22:50:42 33844 458 40.917643212234 30.374140417155
NTL001 NTL97 2018-01-21 22:50:27 34591 456 40.910331729624 30.415147529146
NTL001 NTL97 2018-01-21 22:50:12 35344 454 40.903098936898 30.456233503172
NTL001 NTL97 2018-01-21 22:49:57 36088 450 40.896035114948 30.496452514973
NTL001 NTL97 2018-01-21 22:49:42 36848 445 40.888604184936 30.536805044002
NTL001 NTL97 2018-01-21 22:49:27 37604 439 40.881388462305 30.576348294202
NTL001 NTL97 2018-01-21 22:49:12 38356 429 40.875083535172 30.615117124143
NTL001 NTL97 2018-01-21 22:48:57 39082 423 40.868316724049 30.653374603554
NTL001 NTL97 2018-01-21 22:48:42 39667 419 40.859756575237 30.690748657218
NTL001 NTL97 2018-01-21 22:48:27 39753 423 40.850977587332 30.727793404342
NTL001 NTL97 2018-01-21 22:48:12 39760 433 40.842094544981 30.765233071977
NTL001 NTL97 2018-01-21 22:47:57 39765 441 40.832940457474 30.803627385741
NTL001 NTL97 2018-01-21 22:47:42 39766 450 40.82355027192 30.842878545474
NTL001 NTL97 2018-01-21 22:47:27 39765 452 40.814082218657 30.882571306318
NTL001 NTL97 2018-01-21 22:47:12 39762 452 40.804599275403 30.922158861051
NTL001 NTL97 2018-01-21 22:46:57 39764 452 40.795139958102 30.961588973751
NTL001 NTL97 2018-01-21 22:46:42 39769 450 40.785624989679 31.00122978754
NTL001 NTL97 2018-01-21 22:46:27 39775 450 40.776135692877 31.040730450499
NTL001 NTL97 2018-01-21 22:46:12 39782 450 40.766643681893 31.080079451528
NTL001 NTL97 2018-01-21 22:45:57 39791 450 40.757184593875 31.11928488603
NTL001 NTL97 2018-01-21 22:45:42 39802 449 40.7476785016 31.158665477538
NTL001 NTL97 2018-01-21 22:45:27 39813 449 40.738183214725 31.197896058829
NTL001 NTL97 2018-01-21 22:45:12 39824 447 40.728699191138 31.236970058466
NTL001 NTL97 2018-01-21 22:44:57 39840 445 40.719167689068 31.276193987807
NTL001 NTL97 2018-01-21 22:44:42 39843 443 40.709767399541 31.314807736824
NTL001 NTL97 2018-01-21 22:44:27 39827 437 40.700402916149 31.353196658305
NTL001 NTL97 2018-01-21 22:44:12 39830 431 40.691085962559 31.391322538079
NTL001 NTL97 2018-01-21 22:43:57 39839 423 40.681963541579 31.428585486103
NTL001 NTL97 2018-01-21 22:43:42 39833 414 40.672966703413 31.465367499619
NTL001 NTL97 2018-01-21 22:43:27 39825 414 40.664176224565 31.50137542127
NTL001 NTL97 2018-01-21 22:43:12 39825 415 40.655395852995 31.537248363356
NTL001 NTL97 2018-01-21 22:42:57 39832 423 40.646361538897 31.573869783491
NTL001 NTL97 2018-01-21 22:42:42 39842 431 40.637170280909 31.611204997935
NTL001 NTL97 2018-01-21 22:42:27 39845 441 40.627863144252 31.649111064545
NTL001 NTL97 2018-01-21 22:42:12 39846 449 40.618152421496 31.688080868607
NTL001 NTL97 2018-01-21 22:41:57 39861 449 40.608311389995 31.726957963761
NTL001 NTL97 2018-01-21 22:41:42 39872 449 40.598923072877 31.765983501442
NTL001 NTL97 2018-01-21 22:41:27 39876 449 40.589592873326 31.805378353701
NTL001 NTL97 2018-01-21 22:41:12 39869 449 40.578903346295 31.844109792073
NTL001 NTL97 2018-01-21 22:40:57 39866 449 40.567645745171 31.882325040717
NTL001 NTL97 2018-01-21 22:40:42 39871 449 40.556419836037 31.920646094567
NTL001 NTL97 2018-01-21 22:40:27 39879 447 40.545211055412 31.958755955772
NTL001 NTL97 2018-01-21 22:40:12 39886 447 40.533795960389 31.997299980398
NTL001 NTL97 2018-01-21 22:39:57 39883 447 40.522617593498 32.034989368739
NTL001 NTL97 2018-01-21 22:39:42 39873 447 40.51150101144 32.073068274412
NTL001 NTL97 2018-01-21 22:39:27 39878 447 40.500190001489 32.111365385352
NTL001 NTL97 2018-01-21 22:39:12 39887 445 40.488616606282 32.14896235432
NTL001 NTL97 2018-01-21 22:38:57 39895 445 40.477401669296 32.18708903751
NTL001 NTL97 2018-01-21 22:38:42 39898 445 40.467385423929 32.225355955917
NTL001 NTL97 2018-01-21 22:38:27 39897 445 40.457672337681 32.263929732054
NTL001 NTL97 2018-01-21 22:38:12 39895 443 40.447905411884 32.302593930833
NTL001 NTL97 2018-01-21 22:37:57 39899 443 40.438165277221 32.341092452707
NTL001 NTL97 2018-01-21 22:37:42 39906 443 40.428473989466 32.379411196073
NTL001 NTL97 2018-01-21 22:37:27 39914 443 40.418748153444 32.417816357861
NTL001 NTL97 2018-01-21 22:37:12 39926 443 40.408966919287 32.456283149308
NTL001 NTL97 2018-01-21 22:36:57 39941 443 40.399203931925 32.494674030085
NTL001 NTL97 2018-01-21 22:36:42 39942 443 40.389366423223 32.533249595664
NTL001 NTL97 2018-01-21 22:36:27 39923 443 40.379603411437 32.571514575936
NTL001 NTL97 2018-01-21 22:36:12 39910 443 40.369791268715 32.609928215492
NTL001 NTL97 2018-01-21 22:35:57 39916 443 40.360035440218 32.648036903223
NTL001 NTL97 2018-01-21 22:35:42 39923 443 40.350178146271 32.686457222826
NTL001 NTL97 2018-01-21 22:35:27 39919 443 40.34037362685 32.724609793305
NTL001 NTL97 2018-01-21 22:35:12 39909 441 40.330579210785 32.762752058009
NTL001 NTL97 2018-01-21 22:34:57 39896 441 40.320742256139 32.800904663326
NTL001 NTL97 2018-01-21 22:34:42 39880 441 40.310875271191 32.839100182982
NTL001 NTL97 2018-01-21 22:34:27 39882 441 40.301017561633 32.877142617093
NTL001 NTL97 2018-01-21 22:34:12 39903 441 40.291270201964 32.915316118709
NTL001 NTL97 2018-01-21 22:33:57 39914 441 40.281435555795 32.953243761223
NTL001 NTL97 2018-01-21 22:33:42 39909 441 40.271198302494 32.991162523786
NTL001 NTL97 2018-01-21 22:33:27 39901 441 40.261456789392 33.02942976847
NTL001 NTL97 2018-01-21 22:33:12 39906 443 40.252432790397 33.067780305745
NTL001 NTL97 2018-01-21 22:32:57 39916 443 40.241562197467 33.10551769674
NTL001 NTL97 2018-01-21 22:32:42 39914 443 40.228653773925 33.142226572937
NTL001 NTL97 2018-01-21 22:32:27 39905 443 40.215654081414 33.178906971075
NTL001 NTL97 2018-01-21 22:32:12 39901 443 40.20262986816 33.215655734076
NTL001 NTL97 2018-01-21 22:31:57 39890 443 40.189683837035 33.252081851351
NTL001 NTL97 2018-01-21 22:31:42 39875 441 40.17667427711 33.288611209449
NTL001 NTL97 2018-01-21 22:31:27 39855 441 40.163711034541 33.325078004621
NTL001 NTL97 2018-01-21 22:31:12 39836 441 40.150777602344 33.361346854
NTL001 NTL97 2018-01-21 22:30:57 39816 441 40.137665417281 33.398031937278
NTL001 NTL97 2018-01-21 22:30:42 39804 441 40.124756050694 33.43412525355
NTL001 NTL97 2018-01-21 22:30:27 39803 439 40.111800329577 33.470315514136
NTL001 NTL97 2018-01-21 22:30:11 39797 439 40.098792346821 33.506597494345
NTL001 NTL97 2018-01-21 22:29:57 39789 439 40.085793232627 33.542829406037
NTL001 NTL97 2018-01-21 22:29:42 39787 439 40.072793428634 33.57897331554
NTL001 NTL97 2018-01-21 22:29:26 39791 439 40.059814335711 33.615043512064
NTL001 NTL97 2018-01-21 22:29:11 39799 439 40.046810617261 33.651198773203
NTL001 NTL97 2018-01-21 22:28:57 39808 439 40.033793136765 33.687281011554
NTL001 NTL97 2018-01-21 22:28:41 39822 439 40.02075471124 33.723315226117
NTL001 NTL97 2018-01-21 22:28:26 39838 439 40.00773253874 33.759374793099
NTL001 NTL97 2018-01-21 22:28:11 39857 439 39.994703267156 33.79536799934
NTL001 NTL97 2018-01-21 22:27:56 39876 439 39.981567841068 33.83163152035
NTL001 NTL97 2018-01-21 22:27:41 39895 439 39.968523177041 33.867578679206
NTL001 NTL97 2018-01-21 22:27:26 39912 439 39.955416300053 33.903617383205
NTL001 NTL97 2018-01-21 22:27:11 39931 439 39.942291872545 33.939662345131
NTL001 NTL97 2018-01-21 22:26:56 39942 439 39.929137596116 33.975791802023
NTL001 NTL97 2018-01-21 22:26:41 39937 439 39.916059644864 34.011616599098
NTL001 NTL97 2018-01-21 22:26:26 39933 439 39.902941590747 34.047535493388
NTL001 NTL97 2018-01-21 22:26:11 39936 439 39.889726301947 34.083695285864
NTL001 NTL97 2018-01-21 22:25:56 39944 439 39.876560891113 34.119663687857
NTL001 NTL97 2018-01-21 22:25:41 39951 439 39.863418659339 34.155528490829
NTL001 NTL97 2018-01-21 22:25:26 39950 439 39.850293355888 34.191277044151
NTL001 NTL97 2018-01-21 22:25:11 39943 439 39.837060014175 34.227265821336
NTL001 NTL97 2018-01-21 22:24:56 39941 439 39.823914198284 34.263016191087
NTL001 NTL97 2018-01-21 22:24:41 39947 437 39.810752477496 34.29875065285
NTL001 NTL97 2018-01-21 22:24:26 39953 437 39.797542285619 34.334586561979
NTL001 NTL97 2018-01-21 22:24:11 39955 437 39.784446816501 34.370056285135
NTL001 NTL97 2018-01-21 22:23:56 39953 437 39.771221728552 34.405829168671
NTL001 NTL97 2018-01-21 22:23:41 39951 437 39.75804027818 34.441467662333
NTL001 NTL97 2018-01-21 22:23:26 39953 437 39.744841522282 34.477073114983
NTL001 NTL97 2018-01-21 22:23:11 39957 435 39.731664429535 34.512542544861
NTL001 NTL97 2018-01-21 22:22:56 39960 435 39.718526444565 34.547938834958
NTL001 NTL97 2018-01-21 22:22:41 39968 435 39.705259182961 34.583621359193
NTL001 NTL97 2018-01-21 22:22:26 39975 435 39.692062703513 34.619038750118
NTL001 NTL97 2018-01-21 22:22:11 39975 435 39.678912929694 34.654291859187
NTL001 NTL97 2018-01-21 22:21:56 39968 435 39.665780070219 34.689495423321
NTL001 NTL97 2018-01-21 22:21:41 39966 433 39.652526050475 34.724970635562
NTL001 NTL97 2018-01-21 22:21:26 39969 433 39.639401226639 34.760025024887
NTL001 NTL97 2018-01-21 22:21:11 39977 433 39.626151972534 34.795450057795
NTL001 NTL97 2018-01-21 22:20:57 39982 433 39.613032517503 34.83043201999
NTL001 NTL97 2018-01-21 22:20:41 39976 433 39.599813037196 34.865597218211
NTL001 NTL97 2018-01-21 22:20:26 39969 431 39.586582947908 34.900821493672
NTL001 NTL97 2018-01-21 22:20:11 39970 431 39.573428905174 34.935780437409
NTL001 NTL97 2018-01-21 22:19:56 39978 431 39.560217659251 34.97081911783
NTL001 NTL97 2018-01-21 22:19:41 39984 431 39.547020999248 35.005789902403
NTL001 NTL97 2018-01-21 22:19:26 39983 431 39.533831986217 35.04072482666
NTL001 NTL97 2018-01-21 22:19:11 39974 431 39.520711967428 35.075424007519
NTL001 NTL97 2018-01-21 22:18:56 39972 431 39.507519987389 35.110246078125
NTL001 NTL97 2018-01-21 22:18:41 39980 429 39.494250929298 35.14529054186
NTL001 NTL97 2018-01-21 22:18:26 39988 429 39.481114188603 35.179900982229
NTL001 NTL97 2018-01-21 22:18:11 39986 429 39.467866191071 35.214771520186
NTL001 NTL97 2018-01-21 22:17:56 39978 429 39.454653861336 35.249528010416
NTL001 NTL97 2018-01-21 22:17:41 39976 429 39.441480864619 35.284087137557
NTL001 NTL97 2018-01-21 22:17:26 39980 429 39.428219121514 35.318852607592
NTL001 NTL97 2018-01-21 22:17:11 39988 429 39.414978770725 35.353587431287
NTL001 NTL97 2018-01-21 22:16:56 39997 429 39.401787205221 35.388099608178
NTL001 NTL97 2018-01-21 22:16:41 40007 429 39.388519574201 35.422787514376
NTL001 NTL97 2018-01-21 22:16:26 40011 429 39.375190217297 35.457576635899
NTL001 NTL97 2018-01-21 22:16:11 40004 429 39.362013862456 35.49194281753
NTL001 NTL97 2018-01-21 22:15:56 39998 429 39.34879421315 35.526393974571
NTL001 NTL97 2018-01-21 22:15:41 40002 429 39.335482662063 35.561035373512
NTL001 NTL97 2018-01-21 22:15:26 40010 429 39.322200557045 35.595536088494
NTL001 NTL97 2018-01-21 22:15:11 40017 427 39.308965052947 35.629901589818
NTL001 NTL97 2018-01-21 22:14:56 40013 427 39.295706313035 35.664309891067
NTL001 NTL97 2018-01-21 22:14:41 40006 427 39.282391853849 35.698771962554
NTL001 NTL97 2018-01-21 22:14:26 40006 427 39.269146856548 35.733015712266
NTL001 NTL97 2018-01-21 22:14:11 40013 427 39.255880990006 35.767410772476
NTL001 NTL97 2018-01-21 22:13:56 40019 427 39.242530996687 35.801865184959
NTL001 NTL97 2018-01-21 22:13:41 40018 425 39.229085264432 35.836049887907
NTL001 NTL97 2018-01-21 22:13:26 40009 425 39.215836506016 35.87021856484
NTL001 NTL97 2018-01-21 22:13:11 40002 423 39.203043220805 35.904572592527
NTL001 NTL97 2018-01-21 22:12:57 40012 421 39.189662888236 35.938311919541
NTL001 NTL97 2018-01-21 22:12:41 40021 417 39.17545298769 35.971335527491
NTL001 NTL97 2018-01-21 22:12:26 40024 412 39.163617562374 36.00521448767
NTL001 NTL97 2018-01-21 22:12:11 40022 410 39.154809381 36.040231390118
NTL001 NTL97 2018-01-21 22:11:56 40014 408 39.147889471265 36.075934617413
NTL001 NTL97 2018-01-21 22:11:41 40023 408 39.143299302233 36.112102151731
NTL001 NTL97 2018-01-21 22:11:26 40030 408 39.138742504478 36.148247851974
NTL001 NTL97 2018-01-21 22:11:11 40033 408 39.134205112757 36.184095416752
NTL001 NTL97 2018-01-21 22:10:56 40028 408 39.129631918206 36.220073204815
NTL001 NTL97 2018-01-21 22:10:41 40024 408 39.125032817288 36.256219406076
NTL001 NTL97 2018-01-21 22:10:26 40027 408 39.120446928198 36.292153224265
NTL001 NTL97 2018-01-21 22:10:11 40034 408 39.115811628932 36.32835339367
NTL001 NTL97 2018-01-21 22:09:56 40040 408 39.111205800203 36.364260772477
NTL001 NTL97 2018-01-21 22:09:41 40038 406 39.106561347053 36.40035945585
NTL001 NTL97 2018-01-21 22:09:26 40034 406 39.101925437377 36.436350050844
NTL001 NTL97 2018-01-21 22:09:11 40034 406 39.097294570612 36.472183868209
NTL001 NTL97 2018-01-21 22:08:56 40039 406 39.092654763473 36.508077526171
NTL001 NTL97 2018-01-21 22:08:41 40047 406 39.087984303004 36.544035587026
NTL001 NTL97 2018-01-21 22:08:26 40056 406 39.083322117157 36.579723638866
NTL001 NTL97 2018-01-21 22:08:11 40063 406 39.078649083855 36.615503890161
NTL001 NTL97 2018-01-21 22:07:56 40060 406 39.073944339086 36.651532446183
NTL001 NTL97 2018-01-21 22:07:41 40058 406 39.069259742673 36.687247013343
NTL001 NTL97 2018-01-21 22:07:26 40061 406 39.064519937337 36.723208819585
NTL001 NTL97 2018-01-21 22:07:11 40067 406 39.059820795535 36.758902644039
NTL001 NTL97 2018-01-21 22:06:56 40074 404 39.055116551019 36.794614989212
NTL001 NTL97 2018-01-21 22:06:41 40083 404 39.050351169436 36.830516538392
NTL001 NTL97 2018-01-21 22:06:26 40095 406 39.04562158287 36.866135538393
NTL001 NTL97 2018-01-21 22:06:11 40110 404 39.040869686671 36.901947368036
NTL001 NTL97 2018-01-21 22:05:56 40122 404 39.036081071049 36.93774801432
NTL001 NTL97 2018-01-21 22:05:41 40122 404 39.03128492453 36.973497926524
NTL001 NTL97 2018-01-21 22:05:26 40120 404 39.026520316757 37.009155078503
NTL001 NTL97 2018-01-21 22:05:11 40122 404 39.02170759617 37.044920952184
NTL001 NTL97 2018-01-21 22:04:56 40129 404 39.016897349413 37.08060247068
NTL001 NTL97 2018-01-21 22:04:41 40136 404 39.012102022597 37.116187217346
NTL001 NTL97 2018-01-21 22:04:26 40139 404 39.00728791564 37.151727058394
NTL001 NTL97 2018-01-21 22:04:11 40136 404 39.002448723604 37.187341252333
NTL001 NTL97 2018-01-21 22:03:56 40135 404 38.997597126512 37.22309029994
NTL001 NTL97 2018-01-21 22:03:41 40140 404 38.992748337152 37.258649353339
NTL001 NTL97 2018-01-21 22:03:26 40147 402 38.987902862323 37.294100194677
NTL001 NTL97 2018-01-21 22:03:11 40153 402 38.983012676069 37.329748779419
NTL001 NTL97 2018-01-21 22:02:56 40155 402 38.978150763294 37.365161621599
NTL001 NTL97 2018-01-21 22:02:41 40154 402 38.973277706886 37.400660832528
NTL001 NTL97 2018-01-21 22:02:26 40155 402 38.968354388355 37.436284015683
NTL001 NTL97 2018-01-21 22:02:11 40161 402 38.963465698011 37.47163937842
NTL001 NTL97 2018-01-21 22:01:56 40168 402 38.958571829656 37.507007494957
NTL001 NTL97 2018-01-21 22:01:41 40173 402 38.953635016146 37.54248904676
NTL001 NTL97 2018-01-21 22:01:26 40177 402 38.948677908034 37.578060392647
NTL001 NTL97 2018-01-21 22:01:11 40184 402 38.94376235224 37.613311790295
NTL001 NTL97 2018-01-21 22:00:56 40191 402 38.938805191612 37.648825990254
NTL001 NTL97 2018-01-21 22:00:41 40192 402 38.933862717693 37.684044386083
NTL001 NTL97 2018-01-21 22:00:26 40190 402 38.92888999137 37.719442021083
NTL001 NTL97 2018-01-21 22:00:11 40189 402 38.92390451411 37.754819375736
NTL001 NTL97 2018-01-21 21:59:56 40194 402 38.91894321812 37.789954993114
NTL001 NTL97 2018-01-21 21:59:41 40203 402 38.913937217203 37.825340275856
NTL001 NTL97 2018-01-21 21:59:26 40208 402 38.908927607458 37.860689833325
NTL001 NTL97 2018-01-21 21:59:11 40201 400 38.903917056382 37.895905742186
NTL001 NTL97 2018-01-21 21:58:56 40196 400 38.898882812621 37.931278631608
NTL001 NTL97 2018-01-21 21:58:41 40200 400 38.893882213772 37.966333821431
NTL001 NTL97 2018-01-21 21:58:26 40206 400 38.888814797351 38.001734292923
NTL001 NTL97 2018-01-21 21:58:11 40215 400 38.883804336437 38.036640337202
NTL001 NTL97 2018-01-21 21:57:56 40219 400 38.878752751617 38.071844946745
NTL001 NTL97 2018-01-21 21:57:41 40215 400 38.873680652322 38.107082724294
NTL001 NTL97 2018-01-21 21:57:26 40208 400 38.868582944358 38.14240644554
NTL001 NTL97 2018-01-21 21:57:11 40207 400 38.863500747878 38.177359924385
NTL001 NTL97 2018-01-21 21:56:56 40213 400 38.858432760813 38.212320567973
NTL001 NTL97 2018-01-21 21:56:41 40220 400 38.853327132217 38.247545781114
NTL001 NTL97 2018-01-21 21:56:26 40219 400 38.848216574795 38.282630030715
NTL001 NTL97 2018-01-21 21:56:11 40212 400 38.843081079246 38.317793049879
NTL001 NTL97 2018-01-21 21:55:56 40207 400 38.837963472274 38.35281474918
NTL001 NTL97 2018-01-21 21:55:41 40211 400 38.832821025957 38.387859836841
NTL001 NTL97 2018-01-21 21:55:26 40219 400 38.827636321347 38.423118142192
NTL001 NTL97 2018-01-21 21:55:11 40222 400 38.822502403245 38.458009192209
NTL001 NTL97 2018-01-21 21:54:56 40216 400 38.817330981606 38.493117652723
NTL001 NTL97 2018-01-21 21:54:41 40209 400 38.812126678785 38.528283857232
NTL001 NTL97 2018-01-21 21:54:26 40211 400 38.806959105404 38.563100307718
NTL001 NTL97 2018-01-21 21:54:10 40218 400 38.801724664754 38.598369843322
NTL001 NTL97 2018-01-21 21:53:55 40224 400 38.796548488282 38.633166197998
NTL001 NTL97 2018-01-21 21:53:40 40221 400 38.791288946771 38.668372993435
NTL001 NTL97 2018-01-21 21:53:25 40214 400 38.786092663477 38.703175311068
NTL001 NTL97 2018-01-21 21:53:10 40212 400 38.780842869854 38.738217792234
NTL001 NTL97 2018-01-21 21:52:56 40218 400 38.775561781279 38.773376919599
NTL001 NTL97 2018-01-21 21:52:40 40226 398 38.770311246095 38.808334202511
NTL001 NTL97 2018-01-21 21:52:25 40228 398 38.765025856686 38.843270318438
NTL001 NTL97 2018-01-21 21:52:10 40222 398 38.759756699967 38.878011628805
NTL001 NTL97 2018-01-21 21:51:55 40217 398 38.754511432854 38.91314604481
NTL001 NTL97 2018-01-21 21:51:40 40220 398 38.749351755983 38.948134344171
NTL001 NTL97 2018-01-21 21:51:25 40228 398 38.744241418435 38.982865820364
NTL001 NTL97 2018-01-21 21:51:10 40234 398 38.739056748923 39.017812645216
NTL001 NTL97 2018-01-21 21:50:55 40231 398 38.733821642073 39.052757189398
NTL001 NTL97 2018-01-21 21:50:40 40222 398 38.728695107883 39.087777512928
NTL001 NTL97 2018-01-21 21:50:25 40220 398 38.723635108601 39.122585740473
NTL001 NTL97 2018-01-21 21:50:10 40228 396 38.71811726737 39.15717249052
NTL001 NTL97 2018-01-21 21:49:55 40236 396 38.712668657148 39.191939626586
NTL001 NTL97 2018-01-21 21:49:40 40239 394 38.708909153367 39.226756981346
NTL001 NTL97 2018-01-21 21:49:25 40228 394 38.70657714271 39.261844980019
NTL001 NTL97 2018-01-21 21:49:10 40223 394 38.704965161836 39.296991468973
NTL001 NTL97 2018-01-21 21:48:55 40226 394 38.703356204893 39.332147830238
NTL001 NTL97 2018-01-21 21:48:40 40234 394 38.70171418555 39.36744901084
NTL001 NTL97 2018-01-21 21:48:25 40235 394 38.700087953084 39.402395845819
NTL001 NTL97 2018-01-21 21:48:10 40230 394 38.69845915944 39.437461725236
NTL001 NTL97 2018-01-21 21:47:55 40224 394 38.696790843855 39.472432060504
NTL001 NTL97 2018-01-21 21:47:40 40224 394 38.695098602646 39.507469799397
NTL001 NTL97 2018-01-21 21:47:25 40229 394 38.693475929468 39.542731822931
NTL001 NTL97 2018-01-21 21:47:10 40235 394 38.691916831872 39.577681339001
NTL001 NTL97 2018-01-21 21:46:55 40233 394 38.690374067985 39.61272343336
NTL001 NTL97 2018-01-21 21:46:40 40226 394 38.688806193395 39.64768196693
NTL001 NTL97 2018-01-21 21:46:25 40221 394 38.687179302465 39.68257290919
NTL001 NTL97 2018-01-21 21:46:10 40225 394 38.685588532838 39.717725124027
NTL001 NTL97 2018-01-21 21:45:55 40233 394 38.684003867975 39.752615730817
NTL001 NTL97 2018-01-21 21:45:40 40239 394 38.682372576887 39.787688455251
NTL001 NTL97 2018-01-21 21:45:25 40234 394 38.680741184577 39.822693264044
NTL001 NTL97 2018-01-21 21:45:10 40227 394 38.679088910627 39.857836806302
NTL001 NTL97 2018-01-21 21:44:55 40230 394 38.677437240268 39.892847903695
NTL001 NTL97 2018-01-21 21:44:40 40236 394 38.675786745417 39.92769587344
NTL001 NTL97 2018-01-21 21:44:25 40242 394 38.674120442064 39.962775755065
NTL001 NTL97 2018-01-21 21:44:10 40242 394 38.672443479659 39.997654486684
NTL001 NTL97 2018-01-21 21:43:55 40235 394 38.670733994886 40.032918997255
NTL001 NTL97 2018-01-21 21:43:40 40232 394 38.669032416005 40.067800072188
NTL001 NTL97 2018-01-21 21:43:25 40236 394 38.667309589743 40.102959911354
NTL001 NTL97 2018-01-21 21:43:10 40244 394 38.66559257847 40.13805661399
NTL001 NTL97 2018-01-21 21:42:56 40252 394 38.663843291535 40.173017578373
NTL001 NTL97 2018-01-21 21:42:40 40258 394 38.66210177029 40.208045190317
NTL001 NTL97 2018-01-21 21:42:25 40255 394 38.660397824106 40.243009437943
NTL001 NTL97 2018-01-21 21:42:10 40248 394 38.658670183003 40.278169171799
NTL001 NTL97 2018-01-21 21:41:55 40247 394 38.656952498375 40.313210588183
NTL001 NTL97 2018-01-21 21:41:40 40253 394 38.655211224963 40.348334688895
NTL001 NTL97 2018-01-21 21:41:25 40261 394 38.653460058565 40.383368458553
NTL001 NTL97 2018-01-21 21:41:10 40261 394 38.651701921797 40.418570342418
NTL001 NTL97 2018-01-21 21:40:55 40254 396 38.649934159771 40.45365828691
NTL001 NTL97 2018-01-21 21:40:40 40251 396 38.648143529699 40.488936469618
NTL001 NTL97 2018-01-21 21:40:25 40255 396 38.646361381591 40.52396025829
NTL001 NTL97 2018-01-21 21:40:10 40264 396 38.644551985849 40.55922401251
NTL001 NTL97 2018-01-21 21:39:55 40267 396 38.642728381334 40.594426757615
NTL001 NTL97 2018-01-21 21:39:40 40261 396 38.640895009406 40.629774157172
NTL001 NTL97 2018-01-21 21:39:25 40255 396 38.639063286115 40.665036973608
NTL001 NTL97 2018-01-21 21:39:10 40258 396 38.637200249993 40.700276430959
NTL001 NTL97 2018-01-21 21:38:55 40266 396 38.635315378313 40.735531750728
NTL001 NTL97 2018-01-21 21:38:40 40272 398 38.633482279962 40.770695823901
NTL001 NTL97 2018-01-21 21:38:25 40268 398 38.631612019791 40.806068957829
NTL001 NTL97 2018-01-21 21:38:10 40261 398 38.629584783408 40.841402822128
NTL001 NTL97 2018-01-21 21:37:55 40261 398 38.627481204405 40.876604950437
NTL001 NTL97 2018-01-21 21:37:40 40269 398 38.625345725947 40.912195030052
NTL001 NTL97 2018-01-21 21:37:25 40275 398 38.623233661199 40.947448645983
NTL001 NTL97 2018-01-21 21:37:10 40274 398 38.621086656034 40.982848292205
NTL001 NTL97 2018-01-21 21:36:55 40269 398 38.618919573851 41.0183147951
NTL001 NTL97 2018-01-21 21:36:40 40268 398 38.616757388436 41.053530679798
NTL001 NTL97 2018-01-21 21:36:25 40273 398 38.614583712743 41.088999962658
NTL001 NTL97 2018-01-21 21:36:10 40281 398 38.612394483185 41.124402842682
NTL001 NTL97 2018-01-21 21:35:55 40287 398 38.610165084903 41.159964303073
NTL001 NTL97 2018-01-21 21:35:43 40283 398 38.607965007542 41.195204642592
NTL001 NTL97 2018-01-21 21:35:25 40277 400 38.605832874712 41.230652492018
NTL001 NTL97 2018-01-21 21:35:10 40277 400 38.603515456888 41.266213747713
NTL001 NTL97 2018-01-21 21:34:55 40285 400 38.600997802341 41.301558187999
NTL001 NTL97 2018-01-21 21:34:40 40292 400 38.599187945314 41.33709847263
NTL001 NTL97 2018-01-21 21:34:25 40291 400 38.597623139255 41.372534914282
NTL001 NTL97 2018-01-21 21:34:10 40283 402 38.593265664073 41.407668801854
NTL001 NTL97 2018-01-21 21:33:55 40280 402 38.585644113409 41.442223503767
NTL001 NTL97 2018-01-21 21:33:40 40283 402 38.577562467517 41.47626496652
NTL001 NTL97 2018-01-21 21:33:25 40290 402 38.569387288695 41.510593599786
NTL001 NTL97 2018-01-21 21:33:10 40294 402 38.561275447963 41.544697798465
NTL001 NTL97 2018-01-21 21:32:55 40289 402 38.553091212018 41.579002583801
NTL001 NTL97 2018-01-21 21:32:40 40281 402 38.544925879647 41.613153340744
NTL001 NTL97 2018-01-21 21:32:25 40281 402 38.536770092116 41.647236086462
NTL001 NTL97 2018-01-21 21:32:10 40288 402 38.528563790548 41.681471932703
NTL001 NTL97 2018-01-21 21:31:55 40294 402 38.520342467862 41.71573523327
NTL001 NTL97 2018-01-21 21:31:40 40291 402 38.512166836623 41.749778851603
NTL001 NTL97 2018-01-21 21:31:25 40284 402 38.503920781786 41.784023834618
NTL001 NTL97 2018-01-21 21:31:10 40279 402 38.495721542485 41.818023767342
NTL001 NTL97 2018-01-21 21:30:55 40283 402 38.487480224532 41.852225664985
NTL001 NTL97 2018-01-21 21:30:40 40291 402 38.47924364022 41.886371903246
NTL001 NTL97 2018-01-21 21:30:25 40291 402 38.470983348207 41.920412397488
NTL001 NTL97 2018-01-21 21:30:10 40284 402 38.462706932038 41.954588543289
NTL001 NTL97 2018-01-21 21:29:55 40278 402 38.454475240467 41.988554047061
NTL001 NTL97 2018-01-21 21:29:40 40280 402 38.446116765656 42.022894147252
NTL001 NTL97 2018-01-21 21:29:25 40287 402 38.437811604457 42.056971932873
NTL001 NTL97 2018-01-21 21:29:10 40290 402 38.429535555858 42.090941048597
NTL001 NTL97 2018-01-21 21:28:55 40285 402 38.421203220459 42.125127381344
NTL001 NTL97 2018-01-21 21:28:40 40277 402 38.412880313142 42.159192233614
NTL001 NTL97 2018-01-21 21:28:25 40274 402 38.40448373156 42.193429354649
NTL001 NTL97 2018-01-21 21:28:10 40280 402 38.396139724421 42.227465442398
NTL001 NTL97 2018-01-21 21:27:55 40284 402 38.38774904512 42.261663720748
NTL001 NTL97 2018-01-21 21:27:40 40282 404 38.379392045495 42.295667599122
NTL001 NTL97 2018-01-21 21:27:25 40276 404 38.37097575634 42.329869930616
NTL001 NTL97 2018-01-21 21:27:10 40269 404 38.362577928705 42.363902717148
NTL001 NTL97 2018-01-21 21:26:55 40270 404 38.354128714479 42.398151813433
NTL001 NTL97 2018-01-21 21:26:40 40275 404 38.345655157595 42.432444477744
NTL001 NTL97 2018-01-21 21:26:25 40276 404 38.337199149737 42.466550952567
NTL001 NTL97 2018-01-21 21:26:10 40271 404 38.328727738863 42.500748499608
NTL001 NTL97 2018-01-21 21:25:55 40263 404 38.320228056715 42.535011349655
NTL001 NTL97 2018-01-21 21:25:40 40259 406 38.311740256316 42.569133446093
NTL001 NTL97 2018-01-21 21:25:25 40263 406 38.303175180128 42.603541080233
NTL001 NTL97 2018-01-21 21:25:13 40266 406 38.294636806697 42.637788310716
NTL001 NTL97 2018-01-21 21:24:55 40263 406 38.286091600364 42.671988084492
NTL001 NTL97 2018-01-21 21:24:40 40257 406 38.277495530177 42.706338515172
NTL001 NTL97 2018-01-21 21:24:25 40249 406 38.268898305829 42.740693323253
NTL001 NTL97 2018-01-21 21:24:10 40249 406 38.260312951886 42.774961851914
NTL001 NTL97 2018-01-21 21:23:55 40253 406 38.251671156575 42.809397588284
NTL001 NTL97 2018-01-21 21:23:40 40254 406 38.24306810574 42.843616455541
NTL001 NTL97 2018-01-21 21:23:25 40251 408 38.234439048618 42.877890647135
NTL001 NTL97 2018-01-21 21:23:10 40243 408 38.225761333355 42.912299245427
NTL001 NTL97 2018-01-21 21:22:55 40234 408 38.217088758994 42.946666907957
NTL001 NTL97 2018-01-21 21:22:40 40236 408 38.208400130438 42.981031120742
NTL001 NTL97 2018-01-21 21:22:25 40243 408 38.199716132145 43.015324187205
NTL001 NTL97 2018-01-21 21:22:10 40244 408 38.190965295011 43.049834463553
NTL001 NTL97 2018-01-21 21:21:55 40239 408 38.182226449672 43.084298452567
NTL001 NTL97 2018-01-21 21:21:40 40231 408 38.173506833673 43.118543422494
NTL001 NTL97 2018-01-21 21:21:25 40229 410 38.164702015098 43.153028810073
NTL001 NTL97 2018-01-21 21:21:10 40237 410 38.155940028853 43.187612144804
NTL001 NTL97 2018-01-21 21:20:55 40243 410 38.147216879129 43.22193021174
NTL001 NTL97 2018-01-21 21:20:40 40239 410 38.138224587386 43.25643568349
NTL001 NTL97 2018-01-21 21:20:25 40228 410 38.129396347275 43.290827404142
NTL001 NTL97 2018-01-21 21:20:10 40228 410 38.121052940855 43.325592811691
NTL001 NTL97 2018-01-21 21:19:55 40229 410 38.112005996297 43.359904105953
NTL001 NTL97 2018-01-21 21:19:40 40239 412 38.101540705412 43.393667638443
NTL001 NTL97 2018-01-21 21:19:24 40242 412 38.090981317555 43.427578256287
NTL001 NTL97 2018-01-21 21:19:09 40236 412 38.080475864671 43.461242723857
NTL001 NTL97 2018-01-21 21:18:55 40224 412 38.06988081573 43.495093774819
NTL001 NTL97 2018-01-21 21:18:39 40227 412 38.059284368944 43.528902129335
NTL001 NTL97 2018-01-21 21:18:24 40235 412 38.048728812787 43.562620902054
NTL001 NTL97 2018-01-21 21:18:09 40240 412 38.038141370109 43.596353506068
NTL001 NTL97 2018-01-21 21:17:54 40237 412 38.027546702946 43.630097804089
NTL001 NTL97 2018-01-21 21:17:39 40229 412 38.016901238081 43.66393374352
NTL001 NTL97 2018-01-21 21:17:24 40224 412 38.006306745533 43.697547365337
NTL001 NTL97 2018-01-21 21:17:09 40229 410 37.995675795957 43.731270008453
NTL001 NTL97 2018-01-21 21:16:54 40235 412 37.985030621952 43.76497747439
NTL001 NTL97 2018-01-21 21:16:39 40234 412 37.97443701259 43.79851037011
NTL001 NTL97 2018-01-21 21:16:24 40228 412 37.96376187313 43.832253751367
NTL001 NTL97 2018-01-21 21:16:09 40222 412 37.953056060681 43.866035384416
NTL001 NTL97 2018-01-21 21:15:54 40225 412 37.942386559151 43.899648236685
NTL001 NTL97 2018-01-21 21:15:39 40232 412 37.931732499697 43.933224206263
NTL001 NTL97 2018-01-21 21:15:24 40241 412 37.921010627328 43.96696632849
NTL001 NTL97 2018-01-21 21:15:09 40242 412 37.910323775942 44.000505504564
NTL001 NTL97 2018-01-21 21:14:54 40235 412 37.899555276747 44.034283027379
NTL001 NTL97 2018-01-21 21:14:39 40229 412 37.888814288718 44.067961648868
NTL001 NTL97 2018-01-21 21:14:24 40231 412 37.878095331937 44.101519141511
NTL001 NTL97 2018-01-21 21:14:09 40239 412 37.867367647326 44.135053912193
NTL001 NTL97 2018-01-21 21:13:54 40243 412 37.856587856867 44.168722202997
NTL001 NTL97 2018-01-21 21:13:39 40239 412 37.845814383468 44.202332487805
NTL001 NTL97 2018-01-21 21:13:24 40231 412 37.835077019603 44.235767264137
NTL001 NTL97 2018-01-21 21:13:09 40230 412 37.824306003114 44.269301001383
NTL001 NTL97 2018-01-21 21:12:55 40236 412 37.813461355866 44.302978112194
NTL001 NTL97 2018-01-21 21:12:39 40242 412 37.802628140119 44.336576020026
NTL001 NTL97 2018-01-21 21:12:24 40241 412 37.791896817834 44.369992507326
NTL001 NTL97 2018-01-21 21:12:09 40233 412 37.781075673745 44.403542707158
NTL001 NTL97 2018-01-21 21:11:54 40231 412 37.77012368138 44.436974931025
NTL001 NTL97 2018-01-21 21:11:39 40235 412 37.75925131038 44.470687629371
NTL001 NTL97 2018-01-21 21:11:24 40243 412 37.748817947989 44.504346364142
NTL001 NTL97 2018-01-21 21:11:09 40241 412 37.737623619125 44.537670602954
NTL001 NTL97 2018-01-21 21:10:54 40225 412 37.725558003948 44.570571068195
NTL001 NTL97 2018-01-21 21:10:39 40233 410 37.716608768648 44.604860351026
NTL001 NTL97 2018-01-21 21:10:24 40241 412 37.71072362114 44.640008686983
NTL001 NTL97 2018-01-21 21:10:09 40242 412 37.706294403991 44.675705780468
NTL001 NTL97 2018-01-21 21:09:54 40242 412 37.704504864519 44.711746504018
NTL001 NTL97 2018-01-21 21:09:39 40235 412 37.702860955575 44.747938475151
NTL001 NTL97 2018-01-21 21:09:24 40228 412 37.701213503844 44.784076850469
NTL001 NTL97 2018-01-21 21:09:09 40231 412 37.699518144379 44.82019859756
NTL001 NTL97 2018-01-21 21:08:54 40238 412 37.697816411136 44.856376705537
NTL001 NTL97 2018-01-21 21:08:39 40239 412 37.696216288678 44.892571442408
NTL001 NTL97 2018-01-21 21:08:24 40234 414 37.694515695276 44.92882532009
NTL001 NTL97 2018-01-21 21:08:09 40228 414 37.692493126936 44.965185442694
NTL001 NTL97 2018-01-21 21:07:54 40224 414 37.690946070898 45.001261803763
NTL001 NTL97 2018-01-21 21:07:39 40230 412 37.690068191711 45.037608887713
NTL001 NTL97 2018-01-21 21:07:24 40233 412 37.687228275041 45.073586940068
NTL001 NTL97 2018-01-21 21:07:09 40238 414 37.68070674618 45.109159411964
NTL001 NTL97 2018-01-21 21:06:54 40238 414 37.671672477335 45.14362798054
NTL001 NTL97 2018-01-21 21:06:39 40231 415 37.662613111359 45.178133766888
NTL001 NTL97 2018-01-21 21:06:24 40227 415 37.653437611569 45.212944443085
NTL001 NTL97 2018-01-21 21:06:09 40231 417 37.644262837117 45.247701110956
NTL001 NTL97 2018-01-21 21:05:54 40239 419 37.635104761399 45.282384006788
NTL001 NTL97 2018-01-21 21:05:39 40248 421 37.625862150888 45.317442729249
NTL001 NTL97 2018-01-21 21:05:24 40255 423 37.616476171852 45.352841727545
NTL001 NTL97 2018-01-21 21:05:09 40263 423 37.607140126264 45.388038210357
NTL001 NTL97 2018-01-21 21:04:55 40263 423 37.597796686266 45.423217271271
NTL001 NTL97 2018-01-21 21:04:39 40256 423 37.588392293697 45.458627253658
NTL001 NTL97 2018-01-21 21:04:24 40248 423 37.578976401097 45.493976604405
NTL001 NTL97 2018-01-21 21:04:09 40249 425 37.56957147996 45.529259128921
NTL001 NTL97 2018-01-21 21:03:54 40256 425 37.560155094621 45.564587976969
NTL001 NTL97 2018-01-21 21:03:39 40258 425 37.550773364667 45.599706678724
NTL001 NTL97 2018-01-21 21:03:24 40253 425 37.541290894533 45.635161706562
NTL001 NTL97 2018-01-21 21:03:09 40245 425 37.531870918726 45.670265145772
NTL001 NTL97 2018-01-21 21:02:54 40236 425 37.522409956018 45.705632921656
NTL001 NTL97 2018-01-21 21:02:39 40236 425 37.512974840016 45.740952724243
NTL001 NTL97 2018-01-21 21:02:24 40242 425 37.503525465687 45.776177034044
NTL001 NTL97 2018-01-21 21:02:09 40245 425 37.494085193863 45.811411394773
NTL001 NTL97 2018-01-21 21:01:54 40241 425 37.484592180394 45.846791020557
NTL001 NTL97 2018-01-21 21:01:39 40233 425 37.475099448661 45.882081140541
NTL001 NTL97 2018-01-21 21:01:24 40228 425 37.465598961959 45.917339045371
NTL001 NTL97 2018-01-21 21:01:09 40232 425 37.456089005743 45.952609783362
NTL001 NTL97 2018-01-21 21:00:54 40238 425 37.446553968918 45.987917083755
NTL001 NTL97 2018-01-21 21:00:39 40237 425 37.437047559072 46.023094252098
NTL001 NTL97 2018-01-21 21:00:24 40231 425 37.427465843352 46.058458836095
NTL001 NTL97 2018-01-21 21:00:09 40224 425 37.417948751092 46.093561417422
NTL001 NTL97 2018-01-21 20:59:54 40227 425 37.408367355394 46.128901362604
NTL001 NTL97 2018-01-21 20:59:39 40234 425 37.398779514758 46.164174484242
NTL001 NTL97 2018-01-21 20:59:24 40239 425 37.389178342167 46.199431644024
NTL001 NTL97 2018-01-21 20:59:09 40234 425 37.379614467331 46.234536404997
NTL001 NTL97 2018-01-21 20:58:54 40228 425 37.369981041268 46.269805912678
NTL001 NTL97 2018-01-21 20:58:39 40229 425 37.36039569432 46.304859851492
NTL001 NTL97 2018-01-21 20:58:24 40233 425 37.350788808977 46.339992245749
NTL001 NTL97 2018-01-21 20:58:09 40232 425 37.341166435145 46.375096704932
NTL001 NTL97 2018-01-21 20:57:54 40228 423 37.331520037111 46.410246086243
NTL001 NTL97 2018-01-21 20:57:39 40220 423 37.321871088381 46.445379091064
NTL001 NTL97 2018-01-21 20:57:24 40219 425 37.312253240068 46.480292168153
NTL001 NTL97 2018-01-21 20:57:09 40225 425 37.302577862279 46.515455106337
NTL001 NTL97 2018-01-21 20:56:54 40228 425 37.292912874255 46.55047159354
NTL001 NTL97 2018-01-21 20:56:39 40223 423 37.283225653152 46.585564071107
NTL001 NTL97 2018-01-21 20:56:24 40216 423 37.273521480632 46.620648261117
NTL001 NTL97 2018-01-21 20:56:09 40210 423 37.26381527343 46.65566788996
NTL001 NTL97 2018-01-21 20:55:54 40213 423 37.254089801971 46.690755877192
NTL001 NTL97 2018-01-21 20:55:39 40219 423 37.244395179981 46.725676232772
NTL001 NTL97 2018-01-21 20:55:24 40219 423 37.234646629994 46.760737491681
NTL001 NTL97 2018-01-21 20:55:09 40212 423 37.224925913012 46.79563558865
NTL001 NTL97 2018-01-21 20:54:54 40204 423 37.215179791419 46.830612467885
NTL001 NTL97 2018-01-21 20:54:39 40204 423 37.205467983431 46.865408415362
NTL001 NTL97 2018-01-21 20:54:24 40211 423 37.195689137772 46.900397895842
NTL001 NTL97 2018-01-21 20:54:09 40221 423 37.185986918 46.935125574847
NTL001 NTL97 2018-01-21 20:53:54 40232 423 37.176187843564 46.970079694249
NTL001 NTL97 2018-01-21 20:53:39 40229 423 37.166435491074 47.004875273258
NTL001 NTL97 2018-01-21 20:53:24 40222 423 37.156656286365 47.039701866063
NTL001 NTL97 2018-01-21 20:53:09 40223 423 37.146825861746 47.074635464089
NTL001 NTL97 2018-01-21 20:52:55 40230 423 37.137037809012 47.109413032493
NTL001 NTL97 2018-01-21 20:52:39 40235 423 37.127222255409 47.144232234762
NTL001 NTL97 2018-01-21 20:52:24 40232 423 37.117374480956 47.179164648616
NTL001 NTL97 2018-01-21 20:52:09 40224 423 37.107539359644 47.21394311247
NTL001 NTL97 2018-01-21 20:51:54 40222 423 37.097686157029 47.248752034586
NTL001 NTL97 2018-01-21 20:51:39 40227 423 37.08780740231 47.283621476703
NTL001 NTL97 2018-01-21 20:51:24 40234 423 37.077936810966 47.318415317154
NTL001 NTL97 2018-01-21 20:51:09 40234 423 37.06806617635 47.353209130986
NTL001 NTL97 2018-01-21 20:50:54 40227 423 37.058156173183 47.388088898541
NTL001 NTL97 2018-01-21 20:50:39 40221 423 37.048301669052 47.422828787415
NTL001 NTL97 2018-01-21 20:50:24 40224 423 37.03846245623 47.457539767267
NTL001 NTL97 2018-01-21 20:50:09 40231 423 37.028577338006 47.492263227414
NTL001 NTL97 2018-01-21 20:49:55 40235 423 37.01864010376 47.527157212251
NTL001 NTL97 2018-01-21 20:49:39 40230 423 37.008786905483 47.561759307335
NTL001 NTL97 2018-01-21 20:49:24 40223 423 36.99887903558 47.596488209593
NTL001 NTL97 2018-01-21 20:49:09 40222 423 36.988901780414 47.631386334014
NTL001 NTL97 2018-01-21 20:48:54 40229 423 36.97899588387 47.66593512953
NTL001 NTL97 2018-01-21 20:48:39 40235 423 36.969048707564 47.700667911752
NTL001 NTL97 2018-01-21 20:48:24 40233 423 36.959096422949 47.735392089793
NTL001 NTL97 2018-01-21 20:48:09 40226 423 36.949090188198 47.770234835742
NTL001 NTL97 2018-01-21 20:47:54 40222 423 36.939121161126 47.804887493927
NTL001 NTL97 2018-01-21 20:47:39 40226 423 36.92910768422 47.839653020805
NTL001 NTL97 2018-01-21 20:47:24 40234 423 36.919088614256 47.874358192084
NTL001 NTL97 2018-01-21 20:47:09 40237 423 36.909050036745 47.909182301261
NTL001 NTL97 2018-01-21 20:46:54 40230 425 36.899030411247 47.943832144239
NTL001 NTL97 2018-01-21 20:46:39 40222 425 36.888977408909 47.978550396705
NTL001 NTL97 2018-01-21 20:46:24 40224 425 36.878873937252 48.013348950049
NTL001 NTL97 2018-01-21 20:46:09 40230 425 36.868743766933 48.048345319078
NTL001 NTL97 2018-01-21 20:45:54 40236 425 36.858638237904 48.083148755096
NTL001 NTL97 2018-01-21 20:45:39 40234 425 36.8485033961 48.117761208606
NTL001 NTL97 2018-01-21 20:45:24 40228 425 36.838379094752 48.152632667727
NTL001 NTL97 2018-01-21 20:45:09 40222 425 36.8283799114 48.187477141721
NTL001 NTL97 2018-01-21 20:44:54 40217 425 36.818063674023 48.222151018038
NTL001 NTL97 2018-01-21 20:44:39 40225 425 36.80754262365 48.256796759691
NTL001 NTL97 2018-01-21 20:44:24 40238 425 36.79805882404 48.291626813017
NTL001 NTL97 2018-01-21 20:44:09 40235 423 36.788689805418 48.32657607305
NTL001 NTL97 2018-01-21 20:43:53 40222 425 36.776068967543 48.35984667995
NTL001 NTL97 2018-01-21 20:43:38 40227 425 36.760487717461 48.391332882178
NTL001 NTL97 2018-01-21 20:43:23 40234 425 36.744688919003 48.422601473756
NTL001 NTL97 2018-01-21 20:43:08 40237 425 36.728807524645 48.453953667729
NTL001 NTL97 2018-01-21 20:42:54 40232 425 36.712996189122 48.485147007458
NTL001 NTL97 2018-01-21 20:42:38 40224 425 36.697230137062 48.516268946078
NTL001 NTL97 2018-01-21 20:42:23 40224 425 36.681296898702 48.547700543151
NTL001 NTL97 2018-01-21 20:42:08 40230 425 36.665471774398 48.578798697875
NTL001 NTL97 2018-01-21 20:41:53 40234 425 36.649618296211 48.609958376242
NTL001 NTL97 2018-01-21 20:41:38 40231 425 36.633759324553 48.641295620156
NTL001 NTL97 2018-01-21 20:41:23 40223 425 36.617857015847 48.672455629256
NTL001 NTL97 2018-01-21 20:41:08 40215 427 36.601821391259 48.703463913209
NTL001 NTL97 2018-01-21 20:40:53 40213 427 36.586084259112 48.734709384809
NTL001 NTL97 2018-01-21 20:40:38 40223 427 36.570450528824 48.766359968508
NTL001 NTL97 2018-01-21 20:40:23 40223 427 36.553871830987 48.796995677862
NTL001 NTL97 2018-01-21 20:40:08 40220 427 36.536438459349 48.826821886636
NTL001 NTL97 2018-01-21 20:39:53 40213 427 36.518875362627 48.856829458213
NTL001 NTL97 2018-01-21 20:39:38 40205 427 36.501355327858 48.886716188691
NTL001 NTL97 2018-01-21 20:39:23 40204 427 36.483831723875 48.916571569966
NTL001 NTL97 2018-01-21 20:39:08 40210 427 36.466294954801 48.946450020304
NTL001 NTL97 2018-01-21 20:38:53 40212 427 36.448700001191 48.976358445454
NTL001 NTL97 2018-01-21 20:38:38 40208 427 36.431199135893 49.006138583864
NTL001 NTL97 2018-01-21 20:38:23 40200 427 36.413512237898 49.036153538367
NTL001 NTL97 2018-01-21 20:38:08 40194 427 36.395966950826 49.065963310003
NTL001 NTL97 2018-01-21 20:37:53 40198 429 36.378366265012 49.095816374889
NTL001 NTL97 2018-01-21 20:37:38 40205 429 36.36075595301 49.12560697822
NTL001 NTL97 2018-01-21 20:37:23 40205 429 36.343097269151 49.155474059017
NTL001 NTL97 2018-01-21 20:37:08 40198 429 36.325351215501 49.185502439115
NTL001 NTL97 2018-01-21 20:36:53 40191 429 36.307761074278 49.215222386931
NTL001 NTL97 2018-01-21 20:36:38 40193 429 36.290074821245 49.245069626226
NTL001 NTL97 2018-01-21 20:36:23 40200 429 36.272437475635 49.274835697343
NTL001 NTL97 2018-01-21 20:36:08 40208 429 36.254782640724 49.304581176391
NTL001 NTL97 2018-01-21 20:35:53 40214 429 36.237104767945 49.334349576857
NTL001 NTL97 2018-01-21 20:35:38 40214 429 36.219278874498 49.364362201962
NTL001 NTL97 2018-01-21 20:35:23 40208 429 36.201655178051 49.393954079741
NTL001 NTL97 2018-01-21 20:35:08 40200 429 36.183887165271 49.42378625422
NTL001 NTL97 2018-01-21 20:34:53 40200 429 36.166177612382 49.453495575626
NTL001 NTL97 2018-01-21 20:34:38 40207 429 36.148513238428 49.483131039262
NTL001 NTL97 2018-01-21 20:34:23 40211 429 36.13066642609 49.513006066946
NTL001 NTL97 2018-01-21 20:34:08 40207 429 36.112966460706 49.542627136137
NTL001 NTL97 2018-01-21 20:33:53 40199 429 36.095242007592 49.572272364363
NTL001 NTL97 2018-01-21 20:33:38 40191 429 36.077468161526 49.601952105745
NTL001 NTL97 2018-01-21 20:33:23 40187 429 36.059602156032 49.631774624606
NTL001 NTL97 2018-01-21 20:33:08 40192 429 36.04184440486 49.66140861022
NTL001 NTL97 2018-01-21 20:32:54 40201 429 36.02402445363 49.691102589843
NTL001 NTL97 2018-01-21 20:32:38 40201 429 36.006097817362 49.720934069956
NTL001 NTL97 2018-01-21 20:32:23 40195 429 35.988318898563 49.750501657276
NTL001 NTL97 2018-01-21 20:32:08 40188 429 35.970536771966 49.780089899088
NTL001 NTL97 2018-01-21 20:31:53 40189 429 35.952634852677 49.809805733243
NTL001 NTL97 2018-01-21 20:31:38 40195 429 35.934740542767 49.839443534039
NTL001 NTL97 2018-01-21 20:31:23 40198 429 35.916914400168 49.869024028685
NTL001 NTL97 2018-01-21 20:31:08 40196 429 35.899023820974 49.898651937769
NTL001 NTL97 2018-01-21 20:30:53 40191 429 35.881201454844 49.92815623073
NTL001 NTL97 2018-01-21 20:30:38 40190 429 35.863218955699 49.957885373411
NTL001 NTL97 2018-01-21 20:30:23 40191 429 35.845375411885 49.987336550539
NTL001 NTL97 2018-01-21 20:30:08 40189 429 35.827511689169 50.016844993904
NTL001 NTL97 2018-01-21 20:29:53 40182 429 35.809554650965 50.046482398764
NTL001 NTL97 2018-01-21 20:29:38 40179 429 35.79166023981 50.075970519098
NTL001 NTL97 2018-01-21 20:29:23 40184 429 35.773667834119 50.10556265396
NTL001 NTL97 2018-01-21 20:29:08 40189 429 35.755763889385 50.135006171883
NTL001 NTL97 2018-01-21 20:28:53 40188 429 35.737854033117 50.164443370001
NTL001 NTL97 2018-01-21 20:28:38 40181 429 35.719834959771 50.194053709242
NTL001 NTL97 2018-01-21 20:28:23 40173 429 35.701967496153 50.223363260869
NTL001 NTL97 2018-01-21 20:28:08 40172 429 35.684016939158 50.252801764137
NTL001 NTL97 2018-01-21 20:27:53 40177 429 35.665987337546 50.28232008388
NTL001 NTL97 2018-01-21 20:27:38 40181 429 35.647975050165 50.311808754854
NTL001 NTL97 2018-01-21 20:27:23 40179 429 35.630045086597 50.341135323207
NTL001 NTL97 2018-01-21 20:27:08 40172 429 35.612028886885 50.370548159632
NTL001 NTL97 2018-01-21 20:26:53 40165 429 35.594054936433 50.399905582555
NTL001 NTL97 2018-01-21 20:26:38 40167 429 35.576047566995 50.429256898126
NTL001 NTL97 2018-01-21 20:26:23 40174 429 35.557962543626 50.458718896697
NTL001 NTL97 2018-01-21 20:26:08 40175 429 35.539968980703 50.488029813387
NTL001 NTL97 2018-01-21 20:25:53 40170 429 35.521925963501 50.517396995893
NTL001 NTL97 2018-01-21 20:25:38 40162 429 35.503881005954 50.546745802445
NTL001 NTL97 2018-01-21 20:25:23 40159 431 35.485717389491 50.576213872906
NTL001 NTL97 2018-01-21 20:25:08 40164 431 35.467741033268 50.605392661505
NTL001 NTL97 2018-01-21 20:24:54 40172 431 35.449656172747 50.634737509817
NTL001 NTL97 2018-01-21 20:24:38 40172 431 35.431443554463 50.66424254345
NTL001 NTL97 2018-01-21 20:24:23 40162 431 35.41334741825 50.693522536215
NTL001 NTL97 2018-01-21 20:24:08 40153 431 35.395244325475 50.722811124726
NTL001 NTL97 2018-01-21 20:23:53 40157 431 35.377074758093 50.752169677737
NTL001 NTL97 2018-01-21 20:23:38 40157 431 35.358928480086 50.781462443211
NTL001 NTL97 2018-01-21 20:23:23 40152 431 35.340740780561 50.810811118332
NTL001 NTL97 2018-01-21 20:23:08 40148 431 35.322593445424 50.840055997831
NTL001 NTL97 2018-01-21 20:22:53 40151 431 35.304334989444 50.869469095469
NTL001 NTL97 2018-01-21 20:22:38 40154 431 35.286195041206 50.898651334902
NTL001 NTL97 2018-01-21 20:22:23 40153 431 35.267925363318 50.928025819037
NTL001 NTL97 2018-01-21 20:22:08 40150 431 35.249779071835 50.957180834106
NTL001 NTL97 2018-01-21 20:21:53 40148 431 35.231487807887 50.98655491131
NTL001 NTL97 2018-01-21 20:21:38 40148 433 35.213297675582 51.015714967471
NTL001 NTL97 2018-01-21 20:21:23 40150 433 35.195024315374 51.044997046759
NTL001 NTL97 2018-01-21 20:21:08 40152 433 35.176691329071 51.074342858649
NTL001 NTL97 2018-01-21 20:20:53 40152 433 35.158447736999 51.103521928639
NTL001 NTL97 2018-01-21 20:20:38 40151 433 35.140162479416 51.132767702475
NTL001 NTL97 2018-01-21 20:20:23 40152 433 35.121849041619 51.162017951558
NTL001 NTL97 2018-01-21 20:20:08 40153 433 35.103535791268 51.191252496818
NTL001 NTL97 2018-01-21 20:19:53 40155 433 35.085225802066 51.220445887262
NTL001 NTL97 2018-01-21 20:19:38 40155 433 35.066817745576 51.249782847834
NTL001 NTL97 2018-01-21 20:19:23 40156 433 35.048537460932 51.278859444456
NTL001 NTL97 2018-01-21 20:19:08 40154 433 35.030175255257 51.308073465111
NTL001 NTL97 2018-01-21 20:18:53 40147 433 35.011853078384 51.337178877317
NTL001 NTL97 2018-01-21 20:18:38 40144 433 34.993505588082 51.366327496608
NTL001 NTL97 2018-01-21 20:18:23 40149 433 34.975052453861 51.395621504311
NTL001 NTL97 2018-01-21 20:18:08 40157 433 34.956723880455 51.424653658243
NTL001 NTL97 2018-01-21 20:17:53 40161 433 34.938369944991 51.453738424513
NTL001 NTL97 2018-01-21 20:17:38 40155 433 34.920037963756 51.482776315094
NTL001 NTL97 2018-01-21 20:17:23 40149 433 34.901572079862 51.511928984584
NTL001 NTL97 2018-01-21 20:17:08 40153 433 34.883176597825 51.54100538091
NTL001 NTL97 2018-01-21 20:16:53 40160 433 34.864778253717 51.570075809021
NTL001 NTL97 2018-01-21 20:16:38 40167 433 34.846355850406 51.599150190203
NTL001 NTL97 2018-01-21 20:16:23 40167 433 34.82793660725 51.628149381062
NTL001 NTL97 2018-01-21 20:16:08 40160 433 34.809531184842 51.65713556781
NTL001 NTL97 2018-01-21 20:15:53 40157 433 34.791041331167 51.686239207018
NTL001 NTL97 2018-01-21 20:15:38 40162 433 34.772528273933 51.715329471752
NTL001 NTL97 2018-01-21 20:15:23 40169 433 34.754059951748 51.744343568877
NTL001 NTL97 2018-01-21 20:15:08 40173 433 34.73559660148 51.773345036152
NTL001 NTL97 2018-01-21 20:14:53 40168 433 34.717128975254 51.802284890062
NTL001 NTL97 2018-01-21 20:14:38 40159 433 34.698623903724 51.831291264609
NTL001 NTL97 2018-01-21 20:14:23 40154 433 34.680148254707 51.860253086495
NTL001 NTL97 2018-01-21 20:14:08 40159 433 34.661639255596 51.88920496678
NTL001 NTL97 2018-01-21 20:13:53 40166 433 34.643157784179 51.918087911292
NTL001 NTL97 2018-01-21 20:13:38 40169 433 34.624579684469 51.94711049036
NTL001 NTL97 2018-01-21 20:13:23 40162 435 34.606020235046 51.97608182557
NTL001 NTL97 2018-01-21 20:13:08 40157 435 34.587339234072 52.005195466959
NTL001 NTL97 2018-01-21 20:12:53 40156 435 34.56878464326 52.03412846835
NTL001 NTL97 2018-01-21 20:12:38 40163 435 34.550211821586 52.063039162955
NTL001 NTL97 2018-01-21 20:12:23 40171 435 34.531585150049 52.091984645039
NTL001 NTL97 2018-01-21 20:12:08 40170 435 34.512922315097 52.12101980426
NTL001 NTL97 2018-01-21 20:11:53 40163 435 34.494395028564 52.149788973152
NTL001 NTL97 2018-01-21 20:11:38 40159 433 34.475666438984 52.178859194596
NTL001 NTL97 2018-01-21 20:11:23 40164 433 34.45716458354 52.20753627912
NTL001 NTL97 2018-01-21 20:11:08 40172 435 34.438540500235 52.23641222472
NTL001 NTL97 2018-01-21 20:10:53 40174 435 34.419870051603 52.265310751457
NTL001 NTL97 2018-01-21 20:10:38 40167 435 34.401225879595 52.294133780863
NTL001 NTL97 2018-01-21 20:10:23 40161 435 34.382500570517 52.32309386945
NTL001 NTL97 2018-01-21 20:10:08 40162 435 34.363809936611 52.351966903891
NTL001 NTL97 2018-01-21 20:09:53 40169 435 34.345146455217 52.380760766527
NTL001 NTL97 2018-01-21 20:09:38 40175 435 34.326375965376 52.409697401088
NTL001 NTL97 2018-01-21 20:09:23 40172 435 34.307834404296 52.438254205266
NTL001 NTL97 2018-01-21 20:09:08 40165 435 34.289100518891 52.467112920034
NTL001 NTL97 2018-01-21 20:08:53 40162 435 34.270251069029 52.496093001146
NTL001 NTL97 2018-01-21 20:08:38 40167 435 34.251579862814 52.524776215189
NTL001 NTL97 2018-01-21 20:08:23 40174 435 34.232743039149 52.553714135506
NTL001 NTL97 2018-01-21 20:08:08 40176 437 34.214038867125 52.58242669648
NTL001 NTL97 2018-01-21 20:07:52 40171 437 34.195235016569 52.611249502648
NTL001 NTL97 2018-01-21 20:07:37 40165 437 34.176393240259 52.640099672036
NTL001 NTL97 2018-01-21 20:07:22 40166 437 34.157528008997 52.669001225769
NTL001 NTL97 2018-01-21 20:07:07 40173 437 34.13863807347 52.697870245264
NTL001 NTL97 2018-01-21 20:06:52 40179 437 34.119755389166 52.726722950863
NTL001 NTL97 2018-01-21 20:06:38 40177 437 34.100922942299 52.755475435508
NTL001 NTL97 2018-01-21 20:06:22 40170 437 34.082002042264 52.784361813216
NTL001 NTL97 2018-01-21 20:06:07 40168 439 34.062839064992 52.813593102945
NTL001 NTL97 2018-01-21 20:05:52 40173 439 34.04410071884 52.842136342324
NTL001 NTL97 2018-01-21 20:05:37 40182 439 34.025104538388 52.871040264667
NTL001 NTL97 2018-01-21 20:05:22 40192 439 34.006129560409 52.899892057586
NTL001 NTL97 2018-01-21 20:05:07 40198 439 33.987184290229 52.928682469415
NTL001 NTL97 2018-01-21 20:04:52 40194 439 33.968148933939 52.957581837876
NTL001 NTL97 2018-01-21 20:04:37 40197 439 33.949126741982 52.986449709236
NTL001 NTL97 2018-01-21 20:04:22 40206 441 33.930047708322 53.015374667131
NTL001 NTL97 2018-01-21 20:04:07 40210 441 33.91098607321 53.044272796447
NTL001 NTL97 2018-01-21 20:03:52 40206 441 33.891937911948 53.07309564664
NTL001 NTL97 2018-01-21 20:03:37 40199 441 33.872761593043 53.102087583209
NTL001 NTL97 2018-01-21 20:03:22 40200 441 33.853683176319 53.130915748433
NTL001 NTL97 2018-01-21 20:03:07 40207 441 33.83452129512 53.159856038025
NTL001 NTL97 2018-01-21 20:02:52 40214 441 33.815277950067 53.188880214687
NTL001 NTL97 2018-01-21 20:02:37 40214 441 33.796134200211 53.217735943527
NTL001 NTL97 2018-01-21 20:02:22 40206 443 33.776974836827 53.246623148961
NTL001 NTL97 2018-01-21 20:02:07 40203 443 33.757749747693 53.275534874944
NTL001 NTL97 2018-01-21 20:01:52 40208 443 33.738547409357 53.304416352557
NTL001 NTL97 2018-01-21 20:01:37 40216 443 33.719396076634 53.333216802862
NTL001 NTL97 2018-01-21 20:01:22 40220 443 33.700054880314 53.362251078221
NTL001 NTL97 2018-01-21 20:01:07 40215 443 33.680866440963 53.391052374676
NTL001 NTL97 2018-01-21 20:00:52 40209 443 33.661563159057 53.419983680546
NTL001 NTL97 2018-01-21 20:00:37 40211 443 33.642166145963 53.449032577408
NTL001 NTL97 2018-01-21 20:00:22 40218 443 33.622873635276 53.477917798668
NTL001 NTL97 2018-01-21 20:00:07 40224 443 33.603574155681 53.506758526751
NTL001 NTL97 2018-01-21 19:59:52 40222 445 33.584280245387 53.535592891167
NTL001 NTL97 2018-01-21 19:59:37 40216 443 33.564813344479 53.564668736003
NTL001 NTL97 2018-01-21 19:59:22 40216 445 33.545525890549 53.593469774153
NTL001 NTL97 2018-01-21 19:59:07 40221 445 33.526169600609 53.622308243318
NTL001 NTL97 2018-01-21 19:58:52 40225 445 33.506832025134 53.651110517908
NTL001 NTL97 2018-01-21 19:58:37 40230 445 33.487368216832 53.680067174047
NTL001 NTL97 2018-01-21 19:58:22 40238 445 33.468012755272 53.708877351459
NTL001 NTL97 2018-01-21 19:58:07 40242 445 33.448634673395 53.737682424459
NTL001 NTL97 2018-01-21 19:57:52 40238 445 33.42915190052 53.76659538062
NTL001 NTL97 2018-01-21 19:57:37 40232 445 33.40975607289 53.795374425168
NTL001 NTL97 2018-01-21 19:57:22 40233 445 33.390376956902 53.824105995669
NTL001 NTL97 2018-01-21 19:57:07 40240 445 33.370993541446 53.852831311916
NTL001 NTL97 2018-01-21 19:56:52 40247 445 33.351539034209 53.881652347565
NTL001 NTL97 2018-01-21 19:56:37 40247 445 33.331973894945 53.910562741057
NTL001 NTL97 2018-01-21 19:56:22 40240 445 33.312534763821 53.939288056039
NTL001 NTL97 2018-01-21 19:56:07 40236 445 33.293067121475 53.968052281921
NTL001 NTL97 2018-01-21 19:55:52 40244 447 33.273459871988 53.996965183987
NTL001 NTL97 2018-01-21 19:55:37 40252 447 33.253862164676 54.025857100547
NTL001 NTL97 2018-01-21 19:55:22 40253 447 33.234281387276 54.054713481967
NTL001 NTL97 2018-01-21 19:55:07 40247 447 33.214601213654 54.083700799423
NTL001 NTL97 2018-01-21 19:54:53 40243 447 33.195045465067 54.112446399602
NTL001 NTL97 2018-01-21 19:54:37 40246 447 33.175368528817 54.141367153554
NTL001 NTL97 2018-01-21 19:54:22 40254 447 33.155814593616 54.170111475839
NTL001 NTL97 2018-01-21 19:54:07 40260 447 33.136108566324 54.199038829829
NTL001 NTL97 2018-01-21 19:53:52 40257 447 33.116444370947 54.22782425402
NTL001 NTL97 2018-01-21 19:53:37 40250 447 33.096798611292 54.256612011872
NTL001 NTL97 2018-01-21 19:53:22 40249 447 33.077072669182 54.285528601646
NTL001 NTL97 2018-01-21 19:53:07 40255 447 33.057382406621 54.314334546147
NTL001 NTL97 2018-01-21 19:52:52 40263 447 33.037719971803 54.343061082493
NTL001 NTL97 2018-01-21 19:52:37 40265 447 33.018098382495 54.371717547794
NTL001 NTL97 2018-01-21 19:52:22 40259 447 32.99833096953 54.400556493373
NTL001 NTL97 2018-01-21 19:52:07 40252 447 32.978674135304 54.429222004936
NTL001 NTL97 2018-01-21 19:51:52 40253 447 32.958894861253 54.458046528031
NTL001 NTL97 2018-01-21 19:51:37 40261 447 32.93913089506 54.4868127871
NTL001 NTL97 2018-01-21 19:51:22 40263 447 32.919458732959 54.515463191138
NTL001 NTL97 2018-01-21 19:51:07 40258 449 32.89973577834 54.544145138874
NTL001 NTL97 2018-01-21 19:50:52 40252 449 32.879867989633 54.572981748439
NTL001 NTL97 2018-01-21 19:50:37 40254 449 32.860139408951 54.601608956334
NTL001 NTL97 2018-01-21 19:50:22 40262 449 32.840405445599 54.630265640283
NTL001 NTL97 2018-01-21 19:50:07 40268 449 32.820615038824 54.658930548454
NTL001 NTL97 2018-01-21 19:49:52 40265 449 32.800755913244 54.68765038969
NTL001 NTL97 2018-01-21 19:49:37 40257 449 32.780958961258 54.716328895011
NTL001 NTL97 2018-01-21 19:49:22 40255 449 32.761147239726 54.745037788796
NTL001 NTL97 2018-01-21 19:49:07 40260 449 32.741308183393 54.773630597868
NTL001 NTL97 2018-01-21 19:48:52 40266 449 32.721472275933 54.802281190738
NTL001 NTL97 2018-01-21 19:48:37 40270 449 32.701653408615 54.8308630565
NTL001 NTL97 2018-01-21 19:48:22 40265 449 32.681664317147 54.859675390364
NTL001 NTL97 2018-01-21 19:48:07 40258 449 32.661796884027 54.888304705713
NTL001 NTL97 2018-01-21 19:47:52 40258 450 32.641922018156 54.91689686548
NTL001 NTL97 2018-01-21 19:47:37 40265 450 32.622001747443 54.945552530563
NTL001 NTL97 2018-01-21 19:47:22 40271 450 32.601937522914 54.974385403132
NTL001 NTL97 2018-01-21 19:47:07 40269 450 32.581988907771 55.002985249256
NTL001 NTL97 2018-01-21 19:46:53 40260 450 32.561990616557 55.031695567685
NTL001 NTL97 2018-01-21 19:46:37 40254 450 32.542049045742 55.060370991626
NTL001 NTL97 2018-01-21 19:46:22 40262 450 32.522067201408 55.088975011059
NTL001 NTL97 2018-01-21 19:46:07 40274 450 32.501989067394 55.117641980597
NTL001 NTL97 2018-01-21 19:45:52 40268 450 32.481899120816 55.146440521053
NTL001 NTL97 2018-01-21 19:45:37 40263 452 32.461917222132 55.175009777879
NTL001 NTL97 2018-01-21 19:45:22 40258 452 32.441880359578 55.203620265551
NTL001 NTL97 2018-01-21 19:45:07 40258 452 32.421760388558 55.232325336071
NTL001 NTL97 2018-01-21 19:44:52 40267 452 32.401501714675 55.261194653969
NTL001 NTL97 2018-01-21 19:44:37 40268 452 32.381392538012 55.289827535324
NTL001 NTL97 2018-01-21 19:44:22 40262 452 32.361159780561 55.31861753954
NTL001 NTL97 2018-01-21 19:44:07 40258 452 32.341097274825 55.347170943366
NTL001 NTL97 2018-01-21 19:43:52 40259 452 32.320929623896 55.375971209525
NTL001 NTL97 2018-01-21 19:43:37 40260 454 32.300604349768 55.404742286659
NTL001 NTL97 2018-01-21 19:43:22 40266 454 32.280279668219 55.433347112553
NTL001 NTL97 2018-01-21 19:43:07 40268 454 32.260202076939 55.462159387867
NTL001 NTL97 2018-01-21 19:42:53 40260 454 32.240112983467 55.490882415204
NTL001 NTL97 2018-01-21 19:42:37 40253 454 32.219500528577 55.519241145632
NTL001 NTL97 2018-01-21 19:42:22 40258 454 32.198998764757 55.547993921714
NTL001 NTL97 2018-01-21 19:42:07 40265 454 32.179435661143 55.577330427731
NTL001 NTL97 2018-01-21 19:41:52 40261 454 32.159824017117 55.606705574883
NTL001 NTL97 2018-01-21 19:41:37 40251 454 32.14014895301 55.636138874777
NTL001 NTL97 2018-01-21 19:41:22 40248 454 32.120541471113 55.665461997955
NTL001 NTL97 2018-01-21 19:41:07 40253 454 32.100880094077 55.694876545031
NTL001 NTL97 2018-01-21 19:40:53 40262 454 32.081236060013 55.724162996911
NTL001 NTL97 2018-01-21 19:40:37 40259 454 32.061629780791 55.753452192405
NTL001 NTL97 2018-01-21 19:40:22 40254 454 32.04198338956 55.782798772089
NTL001 NTL97 2018-01-21 19:40:07 40254 454 32.022300167452 55.812115764598
NTL001 NTL97 2018-01-21 19:39:52 40244 454 32.002705840375 55.84133478524
NTL001 NTL97 2018-01-21 19:39:37 40246 456 31.982966513165 55.870665080989
NTL001 NTL97 2018-01-21 19:39:22 40251 454 31.963329448135 55.899952906566
NTL001 NTL97 2018-01-21 19:39:07 40258 456 31.943565374291 55.929337203882
NTL001 NTL97 2018-01-21 19:38:52 40248 454 31.923873132649 55.958537788743
NTL001 NTL97 2018-01-21 19:38:37 40249 456 31.904206579832 55.987693162419
NTL001 NTL97 2018-01-21 19:38:22 40253 454 31.884454720604 56.017004217428
NTL001 NTL97 2018-01-21 19:38:07 40263 454 31.864738996255 56.046185840664
NTL001 NTL97 2018-01-21 19:37:52 40259 454 31.844928816829 56.075506044455
NTL001 NTL97 2018-01-21 19:37:37 40253 454 31.825217721185 56.104689407142
NTL001 NTL97 2018-01-21 19:37:22 40241 454 31.805489570577 56.133883850747
NTL001 NTL97 2018-01-21 19:37:07 40246 454 31.785786308491 56.162985196336
NTL001 NTL97 2018-01-21 19:36:52 40254 454 31.76605753319 56.192070241629
NTL001 NTL97 2018-01-21 19:36:37 40256 454 31.746311642738 56.221176354807
NTL001 NTL97 2018-01-21 19:36:22 40254 454 31.726455853743 56.250462832902
NTL001 NTL97 2018-01-21 19:36:07 40243 456 31.706667908728 56.279570621571
NTL001 NTL97 2018-01-21 19:35:52 40241 456 31.686892041061 56.308607746403
NTL001 NTL97 2018-01-21 19:35:37 40248 456 31.667164325905 56.337734578001
NTL001 NTL97 2018-01-21 19:35:22 40256 456 31.64726666734 56.366870099907
NTL001 NTL97 2018-01-21 19:35:07 40253 456 31.627433245512 56.39594501302
NTL001 NTL97 2018-01-21 19:34:52 40248 456 31.607587487478 56.425102653751
NTL001 NTL97 2018-01-21 19:34:37 40243 456 31.587763127958 56.454175677889
NTL001 NTL97 2018-01-21 19:34:22 40242 456 31.567817521691 56.483379233126
NTL001 NTL97 2018-01-21 19:34:07 40236 456 31.547971798414 56.512430221416
NTL001 NTL97 2018-01-21 19:33:52 40229 456 31.528002691873 56.541613697615
NTL001 NTL97 2018-01-21 19:33:37 40231 456 31.508143749254 56.570631543187
NTL001 NTL97 2018-01-21 19:33:22 40239 456 31.488154018889 56.599814961412
NTL001 NTL97 2018-01-21 19:33:07 40244 456 31.468214466642 56.628914685364
NTL001 NTL97 2018-01-21 19:32:52 40239 458 31.448266866069 56.657987682883
NTL001 NTL97 2018-01-21 19:32:37 40232 458 31.428309816531 56.687069546179
NTL001 NTL97 2018-01-21 19:32:22 40230 458 31.408417345487 56.716043842039
NTL001 NTL97 2018-01-21 19:32:06 40237 458 31.388326088667 56.745272509619
NTL001 NTL97 2018-01-21 19:31:51 40244 458 31.368304416229 56.774312592253
NTL001 NTL97 2018-01-21 19:31:36 40244 458 31.348350466562 56.80328855835
NTL001 NTL97 2018-01-21 19:31:21 40237 458 31.328430550952 56.832338499593
NTL001 NTL97 2018-01-21 19:31:06 40231 458 31.308283265301 56.861532124641
NTL001 NTL97 2018-01-21 19:30:51 40235 458 31.288152779419 56.890381633837
NTL001 NTL97 2018-01-21 19:30:36 40242 458 31.268119235727 56.919584006914
NTL001 NTL97 2018-01-21 19:30:21 40250 458 31.248411306435 56.948852179738
NTL001 NTL97 2018-01-21 19:30:06 40243 460 31.227870796703 56.977699956346
NTL001 NTL97 2018-01-21 19:29:51 40236 460 31.206881005249 57.005934531379
NTL001 NTL97 2018-01-21 19:29:36 40237 460 31.185879112465 57.034173471222
NTL001 NTL97 2018-01-21 19:29:21 40243 460 31.164775815872 57.062504134661
NTL001 NTL97 2018-01-21 19:29:06 40250 460 31.143778553106 57.090687423629
NTL001 NTL97 2018-01-21 19:28:51 40249 460 31.122702492118 57.118954314099
NTL001 NTL97 2018-01-21 19:28:36 40241 460 31.10166702441 57.147146862278
NTL001 NTL97 2018-01-21 19:28:21 40237 460 31.080621238946 57.17534489009
NTL001 NTL97 2018-01-21 19:28:06 40241 460 31.059524746776 57.203560583035
NTL001 NTL97 2018-01-21 19:27:51 40249 460 31.038509615186 57.231673371483
NTL001 NTL97 2018-01-21 19:27:36 40252 460 31.017284362852 57.260029032705
NTL001 NTL97 2018-01-21 19:27:21 40246 460 30.996206364851 57.288183805882
NTL001 NTL97 2018-01-21 19:27:06 40239 462 30.975116492017 57.316309792033
NTL001 NTL97 2018-01-21 19:26:51 40240 462 30.95399020076 57.344491298773
NTL001 NTL97 2018-01-21 19:26:36 40247 462 30.932870498045 57.372616529402
NTL001 NTL97 2018-01-21 19:26:21 40252 462 30.911643778513 57.400870772754
NTL001 NTL97 2018-01-21 19:26:06 40250 462 30.890499836054 57.429015790344
NTL001 NTL97 2018-01-21 19:25:51 40243 462 30.86930510514 57.457226682194
NTL001 NTL97 2018-01-21 19:25:36 40239 460 30.848150104194 57.485261582747
NTL001 NTL97 2018-01-21 19:25:21 40243 460 30.826958987384 57.513357834444
NTL001 NTL97 2018-01-21 19:25:06 40251 460 30.805898388507 57.541501718099
NTL001 NTL97 2018-01-21 19:24:51 40252 460 30.784741967884 57.569808040255
NTL001 NTL97 2018-01-21 19:24:36 40244 460 30.763727602568 57.597921027919
NTL001 NTL97 2018-01-21 19:24:21 40238 460 30.742679713727 57.626075495007
NTL001 NTL97 2018-01-21 19:24:06 40240 460 30.72161591462 57.654218034953
NTL001 NTL97 2018-01-21 19:23:51 40247 460 30.700556685909 57.68233653497
NTL001 NTL97 2018-01-21 19:23:36 40250 460 30.679484445729 57.710474260915
NTL001 NTL97 2018-01-21 19:23:21 40245 460 30.658314073909 57.73868318791
NTL001 NTL97 2018-01-21 19:23:06 40238 460 30.637258188898 57.7667319106
NTL001 NTL97 2018-01-21 19:22:52 40236 460 30.616190908964 57.794789776575
NTL001 NTL97 2018-01-21 19:22:36 40241 460 30.594991978278 57.823002583962
NTL001 NTL97 2018-01-21 19:22:21 40247 462 30.573917628787 57.851013098541
NTL001 NTL97 2018-01-21 19:22:06 40245 460 30.552816281596 57.879045920872
NTL001 NTL97 2018-01-21 19:21:51 40237 462 30.531717745003 57.907040564315
NTL001 NTL97 2018-01-21 19:21:36 40231 462 30.510543595141 57.935120664415
NTL001 NTL97 2018-01-21 19:21:21 40235 462 30.489428721659 57.963136790845
NTL001 NTL97 2018-01-21 19:21:06 40242 462 30.468146940931 57.991342653918
NTL001 NTL97 2018-01-21 19:20:51 40242 462 30.446937039905 58.019387092496
NTL001 NTL97 2018-01-21 19:20:36 40235 462 30.425814857456 58.047331741357
NTL001 NTL97 2018-01-21 19:20:21 40228 462 30.404509927491 58.075502050193
NTL001 NTL97 2018-01-21 19:20:06 40227 462 30.38332110661 58.103489974933
NTL001 NTL97 2018-01-21 19:19:51 40234 462 30.362052577959 58.131566875879
NTL001 NTL97 2018-01-21 19:19:36 40237 462 30.340899050511 58.159438976343
NTL001 NTL97 2018-01-21 19:19:21 40233 462 30.31958927428 58.187546254172
NTL001 NTL97 2018-01-21 19:19:06 40226 462 30.298434045985 58.21543279363
NTL001 NTL97 2018-01-21 19:18:51 40217 462 30.277111700695 58.243478229097
NTL001 NTL97 2018-01-21 19:18:36 40209 462 30.255853269552 58.271422899805
NTL001 NTL97 2018-01-21 19:18:21 40202 462 30.234627342544 58.299354446327
NTL001 NTL97 2018-01-21 19:18:06 40200 462 30.213290549067 58.327351672158
NTL001 NTL97 2018-01-21 19:17:51 40204 462 30.191959779196 58.355326041748
NTL001 NTL97 2018-01-21 19:17:36 40207 464 30.170687097999 58.383250124228
NTL001 NTL97 2018-01-21 19:17:21 40203 464 30.149264616212 58.41131307764
NTL001 NTL97 2018-01-21 19:17:06 40196 462 30.12801848303 58.43915157238
NTL001 NTL97 2018-01-21 19:16:51 40190 464 30.106666031915 58.467091968481
NTL001 NTL97 2018-01-21 19:16:36 40193 464 30.085177453749 58.495182337456
NTL001 NTL97 2018-01-21 19:16:21 40197 464 30.063837263246 58.523070213801
NTL001 NTL97 2018-01-21 19:16:06 40196 464 30.042450586408 58.551013435315
NTL001 NTL97 2018-01-21 19:15:51 40190 464 30.021086673219 58.578902221339
NTL001 NTL97 2018-01-21 19:15:36 40181 464 29.999637336114 58.606793580875
NTL001 NTL97 2018-01-21 19:15:21 40179 464 29.97832248554 58.634579552783
NTL001 NTL97 2018-01-21 19:15:06 40187 464 29.95688616814 58.662747993571
NTL001 NTL97 2018-01-21 19:14:52 40190 464 29.935417469421 58.690551442204
NTL001 NTL97 2018-01-21 19:14:36 40184 464 29.913706485132 58.718145807414
NTL001 NTL97 2018-01-21 19:14:21 40177 466 29.892002942821 58.745694029927
NTL001 NTL97 2018-01-21 19:14:06 40170 466 29.870112199949 58.773480520815
NTL001 NTL97 2018-01-21 19:13:51 40161 466 29.848339688571 58.801086351959
NTL001 NTL97 2018-01-21 19:13:36 40153 466 29.826494276145 58.828740885541
NTL001 NTL97 2018-01-21 19:13:21 40152 466 29.804707221585 58.856331901735
NTL001 NTL97 2018-01-21 19:13:06 40156 466 29.782870662121 58.883960777801
NTL001 NTL97 2018-01-21 19:12:53 40161 466 29.760939344598 58.911694515435
NTL001 NTL97 2018-01-21 19:12:36 40157 466 29.739103703075 58.939266983949
NTL001 NTL97 2018-01-21 19:12:21 40149 468 29.717087204918 58.967059609106
NTL001 NTL97 2018-01-21 19:12:07 40142 468 29.695217215997 58.994661023031
NTL001 NTL97 2018-01-21 19:11:51 40146 468 29.673252051899 59.02233485467
NTL001 NTL97 2018-01-21 19:11:36 40151 468 29.651313125049 59.049984893237
NTL001 NTL97 2018-01-21 19:11:21 40152 468 29.629277621053 59.077726142872
NTL001 NTL97 2018-01-21 19:11:06 40148 468 29.607318791016 59.105352320958
NTL001 NTL97 2018-01-21 19:10:51 40139 468 29.58527621896 59.133055176739
NTL001 NTL97 2018-01-21 19:10:36 40136 468 29.563249369199 59.160732893166
NTL001 NTL97 2018-01-21 19:10:22 40143 470 29.541111798961 59.188537115187
NTL001 NTL97 2018-01-21 19:10:06 40149 470 29.519123977729 59.216110994753
NTL001 NTL97 2018-01-21 19:09:51 40145 470 29.496999181478 59.243849890644
NTL001 NTL97 2018-01-21 19:09:36 40138 470 29.474965803076 59.271471241311
NTL001 NTL97 2018-01-21 19:09:21 40131 470 29.452879767275 59.299120936808
NTL001 NTL97 2018-01-21 19:09:06 40134 470 29.4307623893 59.326776102746
NTL001 NTL97 2018-01-21 19:08:51 40142 470 29.408703035882 59.354349669879
NTL001 NTL97 2018-01-21 19:08:36 40142 470 29.386504133931 59.382083931735
NTL001 NTL97 2018-01-21 19:08:21 40135 470 29.364463714255 59.409603326428
NTL001 NTL97 2018-01-21 19:08:06 40127 470 29.342329835439 59.437213279569
NTL001 NTL97 2018-01-21 19:07:51 40128 470 29.320127878363 59.464905333949
NTL001 NTL97 2018-01-21 19:07:36 40135 470 29.29803821588 59.49244197371
NTL001 NTL97 2018-01-21 19:07:21 40139 470 29.275915709513 59.519964687005
NTL001 NTL97 2018-01-21 19:07:06 40134 470 29.253764707253 59.547510907875
NTL001 NTL97 2018-01-21 19:06:51 40126 470 29.231548614297 59.575154583213
NTL001 NTL97 2018-01-21 19:06:36 40125 470 29.209408070929 59.602666073921
NTL001 NTL97 2018-01-21 19:06:21 40130 470 29.187202882893 59.630160325194
NTL001 NTL97 2018-01-21 19:06:06 40132 470 29.165102941376 59.657634781164
NTL001 NTL97 2018-01-21 19:05:51 40132 470 29.142933971951 59.685309042879
NTL001 NTL97 2018-01-21 19:05:36 40128 468 29.120634062503 59.712680391872
NTL001 NTL97 2018-01-21 19:05:21 40122 468 29.09831238069 59.739935622707
NTL001 NTL97 2018-01-21 19:05:06 40111 466 29.076634658085 59.767592695357
NTL001 NTL97 2018-01-21 19:04:52 40108 466 29.055013045945 59.795140408591
NTL001 NTL97 2018-01-21 19:04:36 40126 464 29.032106621064 59.821262195971
NTL001 NTL97 2018-01-21 19:04:21 40118 462 29.009611901615 59.847617426857
NTL001 NTL97 2018-01-21 19:04:06 40133 456 28.990988670866 59.877392949346
NTL001 NTL97 2018-01-21 19:03:51 40121 454 28.975079072264 59.908645703165
NTL001 NTL97 2018-01-21 19:03:36 40113 456 28.960509626134 59.940786091739
NTL001 NTL97 2018-01-21 19:03:21 40111 456 28.945903479296 59.97303180274
NTL001 NTL97 2018-01-21 19:03:06 40118 456 28.931348037561 60.005183387759
NTL001 NTL97 2018-01-21 19:02:51 40123 456 28.916720288609 60.037431292849
NTL001 NTL97 2018-01-21 19:02:36 40123 456 28.902087184587 60.069670079035
NTL001 NTL97 2018-01-21 19:02:21 40116 456 28.887479067789 60.101826694805
NTL001 NTL97 2018-01-21 19:02:06 40110 456 28.872792671073 60.134143515535
NTL001 NTL97 2018-01-21 19:01:51 40113 456 28.858158149901 60.166293001786
NTL001 NTL97 2018-01-21 19:01:36 40120 456 28.843457681759 60.198521150356
NTL001 NTL97 2018-01-21 19:01:21 40122 456 28.82880970925 60.230685060503
NTL001 NTL97 2018-01-21 19:01:06 40117 456 28.814142349752 60.262839098097
NTL001 NTL97 2018-01-21 19:00:51 40110 456 28.799407419732 60.295147844711
NTL001 NTL97 2018-01-21 19:00:36 40108 456 28.784723406812 60.327277363437
NTL001 NTL97 2018-01-21 19:00:21 40114 456 28.770012668022 60.359429050258
NTL001 NTL97 2018-01-21 19:00:06 40120 456 28.75533643864 60.391512921921
NTL001 NTL97 2018-01-21 18:59:51 40117 456 28.740595031762 60.423738036345
NTL001 NTL97 2018-01-21 18:59:36 40109 456 28.725879821463 60.455790967386
NTL001 NTL97 2018-01-21 18:59:21 40103 456 28.711096412093 60.488030923781
NTL001 NTL97 2018-01-21 18:59:06 40107 458 28.69634817003 60.520184434469
NTL001 NTL97 2018-01-21 18:58:51 40115 456 28.681584605604 60.55229911842
NTL001 NTL97 2018-01-21 18:58:36 40115 456 28.666838631235 60.584340346025
NTL001 NTL97 2018-01-21 18:58:21 40108 456 28.652034726531 60.616518970815
NTL001 NTL97 2018-01-21 18:58:06 40101 456 28.637279694201 60.648591974659
NTL001 NTL97 2018-01-21 18:57:51 40101 456 28.622532744179 60.680573104446
NTL001 NTL97 2018-01-21 18:57:36 40108 456 28.607653742855 60.712825208354
NTL001 NTL97 2018-01-21 18:57:21 40111 458 28.5928368318 60.744919481291
NTL001 NTL97 2018-01-21 18:57:06 40106 458 28.578059366551 60.7769170266
NTL001 NTL97 2018-01-21 18:56:51 40099 456 28.563241720209 60.808939247262
NTL001 NTL97 2018-01-21 18:56:35 40093 458 28.548430194178 60.840962989678
NTL001 NTL97 2018-01-21 18:56:20 40093 458 28.533548712729 60.873102110575
NTL001 NTL97 2018-01-21 18:56:05 40089 458 28.51868289111 60.905174111057
NTL001 NTL97 2018-01-21 18:55:50 40082 458 28.503808704779 60.937206895832
NTL001 NTL97 2018-01-21 18:55:35 40076 458 28.488979607101 60.969174676901
NTL001 NTL97 2018-01-21 18:55:20 40079 458 28.474112720219 61.001204356687
NTL001 NTL97 2018-01-21 18:55:05 40085 458 28.459122650705 61.033405356566
NTL001 NTL97 2018-01-21 18:54:51 40083 458 28.444272922791 61.065332831234
NTL001 NTL97 2018-01-21 18:54:35 40077 458 28.42937254168 61.09735887353
NTL001 NTL97 2018-01-21 18:54:20 40068 458 28.414478637981 61.129337998428
NTL001 NTL97 2018-01-21 18:54:05 40067 458 28.39954840693 61.161310391149
NTL001 NTL97 2018-01-21 18:53:50 40074 458 28.38460473658 61.193333465337
NTL001 NTL97 2018-01-21 18:53:36 40077 458 28.36969235467 61.225268375604
NTL001 NTL97 2018-01-21 18:53:20 40072 458 28.354772629393 61.25715465788
NTL001 NTL97 2018-01-21 18:53:05 40062 458 28.339767240173 61.289254400965
NTL001 NTL97 2018-01-21 18:52:50 40059 458 28.32480537072 61.321200797188
NTL001 NTL97 2018-01-21 18:52:35 40063 458 28.309861484652 61.353064934658
NTL001 NTL97 2018-01-21 18:52:20 40068 456 28.294896734706 61.385011365223
NTL001 NTL97 2018-01-21 18:52:05 40067 456 28.27997147234 61.416859195579
NTL001 NTL97 2018-01-21 18:51:50 40061 456 28.264950232159 61.44873024343
NTL001 NTL97 2018-01-21 18:51:35 40053 454 28.25001787502 61.480434842596
NTL001 NTL97 2018-01-21 18:51:20 40047 454 28.235231074077 61.512181777181
NTL001 NTL97 2018-01-21 18:51:05 40056 452 28.220439516965 61.543633609984
NTL001 NTL97 2018-01-21 18:50:50 40071 449 28.205325658666 61.574793794996
NTL001 NTL97 2018-01-21 18:50:35 40074 443 28.190672327787 61.606006604559
NTL001 NTL97 2018-01-21 18:50:20 40020 437 28.177159099339 61.637140442025
NTL001 NTL97 2018-01-21 18:50:05 39586 447 28.162338019308 61.667515938624
NTL001 NTL97 2018-01-21 18:49:50 38532 460 28.145082499116 61.697515745249
NTL001 NTL97 2018-01-21 18:49:38 38063 454 28.131540117651 61.729958024355
NTL001 NTL97 2018-01-21 18:49:20 38049 458 28.116897059852 61.762053475035
NTL001 NTL97 2018-01-21 18:49:05 38042 458 28.101712410769 61.794012869611
NTL001 NTL97 2018-01-21 18:48:50 38044 458 28.086586878645 61.825846236894
NTL001 NTL97 2018-01-21 18:48:35 38052 458 28.071407059397 61.857735130879
NTL001 NTL97 2018-01-21 18:48:20 38055 458 28.056277741086 61.889407503304
NTL001 NTL97 2018-01-21 18:48:05 38050 458 28.041021077699 61.921365010595
NTL001 NTL97 2018-01-21 18:47:50 38042 458 28.025815694954 61.953218283291
NTL001 NTL97 2018-01-21 18:47:35 38040 458 28.010666867151 61.984946214373
NTL001 NTL97 2018-01-21 18:47:20 38045 458 27.995495622858 62.0166665951
NTL001 NTL97 2018-01-21 18:47:05 38051 458 27.980306110609 62.048445494655
NTL001 NTL97 2018-01-21 18:46:50 38050 458 27.964993624786 62.080387546161
NTL001 NTL97 2018-01-21 18:46:35 38043 458 27.949850355535 62.1119948058
NTL001 NTL97 2018-01-21 18:46:20 38037 458 27.934594987967 62.143828059997
NTL001 NTL97 2018-01-21 18:46:05 38040 458 27.919299701793 62.175679133379
NTL001 NTL97 2018-01-21 18:45:50 38047 458 27.904088741522 62.207338605953
NTL001 NTL97 2018-01-21 18:45:35 38049 458 27.888874570038 62.238999273133
NTL001 NTL97 2018-01-21 18:45:20 38044 458 27.873612473616 62.270730141613
NTL001 NTL97 2018-01-21 18:45:05 38037 458 27.858352536609 62.302418574457
NTL001 NTL97 2018-01-21 18:44:50 38036 458 27.843095590846 62.334089039545
NTL001 NTL97 2018-01-21 18:44:35 38042 458 27.827793058187 62.365831110773
NTL001 NTL97 2018-01-21 18:44:20 38048 458 27.812539299784 62.397464706875
NTL001 NTL97 2018-01-21 18:44:05 38045 458 27.797138925325 62.429345274239
NTL001 NTL97 2018-01-21 18:43:50 38039 460 27.78190706099 62.460865213975
NTL001 NTL97 2018-01-21 18:43:35 38034 460 27.766555655004 62.492572724827
NTL001 NTL97 2018-01-21 18:43:20 38037 460 27.751144133072 62.524452210902
NTL001 NTL97 2018-01-21 18:43:05 38044 460 27.735854742461 62.556035081672
NTL001 NTL97 2018-01-21 18:42:50 38046 460 27.720454218583 62.587827321186
NTL001 NTL97 2018-01-21 18:42:35 38041 460 27.705100558401 62.619441274689
NTL001 NTL97 2018-01-21 18:42:20 38033 460 27.689766265473 62.651016686702
NTL001 NTL97 2018-01-21 18:42:05 38033 460 27.67440156126 62.682679921563
NTL001 NTL97 2018-01-21 18:41:50 38041 460 27.658915459923 62.714544653159
NTL001 NTL97 2018-01-21 18:41:35 38046 460 27.643502877147 62.746161721321
NTL001 NTL97 2018-01-21 18:41:20 38041 460 27.628045384628 62.777936185407
NTL001 NTL97 2018-01-21 18:41:05 38034 460 27.612710913508 62.809504857837
NTL001 NTL97 2018-01-21 18:40:50 38031 460 27.597211937101 62.841211218733
NTL001 NTL97 2018-01-21 18:40:35 38036 460 27.581674832433 62.872837720618
NTL001 NTL97 2018-01-21 18:40:20 38043 462 27.566141074894 62.904508931472
NTL001 NTL97 2018-01-21 18:40:05 38042 460 27.550582421605 62.936159847695
NTL001 NTL97 2018-01-21 18:39:50 38035 460 27.534968818864 62.967873097185
NTL001 NTL97 2018-01-21 18:39:35 38029 460 27.519454476418 62.99941079544
NTL001 NTL97 2018-01-21 18:39:20 38032 460 27.50378625561 63.031215866703
NTL001 NTL97 2018-01-21 18:39:05 38040 460 27.488301689459 63.062608119395
NTL001 NTL97 2018-01-21 18:38:50 38043 460 27.472647460282 63.094331116325
NTL001 NTL97 2018-01-21 18:38:35 38037 460 27.4570590415 63.125937382202
NTL001 NTL97 2018-01-21 18:38:20 38030 460 27.441497956857 63.157445628074
NTL001 NTL97 2018-01-21 18:38:05 38029 462 27.42584922812 63.189060948503
NTL001 NTL97 2018-01-21 18:37:50 38034 462 27.410128197351 63.220832229996
NTL001 NTL97 2018-01-21 18:37:35 38041 462 27.3945271065 63.252366354403
NTL001 NTL97 2018-01-21 18:37:20 38039 462 27.378835204154 63.284026578225
NTL001 NTL97 2018-01-21 18:37:05 38032 462 27.363210747895 63.315507048143
NTL001 NTL97 2018-01-21 18:36:50 38028 462 27.347509637919 63.347165833637
NTL001 NTL97 2018-01-21 18:36:35 38031 460 27.331884372088 63.378652325995
NTL001 NTL97 2018-01-21 18:36:20 38036 460 27.316247323266 63.410092616876
NTL001 NTL97 2018-01-21 18:36:05 38036 460 27.300574539913 63.441590380533
NTL001 NTL97 2018-01-21 18:35:50 38034 460 27.284888301952 63.473087808289
NTL001 NTL97 2018-01-21 18:35:35 38025 458 27.269268247149 63.504479273589
NTL001 NTL97 2018-01-21 18:35:20 38014 458 27.253711557585 63.535746591398
NTL001 NTL97 2018-01-21 18:35:05 38002 458 27.238064942392 63.567115885033
NTL001 NTL97 2018-01-21 18:34:50 37989 458 27.222489313102 63.598270612714
NTL001 NTL97 2018-01-21 18:34:35 37985 458 27.20690461715 63.629468751773
NTL001 NTL97 2018-01-21 18:34:20 37991 458 27.191308786539 63.660671662808
NTL001 NTL97 2018-01-21 18:34:05 37998 458 27.175662786708 63.691971365622
NTL001 NTL97 2018-01-21 18:33:50 37998 458 27.160072553226 63.723081673697
NTL001 NTL97 2018-01-21 18:33:35 37992 458 27.144340647567 63.754414260058
NTL001 NTL97 2018-01-21 18:33:20 37984 458 27.128727825927 63.785614192335
NTL001 NTL97 2018-01-21 18:33:05 37988 458 27.11317278061 63.816820161566
NTL001 NTL97 2018-01-21 18:32:50 37996 458 27.097458500313 63.847937984808
NTL001 NTL97 2018-01-21 18:32:35 37999 458 27.081622886037 63.879056611667
NTL001 NTL97 2018-01-21 18:32:20 37993 460 27.06611507639 63.910524697684
NTL001 NTL97 2018-01-21 18:32:05 37993 460 27.050685419669 63.94197099965
NTL001 NTL97 2018-01-21 18:31:50 37989 462 27.034141464111 63.972803833755
NTL001 NTL97 2018-01-21 18:31:35 37986 466 27.017792884135 64.004326577606
NTL001 NTL97 2018-01-21 18:31:20 37973 468 27.004156848092 64.037164494773
NTL001 NTL97 2018-01-21 18:31:05 37976 480 26.988092568994 64.069395422394
NTL001 NTL97 2018-01-21 18:30:50 37999 491 26.96642480426 64.098729783961
NTL001 NTL97 2018-01-21 18:30:35 37981 497 26.943004174348 64.126908935597
NTL001 NTL97 2018-01-21 18:30:20 37969 513 26.915443561887 64.151395752056
NTL001 NTL97 2018-01-21 18:30:05 37978 526 26.883308633905 64.169875701154
NTL001 NTL97 2018-01-21 18:29:50 37971 526 26.849685372816 64.185746374236
NTL001 NTL97 2018-01-21 18:29:35 37970 526 26.815940476095 64.201679798862
NTL001 NTL97 2018-01-21 18:29:20 37977 526 26.782108972648 64.217660801387
NTL001 NTL97 2018-01-21 18:29:05 37983 526 26.748411980624 64.233552630683
NTL001 NTL97 2018-01-21 18:28:50 37981 526 26.71464064661 64.249459130589
NTL001 NTL97 2018-01-21 18:28:35 37973 526 26.680979655057 64.265311020008
NTL001 NTL97 2018-01-21 18:28:20 37970 526 26.647301926604 64.281172591436
NTL001 NTL97 2018-01-21 18:28:05 37974 526 26.613623170656 64.297014717201
NTL001 NTL97 2018-01-21 18:27:50 37982 526 26.579788458135 64.312905306139
NTL001 NTL97 2018-01-21 18:27:35 37983 526 26.546024158635 64.328770767049
NTL001 NTL97 2018-01-21 18:27:20 37977 526 26.512357820792 64.344599887847
NTL001 NTL97 2018-01-21 18:27:05 37970 526 26.478690129478 64.360382051549
NTL001 NTL97 2018-01-21 18:26:50 37972 526 26.444866094819 64.376235742886
NTL001 NTL97 2018-01-21 18:26:35 37979 526 26.411185040668 64.392021636796
NTL001 NTL97 2018-01-21 18:26:20 37984 526 26.377326655859 64.407885296356
NTL001 NTL97 2018-01-21 18:26:05 37980 526 26.343532797441 64.423694073422
NTL001 NTL97 2018-01-21 18:25:50 37973 526 26.309751957873 64.439499005552
NTL001 NTL97 2018-01-21 18:25:35 37971 526 26.276084036087 64.455242253947
NTL001 NTL97 2018-01-21 18:25:20 37976 526 26.242410024003 64.470950578472
NTL001 NTL97 2018-01-21 18:25:05 37985 526 26.208444074191 64.48680310426
NTL001 NTL97 2018-01-21 18:24:50 37986 526 26.174798524045 64.502519345696
NTL001 NTL97 2018-01-21 18:24:35 37979 526 26.14105430657 64.518255065668
NTL001 NTL97 2018-01-21 18:24:20 37973 526 26.107139868807 64.534030829687
NTL001 NTL97 2018-01-21 18:24:05 37977 526 26.073404330534 64.549741263638
NTL001 NTL97 2018-01-21 18:23:50 37984 526 26.03962857436 64.56550029766
NTL001 NTL97 2018-01-21 18:23:35 37987 524 26.005883220451 64.581176790416
NTL001 NTL97 2018-01-21 18:23:20 37982 524 25.972027945801 64.596848956645
NTL001 NTL97 2018-01-21 18:23:05 37975 524 25.938376764031 64.612432370441
NTL001 NTL97 2018-01-21 18:22:50 37975 524 25.904651898543 64.628086735538
NTL001 NTL97 2018-01-21 18:22:35 37982 524 25.870697846743 64.64377364886
NTL001 NTL97 2018-01-21 18:22:20 37988 524 25.836918477337 64.659347627189
NTL001 NTL97 2018-01-21 18:22:05 37985 524 25.803160632519 64.674986539871
NTL001 NTL97 2018-01-21 18:21:49 37980 524 25.769553130621 64.690578563642
NTL001 NTL97 2018-01-21 18:21:35 37977 524 25.73567194133 64.706119987709
NTL001 NTL97 2018-01-21 18:21:19 37980 524 25.702021902097 64.721514661663
NTL001 NTL97 2018-01-21 18:21:04 37983 524 25.668468718438 64.737194588706
NTL001 NTL97 2018-01-21 18:20:50 37987 522 25.634726784126 64.752908850835
NTL001 NTL97 2018-01-21 18:20:34 37984 520 25.601036011201 64.767863899135
NTL001 NTL97 2018-01-21 18:20:19 37971 519 25.567493067232 64.783030229722
NTL001 NTL97 2018-01-21 18:20:04 37971 515 25.534668073338 64.799340763124
NTL001 NTL97 2018-01-21 18:19:49 37987 513 25.501730952949 64.814663406713
NTL001 NTL97 2018-01-21 18:19:34 37981 515 25.467970127358 64.827562941627
NTL001 NTL97 2018-01-21 18:19:19 37983 507 25.435097989603 64.843324094111
NTL001 NTL97 2018-01-21 18:19:04 37985 503 25.405287480944 64.863789633339
NTL001 NTL97 2018-01-21 18:18:49 37990 501 25.376992001407 64.886315014932
NTL001 NTL97 2018-01-21 18:18:34 37985 501 25.348626084417 64.909004932236
NTL001 NTL97 2018-01-21 18:18:19 37978 501 25.320386592899 64.931558218488
NTL001 NTL97 2018-01-21 18:18:04 37978 501 25.292081711602 64.954148978593
NTL001 NTL97 2018-01-21 18:17:49 37985 501 25.263736447056 64.976774545818
NTL001 NTL97 2018-01-21 18:17:34 37991 501 25.235485298718 64.999298313465
NTL001 NTL97 2018-01-21 18:17:19 37988 501 25.207086339351 65.021943602891
NTL001 NTL97 2018-01-21 18:17:04 37981 501 25.178824642011 65.044448963831
NTL001 NTL97 2018-01-21 18:16:49 37978 501 25.150598869064 65.066921626343
NTL001 NTL97 2018-01-21 18:16:34 37982 501 25.122134811967 65.089566576095
NTL001 NTL97 2018-01-21 18:16:19 37990 501 25.093833273241 65.112077284459
NTL001 NTL97 2018-01-21 18:16:04 37991 501 25.065590419241 65.134508135329
NTL001 NTL97 2018-01-21 18:15:49 37985 501 25.037144361016 65.157104258378
NTL001 NTL97 2018-01-21 18:15:34 37978 501 25.008719549025 65.179671946903
NTL001 NTL97 2018-01-21 18:15:19 37981 501 24.980448694507 65.20209804004
NTL001 NTL97 2018-01-21 18:15:04 37988 501 24.952084349404 65.224594272361
NTL001 NTL97 2018-01-21 18:14:49 37994 501 24.923785282401 65.247022181943
NTL001 NTL97 2018-01-21 18:14:34 37990 501 24.895242782576 65.26961515312
NTL001 NTL97 2018-01-21 18:14:19 37983 501 24.866937234187 65.291995286529
NTL001 NTL97 2018-01-21 18:14:04 37983 501 24.838517722068 65.314506246746
NTL001 NTL97 2018-01-21 18:13:49 37990 503 24.810161699928 65.336939093423
NTL001 NTL97 2018-01-21 18:13:34 37996 503 24.78182464881 65.359298562213
NTL001 NTL97 2018-01-21 18:13:19 37993 503 24.753314278909 65.381798153507
NTL001 NTL97 2018-01-21 18:13:04 37985 503 24.724812702161 65.404320564445
NTL001 NTL97 2018-01-21 18:12:49 37981 503 24.696435082364 65.426718568018
NTL001 NTL97 2018-01-21 18:12:34 37988 503 24.667841852335 65.449247065263
NTL001 NTL97 2018-01-21 18:12:19 37995 505 24.639394471054 65.471654411305
NTL001 NTL97 2018-01-21 18:12:04 37994 503 24.610875953986 65.494103577784
NTL001 NTL97 2018-01-21 18:11:49 37987 503 24.582231597159 65.516643651181
NTL001 NTL97 2018-01-21 18:11:34 37981 503 24.553873998338 65.538942762267
NTL001 NTL97 2018-01-21 18:11:19 37985 503 24.525246606255 65.561459766681
NTL001 NTL97 2018-01-21 18:11:04 37992 503 24.496867416138 65.58373848539
NTL001 NTL97 2018-01-21 18:10:49 37996 503 24.468258415721 65.606205573344
NTL001 NTL97 2018-01-21 18:10:34 37991 503 24.439882331817 65.628483233014
NTL001 NTL97 2018-01-21 18:10:19 37984 503 24.411446472889 65.650781172913
NTL001 NTL97 2018-01-21 18:10:04 37982 503 24.382857477512 65.673187992477
NTL001 NTL97 2018-01-21 18:09:49 37988 503 24.354382191361 65.695491642503
NTL001 NTL97 2018-01-21 18:09:34 37995 503 24.325986649875 65.717729702305
NTL001 NTL97 2018-01-21 18:09:19 37993 503 24.297380128174 65.740127426577
NTL001 NTL97 2018-01-21 18:09:04 37987 503 24.268874885495 65.762395201632
NTL001 NTL97 2018-01-21 18:08:51 37981 503 24.240394372289 65.784651266646
NTL001 NTL97 2018-01-21 18:08:34 37985 503 24.211904762262 65.80690668996
NTL001 NTL97 2018-01-21 18:08:19 37992 503 24.183271689832 65.82925980666
NTL001 NTL97 2018-01-21 18:08:04 37995 503 24.154792217675 65.851475610235
NTL001 NTL97 2018-01-21 18:07:49 37989 503 24.126349609167 65.873687980885
NTL001 NTL97 2018-01-21 18:07:34 37982 503 24.097817393155 65.895931986093
NTL001 NTL97 2018-01-21 18:07:19 37982 503 24.069122905412 65.918254965669
NTL001 NTL97 2018-01-21 18:07:04 37988 503 24.040687206465 65.940408493415
NTL001 NTL97 2018-01-21 18:06:49 37994 503 24.012167149833 65.962622134986
NTL001 NTL97 2018-01-21 18:06:34 37991 503 23.983505442181 65.984885065936
NTL001 NTL97 2018-01-21 18:06:19 37984 503 23.954941294116 66.007034237387
NTL001 NTL97 2018-01-21 18:06:04 37974 503 23.926445378333 66.029155830258
NTL001 NTL97 2018-01-21 18:05:49 37961 503 23.897918410759 66.051309154439
NTL001 NTL97 2018-01-21 18:05:34 37958 503 23.869148557176 66.073574194475
NTL001 NTL97 2018-01-21 18:05:19 37966 503 23.840537829711 66.095689500715
NTL001 NTL97 2018-01-21 18:05:04 37966 503 23.812082387539 66.117779437311
NTL001 NTL97 2018-01-21 18:04:49 37959 503 23.783551524584 66.139900608621
NTL001 NTL97 2018-01-21 18:04:34 37954 503 23.754745607552 66.162044460991
NTL001 NTL97 2018-01-21 18:04:19 37955 503 23.726270433367 66.184035922794
NTL001 NTL97 2018-01-21 18:04:04 37962 503 23.697783455672 66.206300531399
NTL001 NTL97 2018-01-21 18:03:49 37965 503 23.668997527011 66.228447910231
NTL001 NTL97 2018-01-21 18:03:34 37960 503 23.640276927175 66.250071830964
NTL001 NTL97 2018-01-21 18:03:19 37946 501 23.611765755356 66.272406930437
NTL001 NTL97 2018-01-21 18:03:04 37948 501 23.583792617524 66.294994845101
NTL001 NTL97 2018-01-21 18:02:49 37972 499 23.55480618135 66.316209433501
NTL001 NTL97 2018-01-21 18:02:34 37960 497 23.525750881006 66.336716653081
NTL001 NTL97 2018-01-21 18:02:19 37954 493 23.499060222901 66.360561543637
NTL001 NTL97 2018-01-21 18:02:04 37950 491 23.47474779927 66.386976638266
NTL001 NTL97 2018-01-21 18:01:49 37956 491 23.450970623436 66.413643636502
NTL001 NTL97 2018-01-21 18:01:34 37963 491 23.427150641245 66.440332053625
NTL001 NTL97 2018-01-21 18:01:19 37962 491 23.403339735068 66.46702271586
NTL001 NTL97 2018-01-21 18:01:04 37955 491 23.379352648597 66.493885011774
NTL001 NTL97 2018-01-21 18:00:49 37948 493 23.355500253077 66.520566127294
NTL001 NTL97 2018-01-21 18:00:34 37951 493 23.33149056327 66.547403222405
NTL001 NTL97 2018-01-21 18:00:19 37959 493 23.307660478374 66.574037247204
NTL001 NTL97 2018-01-21 18:00:04 37961 493 23.283562160498 66.600943566452
NTL001 NTL97 2018-01-21 17:59:49 37955 493 23.259591805868 66.62769928962
NTL001 NTL97 2018-01-21 17:59:34 37948 493 23.235651174033 66.654410821586
NTL001 NTL97 2018-01-21 17:59:19 37947 493 23.211700218625 66.681109222551
NTL001 NTL97 2018-01-21 17:59:04 37954 493 23.187625170748 66.707951175754
NTL001 NTL97 2018-01-21 17:58:49 37959 493 23.163637682974 66.734685780214
NTL001 NTL97 2018-01-21 17:58:34 37956 493 23.139654671722 66.761367632312
NTL001 NTL97 2018-01-21 17:58:19 37948 493 23.115505881167 66.788204242523
NTL001 NTL97 2018-01-21 17:58:04 37944 493 23.091517332467 66.814914505374
NTL001 NTL97 2018-01-21 17:57:49 37949 495 23.067523506259 66.841598262225
NTL001 NTL97 2018-01-21 17:57:34 37955 495 23.04350898152 66.868242406285
NTL001 NTL97 2018-01-21 17:57:19 37955 495 23.019337845491 66.895057822239
NTL001 NTL97 2018-01-21 17:57:04 37949 495 22.995284609048 66.921784905404
NTL001 NTL97 2018-01-21 17:56:49 37942 495 22.971233000711 66.948474340961
NTL001 NTL97 2018-01-21 17:56:34 37942 495 22.947164687697 66.975080486376
NTL001 NTL97 2018-01-21 17:56:19 37950 495 22.9229189753 67.00185356317
NTL001 NTL97 2018-01-21 17:56:04 37953 495 22.898829876474 67.028414951937
NTL001 NTL97 2018-01-21 17:55:49 37949 495 22.87463182824 67.05509751933
NTL001 NTL97 2018-01-21 17:55:34 37941 495 22.850325748685 67.081890841865
NTL001 NTL97 2018-01-21 17:55:19 37932 497 22.826087156199 67.108580500886
NTL001 NTL97 2018-01-21 17:55:04 37930 497 22.801877771665 67.135211889892
NTL001 NTL97 2018-01-21 17:54:49 37936 497 22.777702934302 67.161807745711
NTL001 NTL97 2018-01-21 17:54:34 37942 497 22.753378571696 67.18856620702
NTL001 NTL97 2018-01-21 17:54:19 37940 497 22.729086838986 67.215249245978
NTL001 NTL97 2018-01-21 17:54:04 37932 497 22.70484375042 67.241856310952
NTL001 NTL97 2018-01-21 17:53:49 37927 497 22.680458026893 67.268645890871
NTL001 NTL97 2018-01-21 17:53:34 37931 497 22.656184203607 67.295285364704
NTL001 NTL97 2018-01-21 17:53:19 37938 497 22.631918402222 67.321877867919
NTL001 NTL97 2018-01-21 17:53:04 37939 497 22.607637200513 67.348526397529
NTL001 NTL97 2018-01-21 17:52:50 37933 497 22.583386756956 67.375090453197
NTL001 NTL97 2018-01-21 17:52:37 37925 497 22.559066960882 67.40169933685
NTL001 NTL97 2018-01-21 17:52:19 37925 497 22.534635352933 67.428427123748
NTL001 NTL97 2018-01-21 17:52:04 37932 497 22.510340011973 67.454973502343
NTL001 NTL97 2018-01-21 17:51:49 37936 497 22.485924537284 67.481671129907
NTL001 NTL97 2018-01-21 17:51:34 37932 497 22.461499702345 67.508370069395
NTL001 NTL97 2018-01-21 17:51:19 37925 497 22.437169165381 67.534936853156
NTL001 NTL97 2018-01-21 17:51:04 37921 497 22.412853631393 67.561454256616
NTL001 NTL97 2018-01-21 17:50:50 37926 497 22.388348470303 67.588180878071
NTL001 NTL97 2018-01-21 17:50:34 37934 499 22.363949537584 67.614796146896
NTL001 NTL97 2018-01-21 17:50:19 37935 499 22.33964269491 67.641270444825
NTL001 NTL97 2018-01-21 17:50:04 37927 499 22.31511839919 67.667956362204
NTL001 NTL97 2018-01-21 17:49:49 37923 499 22.290660500398 67.694596630139
NTL001 NTL97 2018-01-21 17:49:34 37926 499 22.266225456442 67.721192495067
NTL001 NTL97 2018-01-21 17:49:19 37933 499 22.241779200354 67.747775165629
NTL001 NTL97 2018-01-21 17:49:04 37936 499 22.217281094859 67.774382680782
NTL001 NTL97 2018-01-21 17:48:49 37927 499 22.192723791109 67.801036740234
NTL001 NTL97 2018-01-21 17:48:34 37920 499 22.168310095984 67.827558572922
NTL001 NTL97 2018-01-21 17:48:19 37921 499 22.143647569995 67.854343936453
NTL001 NTL97 2018-01-21 17:48:04 37928 499 22.119139535741 67.880900502818
NTL001 NTL97 2018-01-21 17:47:49 37932 499 22.094629441601 67.907450311657
NTL001 NTL97 2018-01-21 17:47:34 37927 499 22.070166121144 67.933966595657
NTL001 NTL97 2018-01-21 17:47:19 37919 499 22.045543027736 67.960692494383
NTL001 NTL97 2018-01-21 17:47:04 37917 499 22.021162115294 67.987174826332
NTL001 NTL97 2018-01-21 17:46:49 37922 499 21.996699470005 68.013723708887
NTL001 NTL97 2018-01-21 17:46:34 37929 499 21.97207500925 68.040420422374
NTL001 NTL97 2018-01-21 17:46:19 37927 499 21.947531077951 68.067001848946
NTL001 NTL97 2018-01-21 17:46:07 37920 499 21.923020181158 68.093545889308
NTL001 NTL97 2018-01-21 17:45:49 37914 499 21.898511397945 68.120099482611
NTL001 NTL97 2018-01-21 17:45:33 37917 499 21.874041784854 68.146573110777
NTL001 NTL97 2018-01-21 17:45:19 37925 499 21.849495030903 68.173138037576
NTL001 NTL97 2018-01-21 17:45:04 37926 499 21.824821910001 68.199799425124
NTL001 NTL97 2018-01-21 17:44:49 37921 499 21.800284129365 68.226303198742
NTL001 NTL97 2018-01-21 17:44:34 37913 501 21.77563045305 68.252927344571
NTL001 NTL97 2018-01-21 17:44:18 37913 501 21.751072198182 68.279432860077
NTL001 NTL97 2018-01-21 17:44:04 37921 501 21.726550760316 68.305888103989
NTL001 NTL97 2018-01-21 17:43:49 37924 501 21.701942385786 68.332424359741
NTL001 NTL97 2018-01-21 17:43:33 37920 501 21.677153834585 68.359121859858
NTL001 NTL97 2018-01-21 17:43:18 37912 501 21.652497511219 68.385664229799
NTL001 NTL97 2018-01-21 17:43:04 37905 501 21.627922296684 68.412139757549
NTL001 NTL97 2018-01-21 17:42:48 37905 501 21.603217850517 68.438738027071
NTL001 NTL97 2018-01-21 17:42:33 37911 501 21.578650619033 68.465147082229
NTL001 NTL97 2018-01-21 17:42:18 37916 501 21.553854681765 68.491790163396
NTL001 NTL97 2018-01-21 17:42:03 37914 503 21.529197193156 68.51829845565
NTL001 NTL97 2018-01-21 17:41:48 37907 503 21.504467872521 68.544866597908
NTL001 NTL97 2018-01-21 17:41:33 37902 503 21.479765153813 68.571361379885
NTL001 NTL97 2018-01-21 17:41:18 37906 503 21.45505157418 68.597845302839
NTL001 NTL97 2018-01-21 17:41:03 37913 503 21.430229268517 68.62447463849
NTL001 NTL97 2018-01-21 17:40:48 37915 503 21.405430584178 68.651054669721
NTL001 NTL97 2018-01-21 17:40:33 37909 503 21.380671939255 68.677572194563
NTL001 NTL97 2018-01-21 17:40:18 37902 503 21.355802721698 68.704184036163
NTL001 NTL97 2018-01-21 17:40:03 37903 503 21.330946196568 68.730754817992
NTL001 NTL97 2018-01-21 17:39:48 37909 503 21.306152324329 68.757311552903
NTL001 NTL97 2018-01-21 17:39:33 37914 503 21.281387454175 68.783755923094
NTL001 NTL97 2018-01-21 17:39:18 37912 505 21.256396359578 68.810451183314
NTL001 NTL97 2018-01-21 17:39:03 37904 505 21.231642162056 68.836913562693
NTL001 NTL97 2018-01-21 17:38:49 37902 505 21.206732049283 68.863493487894
NTL001 NTL97 2018-01-21 17:38:33 37906 505 21.181828551987 68.89001440985
NTL001 NTL97 2018-01-21 17:38:18 37911 505 21.15689867109 68.916645200406
NTL001 NTL97 2018-01-21 17:38:03 37912 505 21.132011384645 68.943238235569
NTL001 NTL97 2018-01-21 17:37:48 37910 505 21.106996503342 68.969746180044
NTL001 NTL97 2018-01-21 17:37:33 37901 505 21.081939410974 68.99630561558
NTL001 NTL97 2018-01-21 17:37:18 37902 505 21.05729693874 69.022853146849
NTL001 NTL97 2018-01-21 17:37:03 37909 505 21.032419977562 69.049450021169
NTL001 NTL97 2018-01-21 17:36:48 37915 505 21.007125749897 69.075586390717
NTL001 NTL97 2018-01-21 17:36:33 37906 505 20.982104470782 69.102170346359
NTL001 NTL97 2018-01-21 17:36:18 37901 505 20.957978450743 69.129463689488
NTL001 NTL97 2018-01-21 17:36:03 37905 505 20.933936085783 69.156790985104
NTL001 NTL97 2018-01-21 17:35:48 37911 505 20.909814244843 69.184210456505
NTL001 NTL97 2018-01-21 17:35:33 37914 505 20.88569527516 69.211599638977
NTL001 NTL97 2018-01-21 17:35:18 37908 505 20.861534539607 69.239010325384
NTL001 NTL97 2018-01-21 17:35:03 37902 505 20.837457073573 69.266322203656
NTL001 NTL97 2018-01-21 17:34:48 37899 505 20.813270491155 69.293719573812
NTL001 NTL97 2018-01-21 17:34:33 37908 505 20.788993873715 69.32125564225
NTL001 NTL97 2018-01-21 17:34:18 37914 507 20.764937890856 69.348526654754
NTL001 NTL97 2018-01-21 17:34:03 37910 507 20.740653731556 69.37597209822
NTL001 NTL97 2018-01-21 17:33:48 37902 507 20.716443245161 69.403350723465
NTL001 NTL97 2018-01-21 17:33:33 37900 507 20.692323862917 69.43066610507
NTL001 NTL97 2018-01-21 17:33:18 37906 507 20.668000603171 69.458155134799
NTL001 NTL97 2018-01-21 17:33:03 37912 507 20.643828452923 69.485462531503
NTL001 NTL97 2018-01-21 17:32:48 37912 507 20.619486573558 69.512949941342
NTL001 NTL97 2018-01-21 17:32:33 37905 507 20.595272438091 69.540272607933
NTL001 NTL97 2018-01-21 17:32:18 37899 507 20.570924544291 69.567743037218
NTL001 NTL97 2018-01-21 17:32:03 37903 509 20.54656470404 69.595197034226
NTL001 NTL97 2018-01-21 17:31:48 37910 509 20.522252999211 69.622606940666
NTL001 NTL97 2018-01-21 17:31:33 37917 509 20.497993491115 69.649947065912
NTL001 NTL97 2018-01-21 17:31:18 37913 509 20.473676876331 69.677316708601
NTL001 NTL97 2018-01-21 17:31:03 37905 509 20.449227577683 69.704841962522
NTL001 NTL97 2018-01-21 17:30:49 37904 509 20.424893806746 69.732195206338
NTL001 NTL97 2018-01-21 17:30:33 37910 509 20.40047169535 69.759652615544
NTL001 NTL97 2018-01-21 17:30:18 37916 509 20.376179967876 69.786944241935
NTL001 NTL97 2018-01-21 17:30:03 37915 509 20.351792430201 69.814328689024
NTL001 NTL97 2018-01-21 17:29:48 37908 509 20.327411858222 69.841697812625
NTL001 NTL97 2018-01-21 17:29:33 37903 509 20.302879339338 69.869252064024
NTL001 NTL97 2018-01-21 17:29:18 37906 509 20.27847768012 69.896590415856
NTL001 NTL97 2018-01-21 17:29:03 37913 509 20.254098507018 69.923905284145
NTL001 NTL97 2018-01-21 17:28:48 37916 509 20.229583768383 69.951415437205
NTL001 NTL97 2018-01-21 17:28:33 37911 509 20.205178819681 69.97872052554
NTL001 NTL97 2018-01-21 17:28:18 37904 509 20.18067020929 70.006083551157
NTL001 NTL97 2018-01-21 17:28:03 37903 509 20.156315609415 70.033416654994
NTL001 NTL97 2018-01-21 17:27:51 37910 509 20.131867051391 70.060874601522
NTL001 NTL97 2018-01-21 17:27:33 37916 509 20.107351865757 70.08801788551
NTL001 NTL97 2018-01-21 17:27:18 37912 509 20.082810050916 70.115276151419
NTL001 NTL97 2018-01-21 17:27:03 37907 509 20.05848943363 70.143002817212
NTL001 NTL97 2018-01-21 17:26:48 37899 509 20.034112257103 70.170312225462
NTL001 NTL97 2018-01-21 17:26:33 37902 509 20.009083471293 70.197058110213
NTL001 NTL97 2018-01-21 17:26:18 37908 507 19.98488222869 70.224271146231
NTL001 NTL97 2018-01-21 17:26:03 37916 507 19.961548511723 70.252677372203
NTL001 NTL97 2018-01-21 17:25:48 37924 509 19.936573648275 70.279077523964
NTL001 NTL97 2018-01-21 17:25:33 37898 505 19.909886749201 70.303907269555
NTL001 NTL97 2018-01-21 17:25:18 37911 501 19.887461014078 70.332327582664
NTL001 NTL97 2018-01-21 17:25:03 37903 499 19.869747807056 70.364093997441
NTL001 NTL97 2018-01-21 17:24:48 37900 497 19.855826639448 70.397800212236
NTL001 NTL97 2018-01-21 17:24:33 37907 497 19.845107171579 70.432584221908
NTL001 NTL97 2018-01-21 17:24:18 37912 497 19.834303010372 70.467586025077
NTL001 NTL97 2018-01-21 17:24:03 37908 497 19.823492298339 70.502580845592
NTL001 NTL97 2018-01-21 17:23:48 37901 497 19.812749766595 70.537388365232
NTL001 NTL97 2018-01-21 17:23:33 37891 497 19.801973790982 70.572276623983
NTL001 NTL97 2018-01-21 17:23:18 37887 497 19.791230337635 70.606995858989
NTL001 NTL97 2018-01-21 17:23:03 37893 497 19.780408228356 70.641950982584
NTL001 NTL97 2018-01-21 17:22:48 37894 497 19.769621698175 70.676785072091
NTL001 NTL97 2018-01-21 17:22:33 37888 497 19.758763911833 70.711822358626
NTL001 NTL97 2018-01-21 17:22:18 37881 497 19.74797477713 70.746562109504
NTL001 NTL97 2018-01-21 17:22:03 37882 497 19.737104908678 70.781556059149
NTL001 NTL97 2018-01-21 17:21:48 37889 497 19.726314230758 70.81635200836
NTL001 NTL97 2018-01-21 17:21:33 37893 497 19.715505296618 70.851087051325
NTL001 NTL97 2018-01-21 17:21:18 37889 497 19.704608924872 70.886080013532
NTL001 NTL97 2018-01-21 17:21:03 37881 497 19.693784007228 70.920847108402
NTL001 NTL97 2018-01-21 17:20:48 37879 497 19.682949370062 70.955634802935
NTL001 NTL97 2018-01-21 17:20:33 37884 497 19.672039962185 70.990637288535
NTL001 NTL97 2018-01-21 17:20:18 37891 497 19.66121016681 71.025249874799
NTL001 NTL97 2018-01-21 17:20:03 37890 497 19.650313232972 71.060151915899
NTL001 NTL97 2018-01-21 17:19:48 37883 497 19.639502168152 71.094902146851
NTL001 NTL97 2018-01-21 17:19:33 37877 497 19.62859720211 71.129636375044
NTL001 NTL97 2018-01-21 17:19:18 37880 497 19.617590289064 71.164435782085
NTL001 NTL97 2018-01-21 17:19:03 37886 495 19.606822485906 71.199214650277
NTL001 NTL97 2018-01-21 17:18:48 37890 497 19.596119740581 71.234195751021
NTL001 NTL97 2018-01-21 17:18:33 37886 495 19.585509936788 71.268900193128
NTL001 NTL97 2018-01-21 17:18:18 37878 495 19.574810864241 71.303929568594
NTL001 NTL97 2018-01-21 17:18:03 37876 495 19.564158912605 71.338710705183
NTL001 NTL97 2018-01-21 17:17:48 37882 495 19.553489042611 71.37346226251
NTL001 NTL97 2018-01-21 17:17:33 37888 495 19.542822215913 71.408254443263
NTL001 NTL97 2018-01-21 17:17:18 37887 495 19.532139181308 71.443044481348
NTL001 NTL97 2018-01-21 17:17:03 37880 495 19.521393471723 71.478011327365
NTL001 NTL97 2018-01-21 17:16:48 37874 495 19.510701339545 71.51278268186
NTL001 NTL97 2018-01-21 17:16:33 37877 495 19.500013109716 71.547562503918
NTL001 NTL97 2018-01-21 17:16:18 37884 495 19.489345853734 71.582153325137
NTL001 NTL97 2018-01-21 17:16:03 37887 495 19.478581913716 71.617089998155
NTL001 NTL97 2018-01-21 17:15:48 37882 495 19.467882975614 71.65182502329
NTL001 NTL97 2018-01-21 17:15:33 37875 495 19.457195651707 71.686434750281
NTL001 NTL97 2018-01-21 17:15:18 37875 495 19.446405692276 71.721353753937
NTL001 NTL97 2018-01-21 17:15:03 37880 495 19.435700125998 71.756035365255
NTL001 NTL97 2018-01-21 17:14:48 37887 495 19.424945893063 71.790803533292
NTL001 NTL97 2018-01-21 17:14:33 37887 495 19.414192356961 71.82549451169
NTL001 NTL97 2018-01-21 17:14:18 37880 495 19.403486542753 71.860094481937
NTL001 NTL97 2018-01-21 17:14:03 37874 495 19.392691283317 71.894920082676
NTL001 NTL97 2018-01-21 17:13:48 37876 495 19.381926260552 71.929595688661
NTL001 NTL97 2018-01-21 17:13:33 37883 495 19.371171580843 71.964288495364
NTL001 NTL97 2018-01-21 17:13:18 37887 495 19.36033131427 71.999162105183
NTL001 NTL97 2018-01-21 17:13:03 37882 495 19.349553554246 72.03382663299
NTL001 NTL97 2018-01-21 17:12:48 37875 497 19.33874383514 72.068538293015
NTL001 NTL97 2018-01-21 17:12:33 37872 497 19.327874745821 72.103407053057
NTL001 NTL97 2018-01-21 17:12:18 37878 497 19.317083159767 72.138103009704
NTL001 NTL97 2018-01-21 17:12:03 37884 497 19.306249863674 72.172882975542
NTL001 NTL97 2018-01-21 17:11:48 37882 497 19.295412533993 72.207560975175
NTL001 NTL97 2018-01-21 17:11:33 37875 497 19.284496998909 72.242475357547
NTL001 NTL97 2018-01-21 17:11:18 37872 497 19.273686261974 72.277118197951
NTL001 NTL97 2018-01-21 17:11:03 37878 497 19.262792124014 72.312011311413
NTL001 NTL97 2018-01-21 17:10:48 37885 497 19.25191164397 72.346697205979
NTL001 NTL97 2018-01-21 17:10:32 37883 497 19.241021297802 72.381439729721
NTL001 NTL97 2018-01-21 17:10:17 37877 497 19.230170041084 72.416223014156
NTL001 NTL97 2018-01-21 17:10:03 37871 497 19.21927040644 72.45089598544
NTL001 NTL97 2018-01-21 17:09:47 37873 497 19.208216241935 72.485761471952
NTL001 NTL97 2018-01-21 17:09:32 37880 497 19.197448318116 72.520393176524
NTL001 NTL97 2018-01-21 17:09:18 37883 497 19.1866745357 72.555210146331
NTL001 NTL97 2018-01-21 17:09:02 37879 497 19.175390460971 72.590078585244
NTL001 NTL97 2018-01-21 17:08:48 37873 497 19.164260450214 72.624677970987
NTL001 NTL97 2018-01-21 17:08:33 37868 497 19.154011791741 72.659568893871
NTL001 NTL97 2018-01-21 17:08:18 37876 499 19.143293055935 72.694435112959
NTL001 NTL97 2018-01-21 17:08:03 37885 499 19.130714601806 72.728748783331
NTL001 NTL97 2018-01-21 17:07:47 37889 497 19.119789898706 72.763457452758
NTL001 NTL97 2018-01-21 17:07:33 37883 499 19.112580956937 72.799303794551
NTL001 NTL97 2018-01-21 17:07:17 37892 503 19.101361711426 72.834196215886
NTL001 NTL97 2018-01-21 17:07:02 37915 505 19.083917179203 72.866360806239
NTL001 NTL97 2018-01-21 17:06:48 37904 507 19.063331472695 72.896671624986
NTL001 NTL97 2018-01-21 17:06:32 37910 509 19.039221041159 72.92407067876
NTL001 NTL97 2018-01-21 17:06:17 37903 509 19.013938340851 72.950507198863
NTL001 NTL97 2018-01-21 17:06:02 37893 509 18.988583690267 72.977024151745
NTL001 NTL97 2018-01-21 17:05:47 37879 509 18.963415089962 73.003313078934
NTL001 NTL97 2018-01-21 17:05:32 37874 509 18.938226787473 73.029612503089
NTL001 NTL97 2018-01-21 17:05:17 37882 509 18.913222655359 73.055728260886
NTL001 NTL97 2018-01-21 17:05:02 37886 509 18.887905477566 73.082147337495
NTL001 NTL97 2018-01-21 17:04:48 37881 509 18.862806736183 73.108308754783
NTL001 NTL97 2018-01-21 17:04:32 37875 509 18.837571292386 73.134626517658
NTL001 NTL97 2018-01-21 17:04:17 37874 509 18.812227697767 73.161038133866
NTL001 NTL97 2018-01-21 17:04:02 37881 509 18.786916323157 73.187383758222
NTL001 NTL97 2018-01-21 17:03:47 37888 509 18.761657279536 73.213688282321
NTL001 NTL97 2018-01-21 17:03:32 37888 509 18.736544219343 73.239845604245
NTL001 NTL97 2018-01-21 17:03:17 37881 509 18.711143976468 73.266236891472
NTL001 NTL97 2018-01-21 17:03:02 37878 509 18.685850881426 73.292534768808
NTL001 NTL97 2018-01-21 17:02:47 37882 509 18.660583001014 73.318802790467
NTL001 NTL97 2018-01-21 17:02:32 37890 509 18.635399114532 73.344968223144
NTL001 NTL97 2018-01-21 17:02:17 37894 509 18.610078208838 73.371254832037
NTL001 NTL97 2018-01-21 17:02:02 37889 509 18.584821990485 73.39744492325
NTL001 NTL97 2018-01-21 17:01:47 37883 509 18.559551947745 73.423688053381
NTL001 NTL97 2018-01-21 17:01:32 37885 509 18.534342099207 73.449847877837
NTL001 NTL97 2018-01-21 17:01:17 37892 509 18.509056197242 73.476021557848
NTL001 NTL97 2018-01-21 17:01:02 37899 509 18.48371409599 73.502293169355
NTL001 NTL97 2018-01-21 17:00:47 37898 509 18.458376716683 73.528541751428
NTL001 NTL97 2018-01-21 17:00:32 37891 509 18.433169492342 73.554608082977
NTL001 NTL97 2018-01-21 17:00:17 37889 509 18.407767824535 73.580893815843
NTL001 NTL97 2018-01-21 17:00:02 37894 509 18.382544872875 73.60698668375
NTL001 NTL97 2018-01-21 16:59:47 37903 509 18.357232746318 73.633161633221
NTL001 NTL97 2018-01-21 16:59:32 37906 509 18.331917774489 73.659322476644
NTL001 NTL97 2018-01-21 16:59:17 37902 509 18.30661365453 73.685443939682
NTL001 NTL97 2018-01-21 16:59:02 37896 509 18.281201432779 73.711683867331
NTL001 NTL97 2018-01-21 16:58:47 37897 509 18.255864283209 73.737824634657
NTL001 NTL97 2018-01-21 16:58:32 37904 509 18.230570893262 73.763925195019
NTL001 NTL97 2018-01-21 16:58:17 37912 509 18.205231694786 73.790086196973
NTL001 NTL97 2018-01-21 16:58:02 37911 509 18.179835118983 73.816250392379
NTL001 NTL97 2018-01-21 16:57:47 37905 509 18.154456542265 73.84228656944
NTL001 NTL97 2018-01-21 16:57:32 37901 509 18.129153156697 73.868418618661
NTL001 NTL97 2018-01-21 16:57:17 37907 509 18.103885678789 73.894620659937
NTL001 NTL97 2018-01-21 16:57:02 37915 509 18.07853620902 73.920496066828
NTL001 NTL97 2018-01-21 16:56:47 37920 509 18.052997355852 73.946441128659
NTL001 NTL97 2018-01-21 16:56:32 37912 509 18.027924416054 73.972796140288
NTL001 NTL97 2018-01-21 16:56:17 37908 509 18.00294782657 73.999329769918
NTL001 NTL97 2018-01-21 16:56:02 37911 509 17.978005753815 74.02583697835
NTL001 NTL97 2018-01-21 16:55:47 37918 509 17.953057662432 74.052342257969
NTL001 NTL97 2018-01-21 16:55:32 37925 509 17.928138603875 74.078743934784
NTL001 NTL97 2018-01-21 16:55:17 37922 509 17.903182670479 74.105252485219
NTL001 NTL97 2018-01-21 16:55:02 37915 509 17.878319384886 74.131620893816
NTL001 NTL97 2018-01-21 16:54:47 37914 509 17.853253660414 74.158178059302
NTL001 NTL97 2018-01-21 16:54:32 37920 511 17.828239245767 74.184682322243
NTL001 NTL97 2018-01-21 16:54:17 37928 511 17.803274357095 74.211133260287
NTL001 NTL97 2018-01-21 16:54:02 37930 511 17.778201159644 74.237683555652
NTL001 NTL97 2018-01-21 16:53:47 37924 511 17.753314433736 74.264021296959
NTL001 NTL97 2018-01-21 16:53:32 37919 511 17.728207295983 74.290565888937
NTL001 NTL97 2018-01-21 16:53:17 37922 511 17.703211539165 74.317013763739
NTL001 NTL97 2018-01-21 16:53:02 37929 511 17.678172427132 74.343475586553
NTL001 NTL97 2018-01-21 16:52:47 37936 511 17.653032161848 74.370010484617
NTL001 NTL97 2018-01-21 16:52:32 37933 511 17.628091875392 74.396367963069
NTL001 NTL97 2018-01-21 16:52:17 37926 511 17.603019441908 74.422861509029
NTL001 NTL97 2018-01-21 16:52:02 37924 511 17.57788529256 74.449356559532
NTL001 NTL97 2018-01-21 16:51:47 37930 511 17.552746117565 74.47585599224
NTL001 NTL97 2018-01-21 16:51:32 37938 511 17.527711364716 74.502258958168
NTL001 NTL97 2018-01-21 16:51:17 37940 511 17.5026509489 74.528680830759
NTL001 NTL97 2018-01-21 16:51:02 37934 513 17.477415043427 74.555259230454
NTL001 NTL97 2018-01-21 16:50:47 37929 513 17.452270144299 74.581739165933
NTL001 NTL97 2018-01-21 16:50:32 37932 513 17.42720894662 74.60812228745
NTL001 NTL97 2018-01-21 16:50:17 37939 513 17.402030602787 74.634584144063
NTL001 NTL97 2018-01-21 16:50:02 37944 513 17.376733539441 74.661189825951
NTL001 NTL97 2018-01-21 16:49:47 37941 513 17.351628906346 74.687599937236
NTL001 NTL97 2018-01-21 16:49:32 37933 513 17.326518264116 74.71396974766
NTL001 NTL97 2018-01-21 16:49:17 37922 513 17.301334222922 74.740413598184
NTL001 NTL97 2018-01-21 16:49:02 37910 513 17.276000683991 74.767035724892
NTL001 NTL97 2018-01-21 16:48:47 37903 513 17.25079347682 74.79349622933
NTL001 NTL97 2018-01-21 16:48:32 37900 513 17.225678612354 74.819827509517
NTL001 NTL97 2018-01-21 16:48:17 37906 513 17.200309520562 74.846443607949
NTL001 NTL97 2018-01-21 16:48:02 37910 513 17.175138225181 74.872815786769
NTL001 NTL97 2018-01-21 16:47:47 37908 513 17.149813801616 74.899338362564
NTL001 NTL97 2018-01-21 16:47:32 37901 513 17.124593729302 74.925766988386
NTL001 NTL97 2018-01-21 16:47:17 37896 515 17.099337102999 74.952209598803
NTL001 NTL97 2018-01-21 16:47:02 37900 515 17.073986720926 74.978745459139
NTL001 NTL97 2018-01-21 16:46:47 37907 515 17.04879866975 75.005068166706
NTL001 NTL97 2018-01-21 16:46:32 37909 515 17.02342280054 75.031603431763
NTL001 NTL97 2018-01-21 16:46:17 37901 515 16.998094260373 75.058086586533
NTL001 NTL97 2018-01-21 16:46:02 37895 515 16.972760529225 75.084561525445
NTL001 NTL97 2018-01-21 16:45:47 37897 515 16.94745482114 75.111000714469
NTL001 NTL97 2018-01-21 16:45:32 37904 515 16.922107852152 75.137422461477
NTL001 NTL97 2018-01-21 16:45:17 37908 515 16.896763038182 75.163867661477
NTL001 NTL97 2018-01-21 16:45:02 37903 515 16.871440373563 75.190378417264
NTL001 NTL97 2018-01-21 16:44:47 37895 515 16.845976543841 75.216888356453
NTL001 NTL97 2018-01-21 16:44:32 37894 515 16.820510627555 75.243259365468
NTL001 NTL97 2018-01-21 16:44:17 37899 515 16.795295018338 75.269690319115
NTL001 NTL97 2018-01-21 16:44:02 37907 515 16.769962906603 75.296326682275
NTL001 NTL97 2018-01-21 16:43:47 37918 517 16.744375440284 75.322558914047
NTL001 NTL97 2018-01-21 16:43:32 37929 517 16.718792636498 75.348788094201
NTL001 NTL97 2018-01-21 16:43:17 37941 517 16.693704028723 75.375874473024
NTL001 NTL97 2018-01-21 16:43:02 37944 517 16.668499760016 75.402549593998
NTL001 NTL97 2018-01-21 16:42:47 37948 519 16.641934689321 75.427929068902
NTL001 NTL97 2018-01-21 16:42:32 37935 517 16.616190565763 75.454454124336
NTL001 NTL97 2018-01-21 16:42:17 37941 517 16.593673147833 75.483365473395
NTL001 NTL97 2018-01-21 16:42:02 37947 517 16.57156557723 75.513182783599
NTL001 NTL97 2018-01-21 16:41:47 37950 517 16.549629144024 75.54274949961
NTL001 NTL97 2018-01-21 16:41:32 37945 517 16.52759433232 75.572394779756
NTL001 NTL97 2018-01-21 16:41:17 37938 517 16.505568581889 75.602054202835
NTL001 NTL97 2018-01-21 16:41:02 37937 517 16.483562751476 75.631689716171
NTL001 NTL97 2018-01-21 16:40:47 37943 519 16.46136433774 75.66152131786
NTL001 NTL97 2018-01-21 16:40:32 37949 519 16.439304878879 75.691180642315
NTL001 NTL97 2018-01-21 16:40:17 37947 519 16.417280618696 75.720788873277
NTL001 NTL97 2018-01-21 16:40:02 37940 519 16.395094139269 75.750579066127
NTL001 NTL97 2018-01-21 16:39:47 37936 519 16.373048746639 75.780168791661
NTL001 NTL97 2018-01-21 16:39:32 37940 519 16.350878281824 75.8099408952
NTL001 NTL97 2018-01-21 16:39:17 37947 519 16.328754888891 75.839636910144
NTL001 NTL97 2018-01-21 16:39:02 37948 519 16.306639636126 75.869264787245
NTL001 NTL97 2018-01-21 16:38:47 37942 519 16.28444449874 75.899003681579
NTL001 NTL97 2018-01-21 16:38:32 37935 519 16.262330437995 75.928671255158
NTL001 NTL97 2018-01-21 16:38:17 37937 519 16.240059527648 75.958485939672
NTL001 NTL97 2018-01-21 16:38:02 37945 519 16.217955041785 75.988072426912
NTL001 NTL97 2018-01-21 16:37:47 37948 519 16.195687721272 76.017880182691
NTL001 NTL97 2018-01-21 16:37:32 37944 519 16.173523532481 76.047540151534
NTL001 NTL97 2018-01-21 16:37:17 37936 519 16.151365171022 76.077154266961
NTL001 NTL97 2018-01-21 16:37:02 37935 519 16.1292053268 76.106768744065
NTL001 NTL97 2018-01-21 16:36:47 37941 519 16.107023033081 76.136431839251
NTL001 NTL97 2018-01-21 16:36:32 37947 519 16.084767161424 76.166158845447
NTL001 NTL97 2018-01-21 16:36:17 37945 519 16.062552711376 76.195802523463
NTL001 NTL97 2018-01-21 16:36:02 37938 519 16.040411293941 76.22533619261
NTL001 NTL97 2018-01-21 16:35:47 37927 519 16.018093763198 76.255111643023
NTL001 NTL97 2018-01-21 16:35:32 37923 519 15.995922846066 76.284695451702
NTL001 NTL97 2018-01-21 16:35:17 37929 519 15.973753564032 76.314259588593
NTL001 NTL97 2018-01-21 16:35:02 37936 519 15.951442786637 76.343942547341
NTL001 NTL97 2018-01-21 16:34:47 37931 519 15.929251895189 76.373502159918
NTL001 NTL97 2018-01-21 16:34:32 37923 519 15.90701049465 76.403130581874
NTL001 NTL97 2018-01-21 16:34:17 37920 519 15.884799823691 76.43269350677
NTL001 NTL97 2018-01-21 16:34:02 37926 519 15.862539107142 76.462279638095
NTL001 NTL97 2018-01-21 16:33:47 37933 519 15.840136736691 76.492047420459
NTL001 NTL97 2018-01-21 16:33:32 37931 519 15.817964608977 76.521542860605
NTL001 NTL97 2018-01-21 16:33:16 37924 519 15.795745326837 76.551067931825
NTL001 NTL97 2018-01-21 16:33:02 37918 519 15.773446646329 76.580680254742
NTL001 NTL97 2018-01-21 16:32:47 37921 519 15.7510616915 76.610395639013
NTL001 NTL97 2018-01-21 16:32:31 37929 519 15.728796696126 76.63993213708
NTL001 NTL97 2018-01-21 16:32:16 37931 520 15.706547556856 76.669452755786
NTL001 NTL97 2018-01-21 16:32:01 37925 520 15.684312082349 76.698943769443
NTL001 NTL97 2018-01-21 16:31:46 37917 520 15.661898180976 76.728651164106
NTL001 NTL97 2018-01-21 16:31:31 37917 520 15.639572940318 76.758228282413
NTL001 NTL97 2018-01-21 16:31:16 37924 520 15.61727459498 76.787744738539
NTL001 NTL97 2018-01-21 16:31:01 37934 520 15.594981967992 76.817287868776
NTL001 NTL97 2018-01-21 16:30:46 37940 520 15.572549975572 76.846967887999
NTL001 NTL97 2018-01-21 16:30:31 37940 520 15.550207993546 76.87647785438
NTL001 NTL97 2018-01-21 16:30:16 37947 520 15.527877082838 76.906065781119
NTL001 NTL97 2018-01-21 16:30:01 37950 520 15.505574534374 76.935596592467
NTL001 NTL97 2018-01-21 16:29:46 37947 520 15.483051664653 76.965282379179
NTL001 NTL97 2018-01-21 16:29:31 37939 520 15.46074564529 76.994699029889
NTL001 NTL97 2018-01-21 16:29:16 37935 520 15.438346121146 77.024435041017
NTL001 NTL97 2018-01-21 16:29:01 37938 520 15.416046780849 77.053883871449
NTL001 NTL97 2018-01-21 16:28:46 37945 522 15.39346210684 77.083349776987
NTL001 NTL97 2018-01-21 16:28:31 37944 522 15.370745432321 77.112927491441
NTL001 NTL97 2018-01-21 16:28:16 37937 522 15.348165903025 77.142304657814
NTL001 NTL97 2018-01-21 16:28:01 37929 522 15.325509714568 77.17176577749
NTL001 NTL97 2018-01-21 16:27:46 37930 522 15.302864995551 77.201203622607
NTL001 NTL97 2018-01-21 16:27:31 37936 522 15.280304377642 77.230509634502
NTL001 NTL97 2018-01-21 16:27:16 37939 522 15.257571789315 77.260042081525
NTL001 NTL97 2018-01-21 16:27:01 37935 522 15.23491243522 77.289464412448
NTL001 NTL97 2018-01-21 16:26:47 37927 522 15.212275330801 77.318853112604
NTL001 NTL97 2018-01-21 16:26:31 37922 522 15.189535660965 77.348344096013
NTL001 NTL97 2018-01-21 16:26:16 37926 522 15.166857431962 77.377737980278
NTL001 NTL97 2018-01-21 16:26:01 37932 522 15.144181766953 77.407159134593
NTL001 NTL97 2018-01-21 16:25:46 37930 522 15.121435406951 77.436640949786
NTL001 NTL97 2018-01-21 16:25:31 37923 522 15.098727718888 77.466040451407
NTL001 NTL97 2018-01-21 16:25:16 37917 522 15.076047891782 77.495379781963
NTL001 NTL97 2018-01-21 16:25:01 37919 522 15.053310095013 77.524847920114
NTL001 NTL97 2018-01-21 16:24:46 37921 522 15.03061514409 77.554211186111
NTL001 NTL97 2018-01-21 16:24:31 37922 522 15.007875346799 77.583628500485
NTL001 NTL97 2018-01-21 16:24:16 37918 522 14.985142969556 77.613010169438
NTL001 NTL97 2018-01-21 16:24:01 37917 522 14.962319677798 77.642509479625
NTL001 NTL97 2018-01-21 16:23:46 37924 522 14.939587253007 77.67190162519
NTL001 NTL97 2018-01-21 16:23:31 37930 522 14.916806758728 77.701325008039
NTL001 NTL97 2018-01-21 16:23:16 37936 522 14.894051047524 77.730688081523
NTL001 NTL97 2018-01-21 16:23:01 37936 524 14.871297885577 77.760065454191
NTL001 NTL97 2018-01-21 16:22:46 37929 524 14.848418785582 77.789571983096
NTL001 NTL97 2018-01-21 16:22:31 37921 524 14.825726976012 77.818844825688
NTL001 NTL97 2018-01-21 16:22:16 37918 524 14.802882880289 77.848303250905
NTL001 NTL97 2018-01-21 16:22:01 37923 524 14.779915519094 77.877878444874
NTL001 NTL97 2018-01-21 16:21:46 37927 524 14.757040916959 77.907322488775
NTL001 NTL97 2018-01-21 16:21:31 37924 524 14.734264783287 77.936669740968
NTL001 NTL97 2018-01-21 16:21:16 37916 524 14.711352979968 77.966193740636
NTL001 NTL97 2018-01-21 16:21:01 37909 526 14.688467289838 77.995623867513
NTL001 NTL97 2018-01-21 16:20:46 37911 526 14.665511194031 78.025106298181
NTL001 NTL97 2018-01-21 16:20:31 37915 526 14.642582813005 78.054617439044
NTL001 NTL97 2018-01-21 16:20:16 37916 526 14.619657839927 78.084134679956
NTL001 NTL97 2018-01-21 16:20:01 37909 526 14.596626261325 78.113704578418
NTL001 NTL97 2018-01-21 16:19:46 37901 526 14.573743857352 78.143015630982
NTL001 NTL97 2018-01-21 16:19:31 37896 526 14.550598659674 78.172736330383
NTL001 NTL97 2018-01-21 16:19:16 37900 526 14.527779123482 78.202071477724
NTL001 NTL97 2018-01-21 16:19:01 37905 526 14.50481703571 78.231514104181
NTL001 NTL97 2018-01-21 16:18:46 37903 526 14.481839970064 78.260976252528
NTL001 NTL97 2018-01-21 16:18:31 37896 526 14.458899753306 78.290405397323
NTL001 NTL97 2018-01-21 16:18:16 37889 526 14.435948314231 78.319836423055
NTL001 NTL97 2018-01-21 16:18:01 37889 526 14.412930866404 78.349282809949
NTL001 NTL97 2018-01-21 16:17:46 37896 526 14.389794278099 78.378907428324
NTL001 NTL97 2018-01-21 16:17:31 37899 526 14.366879301625 78.408256584617
NTL001 NTL97 2018-01-21 16:17:16 37894 526 14.343879042311 78.437686618588
NTL001 NTL97 2018-01-21 16:17:01 37886 526 14.320639270088 78.467397763856
NTL001 NTL97 2018-01-21 16:16:46 37884 526 14.297885639892 78.496510941781
NTL001 NTL97 2018-01-21 16:16:31 37890 526 14.274858945035 78.525945873328
NTL001 NTL97 2018-01-21 16:16:16 37897 526 14.251858777936 78.555334102227
NTL001 NTL97 2018-01-21 16:16:01 37894 526 14.228756936744 78.584828937504
NTL001 NTL97 2018-01-21 16:15:46 37887 526 14.205730397046 78.614236378898
NTL001 NTL97 2018-01-21 16:15:31 37884 526 14.182648978504 78.643710618141
NTL001 NTL97 2018-01-21 16:15:16 37889 526 14.159788310674 78.672880090542
NTL001 NTL97 2018-01-21 16:15:01 37897 526 14.136624890682 78.70241175563
NTL001 NTL97 2018-01-21 16:14:46 37900 526 14.113654252254 78.73170099449
NTL001 NTL97 2018-01-21 16:14:31 37897 528 14.090590295137 78.761082929341
NTL001 NTL97 2018-01-21 16:14:16 37894 528 14.067548135449 78.790457405667
NTL001 NTL97 2018-01-21 16:14:01 37896 528 14.044328695188 78.820025615914
NTL001 NTL97 2018-01-21 16:13:46 37901 528 14.021326112619 78.849303625823
NTL001 NTL97 2018-01-21 16:13:31 37909 528 13.998180377338 78.878765913797
NTL001 NTL97 2018-01-21 16:13:16 37912 528 13.975071751343 78.908171346191
NTL001 NTL97 2018-01-21 16:13:01 37909 528 13.951922276549 78.937616342356
NTL001 NTL97 2018-01-21 16:12:46 37909 528 13.928762234978 78.967056166728
NTL001 NTL97 2018-01-21 16:12:31 37913 528 13.905646007679 78.996444080803
NTL001 NTL97 2018-01-21 16:12:16 37921 528 13.882417535918 79.025959040353
NTL001 NTL97 2018-01-21 16:12:01 37929 528 13.859278756092 79.055329892423
NTL001 NTL97 2018-01-21 16:11:46 37929 528 13.836197577184 79.08463088489
NTL001 NTL97 2018-01-21 16:11:31 37923 528 13.813010553448 79.11407197656
NTL001 NTL97 2018-01-21 16:11:16 37922 528 13.789868076476 79.143428853249
NTL001 NTL97 2018-01-21 16:11:01 37927 528 13.766690397885 79.172817798499
NTL001 NTL97 2018-01-21 16:10:47 37935 528 13.743554204502 79.202169866786
NTL001 NTL97 2018-01-21 16:10:31 37940 528 13.720405334523 79.231520446121
NTL001 NTL97 2018-01-21 16:10:16 37935 528 13.697145629815 79.260971795434
NTL001 NTL97 2018-01-21 16:10:01 37929 528 13.674023214323 79.290236344212
NTL001 NTL97 2018-01-21 16:09:46 37928 528 13.650771286908 79.319709357794
NTL001 NTL97 2018-01-21 16:09:31 37935 528 13.627534531176 79.349114213636
NTL001 NTL97 2018-01-21 16:09:16 37942 528 13.604325037262 79.378455128055
NTL001 NTL97 2018-01-21 16:09:01 37940 528 13.580971247078 79.407985462983
NTL001 NTL97 2018-01-21 16:08:46 37932 528 13.557820216749 79.437262124992
NTL001 NTL97 2018-01-21 16:08:31 37928 528 13.534662009575 79.466547602874
NTL001 NTL97 2018-01-21 16:08:16 37933 528 13.511353972352 79.495990750673
NTL001 NTL97 2018-01-21 16:08:01 37940 528 13.48814541623 79.525302811876
NTL001 NTL97 2018-01-21 16:07:46 37943 528 13.464883286726 79.55468033493
NTL001 NTL97 2018-01-21 16:07:31 37937 528 13.44169630779 79.583957825277
NTL001 NTL97 2018-01-21 16:07:16 37931 528 13.418447333787 79.613276542295
NTL001 NTL97 2018-01-21 16:07:01 37932 528 13.395201684637 79.642591675443
NTL001 NTL97 2018-01-21 16:06:46 37939 528 13.371918842609 79.671960681618
NTL001 NTL97 2018-01-21 16:06:31 37944 528 13.34871182391 79.701210706886
NTL001 NTL97 2018-01-21 16:06:16 37941 528 13.325390717677 79.730589053991
NTL001 NTL97 2018-01-21 16:06:01 37934 528 13.30218373204 79.759836883859
NTL001 NTL97 2018-01-21 16:05:46 37923 528 13.278914128893 79.789125925961
NTL001 NTL97 2018-01-21 16:05:31 37920 528 13.255641256616 79.818385480849
NTL001 NTL97 2018-01-21 16:05:16 37927 528 13.232511709333 79.84748191497
NTL001 NTL97 2018-01-21 16:05:01 37935 528 13.209275701482 79.876766202277
NTL001 NTL97 2018-01-21 16:04:46 37937 528 13.185989129121 79.906097358021
NTL001 NTL97 2018-01-21 16:04:31 37930 528 13.162775725368 79.935208796852
NTL001 NTL97 2018-01-21 16:04:16 37926 528 13.139420215786 79.964454039327
NTL001 NTL97 2018-01-21 16:04:01 37930 528 13.116246783809 79.993700259806
NTL001 NTL97 2018-01-21 16:03:46 37938 528 13.093062316973 80.023005376358
NTL001 NTL97 2018-01-21 16:03:31 37941 528 13.069640317417 80.052089100292
NTL001 NTL97 2018-01-21 16:03:16 37937 528 13.046111861941 80.081313757519
NTL001 NTL97 2018-01-21 16:03:01 37933 528 13.023248424569 80.110769549639
NTL001 NTL97 2018-01-21 16:02:46 37930 528 13.000210156133 80.139997232049
NTL001 NTL97 2018-01-21 16:02:31 37933 528 12.976134174311 80.168438951586
NTL001 NTL97 2018-01-21 16:02:16 37941 528 12.951822248148 80.19673567894
NTL001 NTL97 2018-01-21 16:02:01 37941 528 12.927450939639 80.225074104201
NTL001 NTL97 2018-01-21 16:01:46 37935 528 12.903209967628 80.253250943736
NTL001 NTL97 2018-01-21 16:01:31 37928 528 12.878891529267 80.281533837749
NTL001 NTL97 2018-01-21 16:01:16 37930 528 12.854523731949 80.309857842684
NTL001 NTL97 2018-01-21 16:01:01 37937 528 12.830183468625 80.338105165399
NTL001 NTL97 2018-01-21 16:00:46 37942 528 12.805987768088 80.366200770857
NTL001 NTL97 2018-01-21 16:00:31 37936 526 12.781623691547 80.394506373386
NTL001 NTL97 2018-01-21 16:00:16 37928 526 12.757272205459 80.422759395058
NTL001 NTL97 2018-01-21 16:00:01 37927 526 12.733058061209 80.450817498322
NTL001 NTL97 2018-01-21 15:59:46 37934 526 12.708819215135 80.478955254966
NTL001 NTL97 2018-01-21 15:59:31 37940 526 12.684418323188 80.50726611588
NTL001 NTL97 2018-01-21 15:59:16 37937 526 12.660124707087 80.535391600765
NTL001 NTL97 2018-01-21 15:59:00 37930 526 12.635879239164 80.563463526417
NTL001 NTL97 2018-01-21 15:58:46 37925 526 12.611513358871 80.591703141948
NTL001 NTL97 2018-01-21 15:58:31 37929 526 12.587287141079 80.619770207884
NTL001 NTL97 2018-01-21 15:58:15 37936 526 12.562978596657 80.647910445061
NTL001 NTL97 2018-01-21 15:58:00 37937 526 12.53855891626 80.676153094318
NTL001 NTL97 2018-01-21 15:57:45 37931 526 12.514268785163 80.704258339789
NTL001 NTL97 2018-01-21 15:57:30 37923 526 12.489995933146 80.732331023547
NTL001 NTL97 2018-01-21 15:57:15 37924 526 12.465588199837 80.760553314813
NTL001 NTL97 2018-01-21 15:57:00 37931 526 12.441288772501 80.788636420668
NTL001 NTL97 2018-01-21 15:56:45 37936 526 12.417053974875 80.816635131135
NTL001 NTL97 2018-01-21 15:56:30 37933 526 12.392649841012 80.844822947652
NTL001 NTL97 2018-01-21 15:56:15 37926 526 12.368302897235 80.872935172645
NTL001 NTL97 2018-01-21 15:56:00 37921 528 12.344003613778 80.900983650433
NTL001 NTL97 2018-01-21 15:55:45 37926 528 12.319597071219 80.929168792575
NTL001 NTL97 2018-01-21 15:55:30 37932 528 12.29522003233 80.957278344721
NTL001 NTL97 2018-01-21 15:55:15 37933 528 12.270891620179 80.98532263231
NTL001 NTL97 2018-01-21 15:55:00 37927 528 12.246405534971 81.013571075424
NTL001 NTL97 2018-01-21 15:54:45 37920 528 12.222079976369 81.041605516355
NTL001 NTL97 2018-01-21 15:54:30 37921 528 12.197550520013 81.069847792921
NTL001 NTL97 2018-01-21 15:54:15 37928 528 12.173240074769 81.097855687575
NTL001 NTL97 2018-01-21 15:54:00 37932 528 12.14874573027 81.126079362615
NTL001 NTL97 2018-01-21 15:53:45 37927 528 12.124436973411 81.154065525859
NTL001 NTL97 2018-01-21 15:53:30 37920 528 12.099911022467 81.182279609817
NTL001 NTL97 2018-01-21 15:53:15 37916 528 12.075564165039 81.210286284758
NTL001 NTL97 2018-01-21 15:53:00 37921 528 12.051202315737 81.238357458279
NTL001 NTL97 2018-01-21 15:52:46 37930 526 12.026836919203 81.266323506132
NTL001 NTL97 2018-01-21 15:52:30 37928 526 12.002352250434 81.29442454474
NTL001 NTL97 2018-01-21 15:52:15 37922 526 11.978053739457 81.322402735032
NTL001 NTL97 2018-01-21 15:52:00 37915 526 11.953776416003 81.35031932772
NTL001 NTL97 2018-01-21 15:51:45 37917 526 11.929444925865 81.378225562173
NTL001 NTL97 2018-01-21 15:51:30 37924 526 11.905007937128 81.406294093721
NTL001 NTL97 2018-01-21 15:51:15 37928 526 11.880591130099 81.434350327493
NTL001 NTL97 2018-01-21 15:51:00 37923 526 11.856205979473 81.462297602721
NTL001 NTL97 2018-01-21 15:50:45 37915 526 11.831820974961 81.490254280447
NTL001 NTL97 2018-01-21 15:50:30 37913 528 11.807486997935 81.518198910733
NTL001 NTL97 2018-01-21 15:50:15 37920 528 11.783066516407 81.546209536353
NTL001 NTL97 2018-01-21 15:50:00 37926 528 11.758657084643 81.574145445343
NTL001 NTL97 2018-01-21 15:49:45 37925 528 11.734173801225 81.602189141857
NTL001 NTL97 2018-01-21 15:49:30 37918 528 11.709792576006 81.63015337186
NTL001 NTL97 2018-01-21 15:49:15 37911 526 11.685369042439 81.658107598204
NTL001 NTL97 2018-01-21 15:49:00 37914 526 11.660841266542 81.686170049332
NTL001 NTL97 2018-01-21 15:48:45 37922 526 11.636446144033 81.714111757531
NTL001 NTL97 2018-01-21 15:48:30 37925 526 11.612101329075 81.741968469898
NTL001 NTL97 2018-01-21 15:48:15 37920 526 11.587716730023 81.769871096841
NTL001 NTL97 2018-01-21 15:48:00 37912 526 11.563214833718 81.797864662448
NTL001 NTL97 2018-01-21 15:47:45 37910 526 11.53885489145 81.82570249148
NTL001 NTL97 2018-01-21 15:47:30 37916 526 11.514548847486 81.853512459939
NTL001 NTL97 2018-01-21 15:47:15 37923 526 11.490140297365 81.881388106342
NTL001 NTL97 2018-01-21 15:47:00 37921 526 11.465615508149 81.909399503226
NTL001 NTL97 2018-01-21 15:46:45 37914 526 11.441229209665 81.93725633868
NTL001 NTL97 2018-01-21 15:46:30 37908 526 11.416798384519 81.965134145058
NTL001 NTL97 2018-01-21 15:46:15 37913 526 11.392465845897 81.992903943578
NTL001 NTL97 2018-01-21 15:46:00 37921 526 11.368097589142 82.020713063941
NTL001 NTL97 2018-01-21 15:45:45 37921 526 11.343625669269 82.048633566344
NTL001 NTL97 2018-01-21 15:45:30 37914 526 11.31932542632 82.076333521989
NTL001 NTL97 2018-01-21 15:45:15 37908 526 11.294941530776 82.104138488762
NTL001 NTL97 2018-01-21 15:45:00 37910 526 11.270579294779 82.131900377419
NTL001 NTL97 2018-01-21 15:44:45 37917 526 11.246127574912 82.159742773605
NTL001 NTL97 2018-01-21 15:44:30 37921 524 11.221658730264 82.187632196236
NTL001 NTL97 2018-01-21 15:44:15 37916 524 11.197298541191 82.215389390597
NTL001 NTL97 2018-01-21 15:44:00 37908 524 11.172998845318 82.243030766596
NTL001 NTL97 2018-01-21 15:43:45 37908 524 11.148693137279 82.270707535754
NTL001 NTL97 2018-01-21 15:43:30 37915 524 11.124357947355 82.298379406169
NTL001 NTL97 2018-01-21 15:43:15 37921 524 11.099840611054 82.326247286357
NTL001 NTL97 2018-01-21 15:43:00 37916 524 11.075562017051 82.353874467045
NTL001 NTL97 2018-01-21 15:42:45 37909 524 11.051169582609 82.381611332335
NTL001 NTL97 2018-01-21 15:42:30 37906 524 11.026901560223 82.409217452411
NTL001 NTL97 2018-01-21 15:42:15 37912 524 11.002455013011 82.436974174083
NTL001 NTL97 2018-01-21 15:42:00 37919 524 10.978028387366 82.464715413235
NTL001 NTL97 2018-01-21 15:41:45 37918 524 10.953726829167 82.492330351136
NTL001 NTL97 2018-01-21 15:41:30 37911 524 10.929425391274 82.519925152658
NTL001 NTL97 2018-01-21 15:41:15 37905 524 10.905124760298 82.547490829706
NTL001 NTL97 2018-01-21 15:41:00 37908 524 10.880758830746 82.57511764141
NTL001 NTL97 2018-01-21 15:40:45 37915 524 10.856336914342 82.602860303736
NTL001 NTL97 2018-01-21 15:40:30 37917 524 10.832015268337 82.630453778844
NTL001 NTL97 2018-01-21 15:40:15 37913 524 10.807689117886 82.658003368799
NTL001 NTL97 2018-01-21 15:40:00 37907 524 10.783364934237 82.685564147505
NTL001 NTL97 2018-01-21 15:39:45 37900 524 10.758916428008 82.7133278708
NTL001 NTL97 2018-01-21 15:39:30 37901 524 10.734585393447 82.740907812544
NTL001 NTL97 2018-01-21 15:39:15 37908 524 10.710234810139 82.768407750149
NTL001 NTL97 2018-01-21 15:39:00 37911 524 10.685750754899 82.796117411258
NTL001 NTL97 2018-01-21 15:38:45 37907 524 10.661474197902 82.823752634996
NTL001 NTL97 2018-01-21 15:38:30 37899 524 10.637054574889 82.851335816871
NTL001 NTL97 2018-01-21 15:38:15 37898 524 10.612588930142 82.878760871531
NTL001 NTL97 2018-01-21 15:38:00 37904 524 10.588067679187 82.906247181399
NTL001 NTL97 2018-01-21 15:37:45 37910 524 10.56360484382 82.933636958039
NTL001 NTL97 2018-01-21 15:37:30 37907 524 10.538946776987 82.961241145018
NTL001 NTL97 2018-01-21 15:37:15 37900 524 10.514450656061 82.988658777927
NTL001 NTL97 2018-01-21 15:37:00 37894 524 10.48995724802 83.016081863763
NTL001 NTL97 2018-01-21 15:36:45 37899 524 10.465334916813 83.043654444521
NTL001 NTL97 2018-01-21 15:36:30 37906 524 10.440792818044 83.071078032431
NTL001 NTL97 2018-01-21 15:36:15 37907 526 10.4161281305 83.098657382935
NTL001 NTL97 2018-01-21 15:36:00 37901 526 10.391538385535 83.126179558627
NTL001 NTL97 2018-01-21 15:35:45 37892 526 10.366839437587 83.15378573462
NTL001 NTL97 2018-01-21 15:35:30 37882 526 10.34228721635 83.181183453351
NTL001 NTL97 2018-01-21 15:35:15 37883 526 10.317653783395 83.208713371623
NTL001 NTL97 2018-01-21 15:35:00 37888 526 10.293019989449 83.236275024823
NTL001 NTL97 2018-01-21 15:34:45 37894 526 10.268385916907 83.263761165276
NTL001 NTL97 2018-01-21 15:34:30 37892 526 10.243608703078 83.291373992123
NTL001 NTL97 2018-01-21 15:34:15 37884 526 10.219079707622 83.318788515058
NTL001 NTL97 2018-01-21 15:34:00 37879 526 10.194302960772 83.346440854622
NTL001 NTL97 2018-01-21 15:33:45 37884 526 10.169671387801 83.373932776929
NTL001 NTL97 2018-01-21 15:33:30 37890 526 10.145040357617 83.401390029626
NTL001 NTL97 2018-01-21 15:33:15 37891 526 10.120259020587 83.428978590815
NTL001 NTL97 2018-01-21 15:33:00 37887 526 10.095645605011 83.456448233411
NTL001 NTL97 2018-01-21 15:32:45 37878 526 10.070998427839 83.483944576531
NTL001 NTL97 2018-01-21 15:32:30 37878 526 10.046262341244 83.511483938348
NTL001 NTL97 2018-01-21 15:32:15 37886 526 10.021516470256 83.539047841316
NTL001 NTL97 2018-01-21 15:32:00 37891 526 9.9968497944757 83.566504840773
NTL001 NTL97 2018-01-21 15:31:45 37888 526 9.9720708333317 83.594115278069
NTL001 NTL97 2018-01-21 15:31:30 37880 528 9.9474051931175 83.621571614784
NTL001 NTL97 2018-01-21 15:31:15 37877 528 9.9225932248119 83.649176358608
NTL001 NTL97 2018-01-21 15:31:00 37879 528 9.8979056757032 83.67663866571
NTL001 NTL97 2018-01-21 15:30:45 37886 528 9.8732160642114 83.704104082415
NTL001 NTL97 2018-01-21 15:30:30 37888 528 9.8484543543253 83.731652829288
NTL001 NTL97 2018-01-21 15:30:15 37884 528 9.8235703149983 83.75930396803
NTL001 NTL97 2018-01-21 15:30:00 37877 528 9.7989163636509 83.786685439706
NTL001 NTL97 2018-01-21 15:29:45 37875 528 9.7740904845747 83.814297192866
NTL001 NTL97 2018-01-21 15:29:30 37881 528 9.7492958122223 83.841825213496
NTL001 NTL97 2018-01-21 15:29:15 37886 528 9.7245679237379 83.869299674708
NTL001 NTL97 2018-01-21 15:29:00 37885 528 9.6998523548931 83.896768694625
NTL001 NTL97 2018-01-21 15:28:45 37877 528 9.6751362763571 83.924192519119
NTL001 NTL97 2018-01-21 15:28:30 37873 528 9.6503325849202 83.951707977406
NTL001 NTL97 2018-01-21 15:28:15 37878 528 9.6255708731362 83.979205393928
NTL001 NTL97 2018-01-21 15:28:00 37886 528 9.6006768096304 84.006824791553
NTL001 NTL97 2018-01-21 15:27:45 37885 528 9.5759820789664 84.034211752423
NTL001 NTL97 2018-01-21 15:27:30 37878 528 9.5511578143234 84.061719664695
NTL001 NTL97 2018-01-21 15:27:15 37872 528 9.5262554492088 84.089327437474
NTL001 NTL97 2018-01-21 15:27:00 37875 528 9.5015240561234 84.116751618428
NTL001 NTL97 2018-01-21 15:26:45 37883 528 9.4767811198744 84.144196036408
NTL001 NTL97 2018-01-21 15:26:30 37885 528 9.4518534814039 84.171769594978
NTL001 NTL97 2018-01-21 15:26:15 37880 528 9.4270436433289 84.19921671433
NTL001 NTL97 2018-01-21 15:26:00 37872 528 9.4022327046765 84.226716136736
NTL001 NTL97 2018-01-21 15:25:45 37872 528 9.3773520316498 84.254279678462
NTL001 NTL97 2018-01-21 15:25:30 37880 528 9.3526006984564 84.28170364296
NTL001 NTL97 2018-01-21 15:25:15 37885 528 9.3277835461145 84.309140877859
NTL001 NTL97 2018-01-21 15:25:00 37881 528 9.3029262366446 84.336614083124
NTL001 NTL97 2018-01-21 15:24:45 37873 528 9.2780898868025 84.364120264034
NTL001 NTL97 2018-01-21 15:24:30 37871 528 9.2532509914933 84.391618757485
NTL001 NTL97 2018-01-21 15:24:15 37876 528 9.2284721016016 84.418984275541
NTL001 NTL97 2018-01-21 15:23:59 37883 528 9.2036210776373 84.446437564255
NTL001 NTL97 2018-01-21 15:23:44 37883 528 9.1787971168582 84.47384286143
NTL001 NTL97 2018-01-21 15:23:29 37876 528 9.1538599055846 84.501448849949
NTL001 NTL97 2018-01-21 15:23:14 37870 528 9.1291011705006 84.528849502385
NTL001 NTL97 2018-01-21 15:22:59 37873 528 9.1041981655235 84.556209818872
NTL001 NTL97 2018-01-21 15:22:45 37880 528 9.0793751609759 84.583573508652
NTL001 NTL97 2018-01-21 15:22:29 37883 528 9.0546218235232 84.611209225706
NTL001 NTL97 2018-01-21 15:22:14 37877 528 9.0297540337282 84.638576694072
NTL001 NTL97 2018-01-21 15:21:59 37871 528 9.004609842831 84.66575335077
NTL001 NTL97 2018-01-21 15:21:44 37869 528 8.9797915256353 84.693481084921
NTL001 NTL97 2018-01-21 15:21:29 37875 528 8.9555658368585 84.721183571364
NTL001 NTL97 2018-01-21 15:21:14 37880 530 8.9300654325831 84.748250239941
NTL001 NTL97 2018-01-21 15:20:59 37883 530 8.9043182257749 84.774969496909
NTL001 NTL97 2018-01-21 15:20:44 37878 530 8.8806735121323 84.803873488964
NTL001 NTL97 2018-01-21 15:20:29 37871 530 8.8584302494595 84.833467434415
NTL001 NTL97 2018-01-21 15:20:14 37867 530 8.8361172045655 84.863153921345
NTL001 NTL97 2018-01-21 15:20:00 37870 530 8.8137229280104 84.893031149369
NTL001 NTL97 2018-01-21 15:19:45 37878 530 8.7914703594634 84.922656130687
NTL001 NTL97 2018-01-21 15:19:30 37881 530 8.7690738419711 84.952470697389
NTL001 NTL97 2018-01-21 15:19:14 37875 530 8.7468669532408 84.982024991964
NTL001 NTL97 2018-01-21 15:18:59 37867 530 8.724503986496 85.011780026226
NTL001 NTL97 2018-01-21 15:18:44 37868 530 8.7021239211511 85.041529010384
NTL001 NTL97 2018-01-21 15:18:29 37875 530 8.6797568171565 85.071280389184
NTL001 NTL97 2018-01-21 15:18:14 37881 530 8.6573167960799 85.101114580323
NTL001 NTL97 2018-01-21 15:17:59 37877 530 8.6350024436332 85.130776602912
NTL001 NTL97 2018-01-21 15:17:44 37869 530 8.6126875802261 85.160442419135
NTL001 NTL97 2018-01-21 15:17:29 37867 530 8.5903389757336 85.19013408696
NTL001 NTL97 2018-01-21 15:17:14 37872 530 8.567847193508 85.220004700676
NTL001 NTL97 2018-01-21 15:16:59 37879 532 8.5454699523725 85.24974755852
NTL001 NTL97 2018-01-21 15:16:44 37879 532 8.523148127562 85.279377377567
NTL001 NTL97 2018-01-21 15:16:29 37873 532 8.5007336406675 85.309083378471
NTL001 NTL97 2018-01-21 15:16:14 37867 532 8.4782164597331 85.339007418332
NTL001 NTL97 2018-01-21 15:15:59 37868 532 8.4559277820954 85.368676393125
NTL001 NTL97 2018-01-21 15:15:44 37878 532 8.4333460432924 85.398558033945
NTL001 NTL97 2018-01-21 15:15:29 37881 532 8.4109153996903 85.428297808914
NTL001 NTL97 2018-01-21 15:15:14 37876 532 8.3885646980951 85.457945717326
NTL001 NTL97 2018-01-21 15:14:59 37869 532 8.3660245676488 85.487819639136
NTL001 NTL97 2018-01-21 15:14:44 37867 532 8.3436960685308 85.517422261427
NTL001 NTL97 2018-01-21 15:14:29 37873 532 8.3211171621863 85.547360525382
NTL001 NTL97 2018-01-21 15:14:14 37870 532 8.2986399109541 85.57714226432
NTL001 NTL97 2018-01-21 15:13:59 37863 532 8.276256081946 85.606774337472
NTL001 NTL97 2018-01-21 15:13:44 37859 532 8.2536602914899 85.636694715188
NTL001 NTL97 2018-01-21 15:13:29 37863 532 8.23122806116 85.666390756214
NTL001 NTL97 2018-01-21 15:13:14 37870 534 8.2086764376305 85.696263002912
NTL001 NTL97 2018-01-21 15:12:59 37872 534 8.1861231022933 85.726115586954
NTL001 NTL97 2018-01-21 15:12:44 37866 534 8.1636343999418 85.755867499915
NTL001 NTL97 2018-01-21 15:12:29 37857 534 8.1411477285367 85.78561355292
NTL001 NTL97 2018-01-21 15:12:14 37850 534 8.1185270312525 85.815533935145
NTL001 NTL97 2018-01-21 15:11:59 37855 534 8.0961111542197 85.845181835447
NTL001 NTL97 2018-01-21 15:11:44 37863 534 8.0735169367958 85.875059663792
NTL001 NTL97 2018-01-21 15:11:29 37865 534 8.0509120263624 85.904956375325
NTL001 NTL97 2018-01-21 15:11:14 37858 534 8.0284020761992 85.934700997439
NTL001 NTL97 2018-01-21 15:10:59 37850 534 8.0058623207796 85.964460420023
NTL001 NTL97 2018-01-21 15:10:44 37852 534 7.9832823056978 85.994297935527
NTL001 NTL97 2018-01-21 15:10:29 37859 534 7.9607422096101 86.024100799105
NTL001 NTL97 2018-01-21 15:10:14 37864 534 7.9382078288416 86.053855671492
NTL001 NTL97 2018-01-21 15:09:59 37861 534 7.915700264801 86.083556593975
NTL001 NTL97 2018-01-21 15:09:44 37853 534 7.8931117134261 86.113352292988
NTL001 NTL97 2018-01-21 15:09:29 37850 534 7.8705798547852 86.143098723281
NTL001 NTL97 2018-01-21 15:09:14 37856 534 7.8479588957845 86.172985665429
NTL001 NTL97 2018-01-21 15:08:59 37863 534 7.82547905033 86.202634113919
NTL001 NTL97 2018-01-21 15:08:44 37863 534 7.8029131212879 86.232380298269
NTL001 NTL97 2018-01-21 15:08:29 37856 534 7.7803295560858 86.262126358123
NTL001 NTL97 2018-01-21 15:08:14 37851 534 7.7578354506714 86.291810925134
NTL001 NTL97 2018-01-21 15:07:59 37852 532 7.7353153742845 86.321518119407
NTL001 NTL97 2018-01-21 15:07:44 37859 532 7.7126576460356 86.351342509115
NTL001 NTL97 2018-01-21 15:07:29 37863 532 7.6900914155176 86.38105079354
NTL001 NTL97 2018-01-21 15:07:14 37859 532 7.6676121257713 86.410759397783
NTL001 NTL97 2018-01-21 15:06:59 37851 532 7.6451207096393 86.440393541308
NTL001 NTL97 2018-01-21 15:06:44 37849 532 7.6225343115138 86.469996864972
NTL001 NTL97 2018-01-21 15:06:29 37856 532 7.6000467218335 86.499611438856
NTL001 NTL97 2018-01-21 15:06:14 37864 532 7.5776051317664 86.529414929979
NTL001 NTL97 2018-01-21 15:05:59 37860 532 7.554994739163 86.559057448067
NTL001 NTL97 2018-01-21 15:05:44 37853 532 7.5322290121812 86.588423772456
NTL001 NTL97 2018-01-21 15:05:29 37843 532 7.5094133861494 86.61787035196
NTL001 NTL97 2018-01-21 15:05:14 37840 532 7.4867270002043 86.647141525685
NTL001 NTL97 2018-01-21 15:04:59 37846 532 7.4639099414477 86.676550233957
NTL001 NTL97 2018-01-21 15:04:44 37853 532 7.4410389833025 86.70603287169
NTL001 NTL97 2018-01-21 15:04:29 37853 532 7.4183085586665 86.73534728084
NTL001 NTL97 2018-01-21 15:04:14 37846 532 7.3954716716551 86.764790227606
NTL001 NTL97 2018-01-21 15:03:59 37840 532 7.3726570936282 86.794168095695
NTL001 NTL97 2018-01-21 15:03:44 37843 532 7.3499015850836 86.823499502238
NTL001 NTL97 2018-01-21 15:03:29 37851 532 7.3269698091055 86.853040787772
NTL001 NTL97 2018-01-21 15:03:14 37853 532 7.3042173016711 86.882325210239
NTL001 NTL97 2018-01-21 15:02:59 37848 532 7.2812973704713 86.91184547883
NTL001 NTL97 2018-01-21 15:02:44 37840 532 7.2585054277756 86.941222880572
NTL001 NTL97 2018-01-21 15:02:29 37832 532 7.2356726150844 86.970609664906
NTL001 NTL97 2018-01-21 15:02:14 37827 532 7.2127943772212 87.000012453184
NTL001 NTL97 2018-01-21 15:01:59 37819 532 7.1899810774673 87.029361864719
NTL001 NTL97 2018-01-21 15:01:44 37818 532 7.167217866124 87.058654289394
NTL001 NTL97 2018-01-21 15:01:29 37824 532 7.1443187437699 87.088106254025
NTL001 NTL97 2018-01-21 15:01:14 37830 532 7.1215258723963 87.117413576637
NTL001 NTL97 2018-01-21 15:00:59 37829 532 7.0987446671386 87.146710831135
NTL001 NTL97 2018-01-21 15:00:44 37824 532 7.0759018967269 87.17609993777
NTL001 NTL97 2018-01-21 15:00:29 37818 532 7.0529484169821 87.205581961788
NTL001 NTL97 2018-01-21 15:00:14 37819 532 7.0301650075635 87.234843034105
NTL001 NTL97 2018-01-21 14:59:59 37826 532 7.0072827736033 87.264257857424
NTL001 NTL97 2018-01-21 14:59:44 37831 532 6.9844425589037 87.293606431206
NTL001 NTL97 2018-01-21 14:59:29 37828 532 6.9616221102522 87.322916762159
NTL001 NTL97 2018-01-21 14:59:14 37821 532 6.9387724086127 87.352256875224
NTL001 NTL97 2018-01-21 14:58:59 37818 532 6.915947030148 87.381551416909
NTL001 NTL97 2018-01-21 14:58:44 37823 532 6.8930004130027 87.411009380326
NTL001 NTL97 2018-01-21 14:58:29 37830 532 6.8702131595128 87.440267993016
NTL001 NTL97 2018-01-21 14:58:14 37831 532 6.8474107271337 87.469520607679
NTL001 NTL97 2018-01-21 14:57:59 37824 532 6.8245819447494 87.498804808177
NTL001 NTL97 2018-01-21 14:57:44 37818 530 6.8017467469769 87.528101361914
NTL001 NTL97 2018-01-21 14:57:29 37821 530 6.7788643402779 87.557451236297
NTL001 NTL97 2018-01-21 14:57:14 37829 530 6.7561408856728 87.586604211082
NTL001 NTL97 2018-01-21 14:56:59 37832 530 6.7332536695132 87.615956163719
NTL001 NTL97 2018-01-21 14:56:44 37827 530 6.7104653794358 87.645148806483
NTL001 NTL97 2018-01-21 14:56:29 37820 530 6.6877018460076 87.674316597133
NTL001 NTL97 2018-01-21 14:56:14 37819 530 6.6648772612673 87.703568425206
NTL001 NTL97 2018-01-21 14:55:59 37825 530 6.6421072221537 87.73274108529
NTL001 NTL97 2018-01-21 14:55:44 37832 530 6.6192921361904 87.762049810899
NTL001 NTL97 2018-01-21 14:55:29 37830 530 6.5964720191462 87.791193639125
NTL001 NTL97 2018-01-21 14:55:14 37823 530 6.5736347852099 87.820333923729
NTL001 NTL97 2018-01-21 14:54:59 37820 530 6.5509731278356 87.849586753309
NTL001 NTL97 2018-01-21 14:54:44 37823 530 6.5282537510259 87.878717483751
NTL001 NTL97 2018-01-21 14:54:29 37828 530 6.5052679778544 87.907720061579
NTL001 NTL97 2018-01-21 14:54:14 37829 528 6.4824404239956 87.936974501602
NTL001 NTL97 2018-01-21 14:53:59 37827 528 6.460144470044 87.966317413639
NTL001 NTL97 2018-01-21 14:53:44 37819 528 6.4371665981527 87.995346579151
NTL001 NTL97 2018-01-21 14:53:29 37822 528 6.413508120541 88.023667590482
NTL001 NTL97 2018-01-21 14:53:14 37830 528 6.3898241385494 88.051905433918
NTL001 NTL97 2018-01-21 14:52:59 37832 528 6.3661109325955 88.080142153736
NTL001 NTL97 2018-01-21 14:52:44 37826 528 6.3423283909519 88.108527649112
NTL001 NTL97 2018-01-21 14:52:29 37819 528 6.3186881061966 88.136709001567
NTL001 NTL97 2018-01-21 14:52:14 37820 528 6.2949498958659 88.164964527596
NTL001 NTL97 2018-01-21 14:51:59 37827 528 6.271287033915 88.193170035668
NTL001 NTL97 2018-01-21 14:51:44 37833 528 6.2474827550286 88.221523846593
NTL001 NTL97 2018-01-21 14:51:29 37829 528 6.2238072777466 88.249713874389
NTL001 NTL97 2018-01-21 14:51:14 37822 528 6.1999909686465 88.278064378214
NTL001 NTL97 2018-01-21 14:50:59 37820 528 6.1763114399464 88.306260010862
NTL001 NTL97 2018-01-21 14:50:44 37826 528 6.152564739881 88.33455169987
NTL001 NTL97 2018-01-21 14:50:29 37832 528 6.1288050083525 88.362827042562
NTL001 NTL97 2018-01-21 14:50:14 37831 528 6.1050443925081 88.391067891004
NTL001 NTL97 2018-01-21 14:49:59 37824 528 6.0813925858545 88.419214600522
NTL001 NTL97 2018-01-21 14:49:44 37818 528 6.0576258968947 88.447539218911
NTL001 NTL97 2018-01-21 14:49:29 37822 528 6.0339897011848 88.475665388008
NTL001 NTL97 2018-01-21 14:49:14 37829 526 6.010334417293 88.503742792487
NTL001 NTL97 2018-01-21 14:48:59 37833 526 5.9865883922168 88.532010695807
NTL001 NTL97 2018-01-21 14:48:44 37828 526 5.9629311156667 88.560139644454
NTL001 NTL97 2018-01-21 14:48:29 37821 526 5.9392962783189 88.58821271458
NTL001 NTL97 2018-01-21 14:48:13 37820 526 5.9155577877894 88.61645425579
NTL001 NTL97 2018-01-21 14:47:59 37826 526 5.8919867267071 88.644469634973
NTL001 NTL97 2018-01-21 14:47:43 37834 526 5.8682038465756 88.672702395386
NTL001 NTL97 2018-01-21 14:47:28 37831 526 5.8445856825849 88.700762712498
NTL001 NTL97 2018-01-21 14:47:13 37823 526 5.8209957083016 88.728802705132
NTL001 NTL97 2018-01-21 14:46:58 37819 526 5.7972772504043 88.75700731633
NTL001 NTL97 2018-01-21 14:46:44 37824 526 5.7736282631147 88.785040135106
NTL001 NTL97 2018-01-21 14:46:28 37832 526 5.7500134725512 88.813051639202
NTL001 NTL97 2018-01-21 14:46:13 37833 526 5.7264107615949 88.841130489119
NTL001 NTL97 2018-01-21 14:45:58 37826 526 5.702842802048 88.869114753262
NTL001 NTL97 2018-01-21 14:45:43 37819 526 5.6790983831772 88.897276041509
NTL001 NTL97 2018-01-21 14:45:28 37821 524 5.655550034067 88.925232104653
NTL001 NTL97 2018-01-21 14:45:13 37829 524 5.6318475302317 88.953372740319
NTL001 NTL97 2018-01-21 14:44:58 37833 524 5.6083537758921 88.981233095326
NTL001 NTL97 2018-01-21 14:44:43 37830 524 5.5846225530009 89.009376858169
NTL001 NTL97 2018-01-21 14:44:28 37822 524 5.5610511453232 89.037339682294
NTL001 NTL97 2018-01-21 14:44:13 37819 524 5.5374681440712 89.065312490089
NTL001 NTL97 2018-01-21 14:43:58 37825 524 5.5138078599828 89.093390918526
NTL001 NTL97 2018-01-21 14:43:43 37832 524 5.4901975903405 89.121376509771
NTL001 NTL97 2018-01-21 14:43:28 37832 524 5.4665733571946 89.149354644409
NTL001 NTL97 2018-01-21 14:43:13 37826 524 5.4429778266114 89.177338369983
NTL001 NTL97 2018-01-21 14:42:58 37820 524 5.4193672179819 89.205329588942
NTL001 NTL97 2018-01-21 14:42:43 37822 524 5.3957669572276 89.233284478802
NTL001 NTL97 2018-01-21 14:42:28 37830 524 5.3721986680509 89.261207730623
NTL001 NTL97 2018-01-21 14:42:13 37834 524 5.3487131308601 89.289046545837
NTL001 NTL97 2018-01-21 14:41:58 37829 524 5.3250311360791 89.317100541308
NTL001 NTL97 2018-01-21 14:41:43 37822 524 5.3015844797185 89.344861278929
NTL001 NTL97 2018-01-21 14:41:28 37821 524 5.2779276231844 89.372862892748
NTL001 NTL97 2018-01-21 14:41:13 37827 524 5.2543498817734 89.400793028686
NTL001 NTL97 2018-01-21 14:40:58 37833 524 5.2307673639683 89.428727658974
NTL001 NTL97 2018-01-21 14:40:44 37831 524 5.2073144629488 89.456479276806
NTL001 NTL97 2018-01-21 14:40:28 37824 522 5.1836143463859 89.484537277371
NTL001 NTL97 2018-01-21 14:40:13 37820 522 5.160144730809 89.512319487279
NTL001 NTL97 2018-01-21 14:39:58 37824 522 5.1365586438006 89.540204127954
NTL001 NTL97 2018-01-21 14:39:43 37832 522 5.1130744510114 89.56797718255
NTL001 NTL97 2018-01-21 14:39:28 37833 522 5.0894840073977 89.595916388769
NTL001 NTL97 2018-01-21 14:39:13 37826 522 5.0660311078459 89.623666991664
NTL001 NTL97 2018-01-21 14:38:58 37820 522 5.0425181264244 89.651450438496
NTL001 NTL97 2018-01-21 14:38:43 37822 522 5.019026446711 89.679237318849
NTL001 NTL97 2018-01-21 14:38:28 37830 522 4.9954372359445 89.707148507443
NTL001 NTL97 2018-01-21 14:38:13 37833 520 4.9719390380185 89.734929280954
NTL001 NTL97 2018-01-21 14:37:58 37830 520 4.948494169826 89.762643762936
NTL001 NTL97 2018-01-21 14:37:43 37822 520 4.9249662108678 89.79047249526
NTL001 NTL97 2018-01-21 14:37:28 37820 520 4.9015066793241 89.818183568791
NTL001 NTL97 2018-01-21 14:37:13 37826 520 4.8780763766529 89.845848004026
NTL001 NTL97 2018-01-21 14:36:58 37833 520 4.8546825517756 89.873513723314
NTL001 NTL97 2018-01-21 14:36:44 37831 520 4.8311740006632 89.901299279966
NTL001 NTL97 2018-01-21 14:36:28 37824 520 4.8077612582714 89.928955765219
NTL001 NTL97 2018-01-21 14:36:13 37819 520 4.7842547225797 89.956700707838
NTL001 NTL97 2018-01-21 14:35:58 37823 520 4.7608495635975 89.984333304816
NTL001 NTL97 2018-01-21 14:35:43 37831 519 4.7375019998825 90.011916124357
NTL001 NTL97 2018-01-21 14:35:28 37833 519 4.7139890241609 90.039685199897
NTL001 NTL97 2018-01-21 14:35:13 37828 519 4.6905875817669 90.067311713819
NTL001 NTL97 2018-01-21 14:34:58 37821 519 4.6672305406197 90.094889197497
NTL001 NTL97 2018-01-21 14:34:43 37821 519 4.6439312814804 90.122406933609
NTL001 NTL97 2018-01-21 14:34:28 37828 519 4.62048571742 90.150075211044
NTL001 NTL97 2018-01-21 14:34:13 37833 519 4.5970918783791 90.177663480933
NTL001 NTL97 2018-01-21 14:33:58 37830 519 4.5737615285948 90.205183730952
NTL001 NTL97 2018-01-21 14:33:43 37823 519 4.5502423580963 90.232955025297
NTL001 NTL97 2018-01-21 14:33:28 37819 519 4.526901841306 90.260495102494
NTL001 NTL97 2018-01-21 14:33:13 37825 519 4.5035930903948 90.287983423419
NTL001 NTL97 2018-01-21 14:32:58 37832 519 4.4801956083421 90.315575225738
NTL001 NTL97 2018-01-21 14:32:43 37832 519 4.4568653469921 90.343104761639
NTL001 NTL97 2018-01-21 14:32:28 37825 519 4.4335488799278 90.370602406799
NTL001 NTL97 2018-01-21 14:32:13 37819 519 4.4102494387514 90.398055466716
NTL001 NTL97 2018-01-21 14:31:58 37822 519 4.3868839440212 90.425593760429
NTL001 NTL97 2018-01-21 14:31:43 37830 519 4.363468641016 90.453232518672
NTL001 NTL97 2018-01-21 14:31:28 37833 519 4.3400190681127 90.48089741362
NTL001 NTL97 2018-01-21 14:31:13 37828 519 4.3166494327677 90.508431724815
NTL001 NTL97 2018-01-21 14:30:58 37820 519 4.2932871942603 90.535978205355
NTL001 NTL97 2018-01-21 14:30:43 37821 519 4.2699341524736 90.563522158135
NTL001 NTL97 2018-01-21 14:30:28 37827 519 4.2466118822726 90.59099075076
NTL001 NTL97 2018-01-21 14:30:13 37833 519 4.2231389812428 90.618664099081
NTL001 NTL97 2018-01-21 14:29:58 37830 519 4.1997629957475 90.646208855249
NTL001 NTL97 2018-01-21 14:29:43 37822 519 4.1763930271946 90.673753182927
NTL001 NTL97 2018-01-21 14:29:28 37819 519 4.1528487277354 90.701479369915
NTL001 NTL97 2018-01-21 14:29:13 37825 519 4.1294819224694 90.728994833264
NTL001 NTL97 2018-01-21 14:28:58 37832 519 4.1060024241405 90.756712615056
NTL001 NTL97 2018-01-21 14:28:43 37831 520 4.0826047840717 90.784305929064
NTL001 NTL97 2018-01-21 14:28:28 37824 520 4.0591128623475 90.811907086361
NTL001 NTL97 2018-01-21 14:28:13 37819 520 4.0357167586056 90.83951036153
NTL001 NTL97 2018-01-21 14:27:58 37825 520 4.0122847136152 90.867053145569
NTL001 NTL97 2018-01-21 14:27:43 37832 520 3.9887384286681 90.894764211224
NTL001 NTL97 2018-01-21 14:27:28 37831 520 3.9653186130883 90.922356874774
NTL001 NTL97 2018-01-21 14:27:13 37825 520 3.941957411232 90.949872220424
NTL001 NTL97 2018-01-21 14:26:58 37819 520 3.9183326233267 90.977666039645
NTL001 NTL97 2018-01-21 14:26:43 37821 520 3.8949611550624 91.005182627185
NTL001 NTL97 2018-01-21 14:26:28 37829 520 3.8715190431999 91.032760595312
NTL001 NTL97 2018-01-21 14:26:13 37832 520 3.8479255825168 91.060518136708
NTL001 NTL97 2018-01-21 14:25:58 37827 520 3.8245193786102 91.088064581354
NTL001 NTL97 2018-01-21 14:25:43 37820 520 3.8009697385581 91.115771243933
NTL001 NTL97 2018-01-21 14:25:28 37819 520 3.777547387229 91.143328514528
NTL001 NTL97 2018-01-21 14:25:13 37825 520 3.7540498585174 91.170984209486
NTL001 NTL97 2018-01-21 14:24:58 37832 520 3.7304719191786 91.198704765002
NTL001 NTL97 2018-01-21 14:24:43 37828 520 3.7069460039873 91.226360537745
NTL001 NTL97 2018-01-21 14:24:28 37825 520 3.6834607920587 91.253980212646
NTL001 NTL97 2018-01-21 14:24:13 37817 520 3.660007781909 91.28159482419
NTL001 NTL97 2018-01-21 14:23:58 37803 520 3.6364293417708 91.309308498221
NTL001 NTL97 2018-01-21 14:23:43 37791 522 3.6128667471021 91.33697396386
NTL001 NTL97 2018-01-21 14:23:28 37788 520 3.5893467698464 91.364638199339
NTL001 NTL97 2018-01-21 14:23:13 37794 520 3.5657488949348 91.392400855423
NTL001 NTL97 2018-01-21 14:22:58 37802 522 3.5422632813308 91.419998877341
NTL001 NTL97 2018-01-21 14:22:43 37800 522 3.5187033553731 91.447653954183
NTL001 NTL97 2018-01-21 14:22:28 37792 522 3.4950580673834 91.475476738708
NTL001 NTL97 2018-01-21 14:22:13 37787 522 3.4715463412913 91.503111317276
NTL001 NTL97 2018-01-21 14:21:58 37792 522 3.4480065249463 91.530742044781
NTL001 NTL97 2018-01-21 14:21:43 37799 522 3.4244558766063 91.558409351321
NTL001 NTL97 2018-01-21 14:21:28 37800 522 3.4009444322902 91.586039108224
NTL001 NTL97 2018-01-21 14:21:13 37794 522 3.3772947647291 91.613833145515
NTL001 NTL97 2018-01-21 14:20:58 37785 522 3.3537493532365 91.641479579699
NTL001 NTL97 2018-01-21 14:20:43 37775 522 3.3301600112095 91.669163659134
NTL001 NTL97 2018-01-21 14:20:28 37775 522 3.3065789526237 91.696895723147
NTL001 NTL97 2018-01-21 14:20:13 37782 522 3.2830286553898 91.724557053642
NTL001 NTL97 2018-01-21 14:19:58 37785 522 3.2592989406093 91.752365722572
NTL001 NTL97 2018-01-21 14:19:43 37780 522 3.2357005524902 91.780060559776
NTL001 NTL97 2018-01-21 14:19:28 37772 522 3.2122224115555 91.807740288092
NTL001 NTL97 2018-01-21 14:19:13 37764 522 3.1886152136033 91.83546061673
NTL001 NTL97 2018-01-21 14:18:58 37770 522 3.1648934297578 91.863114241781
NTL001 NTL97 2018-01-21 14:18:43 37776 522 3.1412901751046 91.890860902075
NTL001 NTL97 2018-01-21 14:18:28 37776 524 3.1178282279426 91.918722471655
NTL001 NTL97 2018-01-21 14:18:13 37766 524 3.0939585468834 91.946538604748
NTL001 NTL97 2018-01-21 14:17:58 37765 524 3.0699956876817 91.974078619208
NTL001 NTL97 2018-01-21 14:17:43 37768 524 3.0466684562014 92.002048302555
NTL001 NTL97 2018-01-21 14:17:28 37773 524 3.0235912329117 92.030434554668
NTL001 NTL97 2018-01-21 14:17:13 37773 524 3.0005748765504 92.058755144011
NTL001 NTL97 2018-01-21 14:16:58 37770 524 2.9774863353972 92.08714334067
NTL001 NTL97 2018-01-21 14:16:43 37767 524 2.9543546459752 92.115555212083
NTL001 NTL97 2018-01-21 14:16:28 37768 524 2.931449453513 92.143713142647
NTL001 NTL97 2018-01-21 14:16:13 37770 524 2.9083261020138 92.172160918155
NTL001 NTL97 2018-01-21 14:15:58 37770 524 2.8853042806742 92.200450916757
NTL001 NTL97 2018-01-21 14:15:43 37770 524 2.8622669476778 92.228739848114
NTL001 NTL97 2018-01-21 14:15:28 37768 524 2.8391199522303 92.257202301685
NTL001 NTL97 2018-01-21 14:15:13 37769 524 2.8161198472043 92.285466229517
NTL001 NTL97 2018-01-21 14:14:58 37768 524 2.7929821032543 92.313902536677
NTL001 NTL97 2018-01-21 14:14:43 37762 524 2.7700579682725 92.342061090702
NTL001 NTL97 2018-01-21 14:14:28 37755 524 2.7468954971239 92.370525119934
NTL001 NTL97 2018-01-21 14:14:13 37755 524 2.723833127381 92.398846427903
NTL001 NTL97 2018-01-21 14:13:58 37762 524 2.7008359699346 92.427098480771
NTL001 NTL97 2018-01-21 14:13:43 37768 524 2.6777147741543 92.455524452479
NTL001 NTL97 2018-01-21 14:13:28 37765 524 2.6546941108936 92.483785169255
NTL001 NTL97 2018-01-21 14:13:13 37757 524 2.63152516282 92.512224198323
NTL001 NTL97 2018-01-21 14:12:57 37753 524 2.6085641594546 92.540429404788
NTL001 NTL97 2018-01-21 14:12:43 37757 524 2.5855006185725 92.568761790831
NTL001 NTL97 2018-01-21 14:12:27 37765 524 2.5623636030394 92.597157278677
NTL001 NTL97 2018-01-21 14:12:12 37766 524 2.5393715177772 92.625396102951
NTL001 NTL97 2018-01-21 14:11:57 37760 524 2.5161872270884 92.653878189529
NTL001 NTL97 2018-01-21 14:11:42 37753 524 2.4931833844878 92.682093288978
NTL001 NTL97 2018-01-21 14:11:27 37755 524 2.4700302545079 92.710503887909
NTL001 NTL97 2018-01-21 14:11:12 37762 524 2.4469820943778 92.738825207111
NTL001 NTL97 2018-01-21 14:10:57 37766 524 2.4239311678794 92.767137710821
NTL001 NTL97 2018-01-21 14:10:42 37762 524 2.4009375535216 92.795322055058
NTL001 NTL97 2018-01-21 14:10:27 37754 524 2.3778594447903 92.823659809624
NTL001 NTL97 2018-01-21 14:10:12 37753 524 2.3548443880936 92.851935409762
NTL001 NTL97 2018-01-21 14:09:57 37759 522 2.3318943514917 92.88006061051
NTL001 NTL97 2018-01-21 14:09:42 37766 522 2.3087839805519 92.908425294407
NTL001 NTL97 2018-01-21 14:09:27 37764 522 2.2858811333083 92.936562496572
NTL001 NTL97 2018-01-21 14:09:12 37755 522 2.2627226021079 92.964953521653
NTL001 NTL97 2018-01-21 14:08:57 37751 522 2.2397968679636 92.993054668355
NTL001 NTL97 2018-01-21 14:08:42 37757 522 2.2168904224436 93.021166716015
NTL001 NTL97 2018-01-21 14:08:27 37765 522 2.1939921988477 93.049278816083
NTL001 NTL97 2018-01-21 14:08:12 37765 522 2.1709406333182 93.077562352231
NTL001 NTL97 2018-01-21 14:07:57 37758 522 2.1479789376657 93.105714102919
NTL001 NTL97 2018-01-21 14:07:42 37751 520 2.1250512395266 93.133830767402
NTL001 NTL97 2018-01-21 14:07:27 37754 520 2.1021951226308 93.161859415158
NTL001 NTL97 2018-01-21 14:07:12 37761 520 2.0792512007422 93.190017289078
NTL001 NTL97 2018-01-21 14:06:57 37765 520 2.0562106242453 93.218274261868
NTL001 NTL97 2018-01-21 14:06:42 37760 520 2.0333928330399 93.246237749968
NTL001 NTL97 2018-01-21 14:06:27 37752 520 2.0105121186947 93.274306892146
NTL001 NTL97 2018-01-21 14:06:12 37752 520 1.9875198812427 93.30250639955
NTL001 NTL97 2018-01-21 14:05:57 37758 520 1.9646741370657 93.330496747155
NTL001 NTL97 2018-01-21 14:05:42 37765 520 1.9417218991169 93.358641491401
NTL001 NTL97 2018-01-21 14:05:27 37767 519 1.91882725448 93.386709652675
NTL001 NTL97 2018-01-21 14:05:12 37772 519 1.8961027562258 93.414610391962
NTL001 NTL97 2018-01-21 14:04:57 37779 519 1.8732416208095 93.442622803457
NTL001 NTL97 2018-01-21 14:04:43 37778 519 1.8504038782759 93.470571577823
NTL001 NTL97 2018-01-21 14:04:27 37771 519 1.8274866320226 93.498691506431
NTL001 NTL97 2018-01-21 14:04:12 37765 519 1.8046992427957 93.52665031789
NTL001 NTL97 2018-01-21 14:03:57 37769 519 1.781881458576 93.554592707651
NTL001 NTL97 2018-01-21 14:03:42 37777 519 1.7591116458878 93.582512647442
NTL001 NTL97 2018-01-21 14:03:27 37779 519 1.7361831822679 93.610617492268
NTL001 NTL97 2018-01-21 14:03:12 37772 519 1.7132843978395 93.638676072154
NTL001 NTL97 2018-01-21 14:02:57 37765 519 1.6905456412557 93.666523569058
NTL001 NTL97 2018-01-21 14:02:42 37766 519 1.6677226048035 93.694485378158
NTL001 NTL97 2018-01-21 14:02:27 37773 519 1.6449427296162 93.722417970591
NTL001 NTL97 2018-01-21 14:02:12 37779 519 1.6221275558664 93.750375985015
NTL001 NTL97 2018-01-21 14:01:57 37773 519 1.5992684392157 93.778366767653
NTL001 NTL97 2018-01-21 14:01:42 37767 519 1.5763690575832 93.80643501717
NTL001 NTL97 2018-01-21 14:01:27 37763 519 1.5536420671293 93.834296541277
NTL001 NTL97 2018-01-21 14:01:12 37767 519 1.53081102828 93.862255621227
NTL001 NTL97 2018-01-21 14:00:57 37774 519 1.508003516121 93.890195988906
NTL001 NTL97 2018-01-21 14:00:42 37776 519 1.485059788918 93.918308665499
NTL001 NTL97 2018-01-21 14:00:27 37769 519 1.4623600239563 93.946119198244
NTL001 NTL97 2018-01-21 14:00:12 37762 519 1.4394049427824 93.974226808306
NTL001 NTL97 2018-01-21 13:59:57 37763 519 1.4166239113645 94.002137411395
NTL001 NTL97 2018-01-21 13:59:42 37771 519 1.3936757888714 94.03025306913
NTL001 NTL97 2018-01-21 13:59:27 37776 519 1.3708269536846 94.05824910687
NTL001 NTL97 2018-01-21 13:59:12 37773 519 1.3480377441401 94.086149736837
NTL001 NTL97 2018-01-21 13:58:57 37765 520 1.3250537248383 94.114295275079
NTL001 NTL97 2018-01-21 13:58:42 37760 520 1.3021843659419 94.142291046369
NTL001 NTL97 2018-01-21 13:58:27 37765 520 1.2794064618953 94.170196035025
NTL001 NTL97 2018-01-21 13:58:12 37772 520 1.2563942552906 94.198368358496
NTL001 NTL97 2018-01-21 13:57:57 37773 520 1.2335633797026 94.226337920764
NTL001 NTL97 2018-01-21 13:57:42 37767 520 1.2107639905219 94.254265185083
NTL001 NTL97 2018-01-21 13:57:27 37760 520 1.1877286964298 94.282457455369
NTL001 NTL97 2018-01-21 13:57:12 37762 520 1.1649639811479 94.310348545347
NTL001 NTL97 2018-01-21 13:56:57 37769 520 1.1420016973422 94.338442281308
NTL001 NTL97 2018-01-21 13:56:42 37773 520 1.1191311870587 94.366436735534
NTL001 NTL97 2018-01-21 13:56:27 37769 520 1.0961335871846 94.394628814278
NTL001 NTL97 2018-01-21 13:56:12 37762 520 1.0732256410526 94.422701066301
NTL001 NTL97 2018-01-21 13:55:57 37760 520 1.0503166229389 94.45072180053
NTL001 NTL97 2018-01-21 13:55:42 37765 520 1.0274653007239 94.478713020326
NTL001 NTL97 2018-01-21 13:55:27 37772 520 1.004454349198 94.506866196143
NTL001 NTL97 2018-01-21 13:55:12 37770 520 0.98156744147441 94.534874742242
NTL001 NTL97 2018-01-21 13:54:57 37762 520 0.9586598957464 94.562921931955
NTL001 NTL97 2018-01-21 13:54:42 37757 520 0.93576987176427 94.590959299959
NTL001 NTL97 2018-01-21 13:54:27 37762 520 0.9127049742195 94.619187766243
NTL001 NTL97 2018-01-21 13:54:12 37770 520 0.88975940806181 94.647268569867
NTL001 NTL97 2018-01-21 13:53:57 37772 520 0.86694340892792 94.675251566806
NTL001 NTL97 2018-01-21 13:53:42 37762 520 0.84389554696572 94.703468953875
NTL001 NTL97 2018-01-21 13:53:27 37758 520 0.82097584855747 94.731508109656
NTL001 NTL97 2018-01-21 13:53:12 37759 520 0.79809395828289 94.759519824004
NTL001 NTL97 2018-01-21 13:52:57 37766 520 0.77515602945189 94.787610072453
NTL001 NTL97 2018-01-21 13:52:42 37770 520 0.75210442046888 94.815851833827
NTL001 NTL97 2018-01-21 13:52:27 37765 520 0.72923920475662 94.843838854321
NTL001 NTL97 2018-01-21 13:52:12 37755 520 0.70621473399984 94.87203635319
NTL001 NTL97 2018-01-21 13:51:57 37757 520 0.68328967149639 94.900098131034
NTL001 NTL97 2018-01-21 13:51:42 37763 520 0.6604022218216 94.928129122339
NTL001 NTL97 2018-01-21 13:51:27 37769 522 0.63747237457662 94.956179797424
NTL001 NTL97 2018-01-21 13:51:12 37766 522 0.61438800332923 94.984438945512
NTL001 NTL97 2018-01-21 13:50:57 37759 522 0.59151506736616 95.0124650965
NTL001 NTL97 2018-01-21 13:50:42 37749 522 0.56861092171931 95.040492451524
NTL001 NTL97 2018-01-21 13:50:27 37749 522 0.54557491052673 95.068658401231
NTL001 NTL97 2018-01-21 13:50:12 37757 522 0.52265086073386 95.09674564194
NTL001 NTL97 2018-01-21 13:49:57 37768 522 0.499624253591 95.124964574233
NTL001 NTL97 2018-01-21 13:49:42 37776 522 0.47666210892811 95.153062293204
NTL001 NTL97 2018-01-21 13:49:27 37772 522 0.45376486543994 95.181081657832
NTL001 NTL97 2018-01-21 13:49:12 37765 522 0.43071315745641 95.20930323772
NTL001 NTL97 2018-01-21 13:48:57 37762 522 0.40778517918108 95.237371806494
NTL001 NTL97 2018-01-21 13:48:42 37768 522 0.3848103218465 95.265494452295
NTL001 NTL97 2018-01-21 13:48:27 37775 522 0.36178429823458 95.293675502616
NTL001 NTL97 2018-01-21 13:48:12 37774 522 0.338825155487 95.321764810359
NTL001 NTL97 2018-01-21 13:47:57 37767 522 0.31579125780483 95.349974554708
NTL001 NTL97 2018-01-21 13:47:42 37761 522 0.29292386044582 95.377974471183
NTL001 NTL97 2018-01-21 13:47:27 37764 522 0.26997834887693 95.406060036647
NTL001 NTL97 2018-01-21 13:47:12 37772 522 0.24691978424817 95.434279266194
NTL001 NTL97 2018-01-21 13:46:57 37775 520 0.2239421380827 95.462400845041
NTL001 NTL97 2018-01-21 13:46:42 37770 520 0.20100382498358 95.49048131012
NTL001 NTL97 2018-01-21 13:46:27 37762 522 0.17798738613523 95.518671454173
NTL001 NTL97 2018-01-21 13:46:12 37762 522 0.15505682721037 95.546718101363
NTL001 NTL97 2018-01-21 13:45:57 37768 522 0.13204212055338 95.574864417444
NTL001 NTL97 2018-01-21 13:45:42 37774 522 0.10912757847917 95.602935349977
NTL001 NTL97 2018-01-21 13:45:27 37771 522 0.086223020259985 95.630991714171
NTL001 NTL97 2018-01-21 13:45:12 37764 522 0.063104534406258 95.659273190499
NTL001 NTL97 2018-01-21 13:44:57 37760 522 0.040219652623863 95.687291811372
NTL001 NTL97 2018-01-21 13:44:42 37766 522 0.017228482533892 95.715406822224
NTL001 NTL97 2018-01-21 13:44:27 37773 522 -0.005774063540131 95.743546655538
NTL001 NTL97 2018-01-21 13:44:12 37773 522 -0.028691790431978 95.771640442296
NTL001 NTL97 2018-01-21 13:43:57 37765 522 -0.051631477456909 95.799727250616
NTL001 NTL97 2018-01-21 13:43:42 37759 522 -0.074739395354459 95.827984317961
NTL001 NTL97 2018-01-21 13:43:27 37763 522 -0.097647881683394 95.85601690722
NTL001 NTL97 2018-01-21 13:43:12 37771 522 -0.12070687222118 95.88427722332
NTL001 NTL97 2018-01-21 13:42:57 37773 522 -0.14365248321254 95.912353738566
NTL001 NTL97 2018-01-21 13:42:42 37767 520 -0.16663853975362 95.940452033236
NTL001 NTL97 2018-01-21 13:42:27 37760 520 -0.18949810138758 95.968438775887
NTL001 NTL97 2018-01-21 13:42:12 37761 520 -0.2124150237784 95.996554181023
NTL001 NTL97 2018-01-21 13:41:57 37768 520 -0.23543990485857 96.024701636892
NTL001 NTL97 2018-01-21 13:41:42 37771 520 -0.25848233518978 96.052864789954
NTL001 NTL97 2018-01-21 13:41:27 37770 520 -0.28141420393249 96.080970405284
NTL001 NTL97 2018-01-21 13:41:12 37763 520 -0.30430119989486 96.108997141883
NTL001 NTL97 2018-01-21 13:40:57 37758 520 -0.32720303409046 96.13702110917
NTL001 NTL97 2018-01-21 13:40:42 37763 520 -0.35011785335629 96.165053771318
NTL001 NTL97 2018-01-21 13:40:27 37771 520 -0.37308336355142 96.193166333085
NTL001 NTL97 2018-01-21 13:40:12 37772 520 -0.39594960951876 96.221145115536
NTL001 NTL97 2018-01-21 13:39:57 37766 520 -0.41889630144066 96.24927534129
NTL001 NTL97 2018-01-21 13:39:42 37759 520 -0.44167763097603 96.27716258869
NTL001 NTL97 2018-01-21 13:39:27 37760 519 -0.46467729799537 96.305267966158
NTL001 NTL97 2018-01-21 13:39:12 37767 519 -0.48748875926009 96.333207131448
NTL001 NTL97 2018-01-21 13:38:57 37772 519 -0.51035938405755 96.36124655252
NTL001 NTL97 2018-01-21 13:38:42 37767 519 -0.53308606881927 96.389055067885
NTL001 NTL97 2018-01-21 13:38:27 37760 519 -0.55606406457591 96.417148823557
NTL001 NTL97 2018-01-21 13:38:12 37758 519 -0.57880467963203 96.445024695731
NTL001 NTL97 2018-01-21 13:37:56 37764 519 -0.60163237992557 96.472967915162
NTL001 NTL97 2018-01-21 13:37:41 37770 519 -0.62440018529209 96.500816820913
NTL001 NTL97 2018-01-21 13:37:26 37769 519 -0.64726228781628 96.528813981648
NTL001 NTL97 2018-01-21 13:37:11 37762 519 -0.67000474677408 96.556671308963
NTL001 NTL97 2018-01-21 13:36:56 37757 517 -0.69284107766332 96.58462105452
NTL001 NTL97 2018-01-21 13:36:42 37760 517 -0.71556151048325 96.612437038094
NTL001 NTL97 2018-01-21 13:36:26 37768 517 -0.73843460010752 96.64043328711
NTL001 NTL97 2018-01-21 13:36:11 37770 517 -0.761160164157 96.668266466367
NTL001 NTL97 2018-01-21 13:35:56 37764 517 -0.78379712377691 96.695979355116
NTL001 NTL97 2018-01-21 13:35:41 37756 517 -0.80650624089672 96.723792598762
NTL001 NTL97 2018-01-21 13:35:26 37745 517 -0.82925425096217 96.751645584644
NTL001 NTL97 2018-01-21 13:35:11 37730 517 -0.85204204499293 96.779537138285
NTL001 NTL97 2018-01-21 13:34:56 37716 517 -0.87476872253139 96.807368825922
NTL001 NTL97 2018-01-21 13:34:41 37719 515 -0.89741515449812 96.835098347679
NTL001 NTL97 2018-01-21 13:34:26 37727 515 -0.9201501795881 96.862944834963
NTL001 NTL97 2018-01-21 13:34:11 37729 515 -0.94284626777744 96.890742170096
NTL001 NTL97 2018-01-21 13:33:56 37723 515 -0.96547872680096 96.918449195526
NTL001 NTL97 2018-01-21 13:33:41 37716 515 -0.98812308398406 96.946179042683
NTL001 NTL97 2018-01-21 13:33:26 37716 515 -1.0107962326473 96.973943965671
NTL001 NTL97 2018-01-21 13:33:11 37723 515 -1.0336171333119 97.001886230848
NTL001 NTL97 2018-01-21 13:32:56 37728 515 -1.0561768105052 97.029536093059
NTL001 NTL97 2018-01-21 13:32:41 37725 515 -1.0787901035615 97.057241273742
NTL001 NTL97 2018-01-21 13:32:26 37716 515 -1.1014565837362 97.084983896289
NTL001 NTL97 2018-01-21 13:32:11 37714 515 -1.1242225104263 97.112858319455
NTL001 NTL97 2018-01-21 13:31:56 37720 515 -1.1468280500949 97.140540203107
NTL001 NTL97 2018-01-21 13:31:41 37727 515 -1.1695309162309 97.168361720992
NTL001 NTL97 2018-01-21 13:31:26 37726 515 -1.1920721188356 97.195984876591
NTL001 NTL97 2018-01-21 13:31:11 37719 515 -1.2147542146543 97.223750103375
NTL001 NTL97 2018-01-21 13:30:56 37713 515 -1.2373442306145 97.25140444007
NTL001 NTL97 2018-01-21 13:30:41 37717 515 -1.2598584041458 97.279038645072
NTL001 NTL97 2018-01-21 13:30:26 37724 515 -1.2826129975744 97.306910298975
NTL001 NTL97 2018-01-21 13:30:11 37727 513 -1.3051394866267 97.334433882097
NTL001 NTL97 2018-01-21 13:29:56 37721 513 -1.3278118451952 97.362211947242
NTL001 NTL97 2018-01-21 13:29:41 37714 513 -1.3503088365211 97.38993170309
NTL001 NTL97 2018-01-21 13:29:26 37713 513 -1.3728869820078 97.417555275573
NTL001 NTL97 2018-01-21 13:29:11 37722 513 -1.3956722983415 97.445188752483
NTL001 NTL97 2018-01-21 13:28:56 37725 513 -1.4181665928014 97.472922503944
NTL001 NTL97 2018-01-21 13:28:41 37722 513 -1.4404986614197 97.500740172114
NTL001 NTL97 2018-01-21 13:28:26 37712 513 -1.4632584164775 97.528240179738
NTL001 NTL97 2018-01-21 13:28:11 37710 515 -1.486388428206 97.555752194206
NTL001 NTL97 2018-01-21 13:27:56 37718 513 -1.5084073532964 97.583803994649
NTL001 NTL97 2018-01-21 13:27:41 37723 515 -1.5302977631669 97.612013392725
NTL001 NTL97 2018-01-21 13:27:26 37730 519 -1.5543856730353 97.638711362378
NTL001 NTL97 2018-01-21 13:27:11 37720 519 -1.5782421481686 97.665972161007
NTL001 NTL97 2018-01-21 13:26:56 37717 517 -1.5971330285305 97.696463709261
NTL001 NTL97 2018-01-21 13:26:41 37711 517 -1.6128600109205 97.728678067528
NTL001 NTL97 2018-01-21 13:26:26 37715 517 -1.6282706316614 97.761174640037
NTL001 NTL97 2018-01-21 13:26:11 37722 517 -1.6436597108453 97.79365555315
NTL001 NTL97 2018-01-21 13:25:56 37725 517 -1.6590214409121 97.826131531062
NTL001 NTL97 2018-01-21 13:25:41 37720 517 -1.6744535847186 97.858676506356
NTL001 NTL97 2018-01-21 13:25:29 37713 517 -1.6897835932272 97.890991782009
NTL001 NTL97 2018-01-21 13:25:11 37712 517 -1.7051594532134 97.923486343438
NTL001 NTL97 2018-01-21 13:24:56 37718 517 -1.7205270337709 97.955949400539
NTL001 NTL97 2018-01-21 13:24:41 37724 517 -1.7359759871416 97.988518572285
NTL001 NTL97 2018-01-21 13:24:26 37722 517 -1.7513236107747 98.020921582404
NTL001 NTL97 2018-01-21 13:24:11 37715 517 -1.7666405751298 98.053340365331
NTL001 NTL97 2018-01-21 13:23:56 37708 517 -1.7820017678499 98.085721981477
NTL001 NTL97 2018-01-21 13:23:41 37716 517 -1.7974383718695 98.118309696673
NTL001 NTL97 2018-01-21 13:23:26 37722 517 -1.8127756106152 98.150689893484
NTL001 NTL97 2018-01-21 13:23:11 37723 517 -1.8281614390579 98.183164922434
NTL001 NTL97 2018-01-21 13:22:56 37717 517 -1.8435202261022 98.215624069513
NTL001 NTL97 2018-01-21 13:22:41 37711 517 -1.8588857253853 98.248126696554
NTL001 NTL97 2018-01-21 13:22:26 37713 517 -1.8742181404445 98.280456314826
NTL001 NTL97 2018-01-21 13:22:11 37720 517 -1.8895816080133 98.312911125608
NTL001 NTL97 2018-01-21 13:21:56 37727 517 -1.9049245278905 98.345303584356
NTL001 NTL97 2018-01-21 13:21:41 37727 517 -1.9203520808011 98.377910866267
NTL001 NTL97 2018-01-21 13:21:26 37721 517 -1.9357276924954 98.410395776705
NTL001 NTL97 2018-01-21 13:21:11 37715 517 -1.951150921194 98.442944909842
NTL001 NTL97 2018-01-21 13:20:56 37716 517 -1.9664690275548 98.475304380628
NTL001 NTL97 2018-01-21 13:20:41 37723 517 -1.9818326219719 98.507799411779
NTL001 NTL97 2018-01-21 13:20:26 37728 517 -1.997259344018 98.540381516961
NTL001 NTL97 2018-01-21 13:20:11 37724 517 -2.0125857839687 98.572774380699
NTL001 NTL97 2018-01-21 13:19:56 37716 517 -2.0279863383004 98.605329197381
NTL001 NTL97 2018-01-21 13:19:41 37711 517 -2.0434543902108 98.638005214474
NTL001 NTL97 2018-01-21 13:19:26 37715 517 -2.058786848451 98.670428967266
NTL001 NTL97 2018-01-21 13:19:11 37720 517 -2.0742204645447 98.703035710834
NTL001 NTL97 2018-01-21 13:18:56 37717 517 -2.089602752463 98.735563570455
NTL001 NTL97 2018-01-21 13:18:41 37710 517 -2.104989175125 98.768077454248
NTL001 NTL97 2018-01-21 13:18:26 37707 519 -2.1203561894163 98.800571723332
NTL001 NTL97 2018-01-21 13:18:11 37712 519 -2.135837724184 98.833291262088
NTL001 NTL97 2018-01-21 13:17:56 37719 519 -2.1511948795485 98.86577786575
NTL001 NTL97 2018-01-21 13:17:41 37718 519 -2.1667008222167 98.898521997797
NTL001 NTL97 2018-01-21 13:17:26 37712 519 -2.1820522469313 98.931018176769
NTL001 NTL97 2018-01-21 13:17:11 37707 519 -2.1974093967412 98.963556455316
NTL001 NTL97 2018-01-21 13:16:56 37710 519 -2.2129513101514 98.99630407168
NTL001 NTL97 2018-01-21 13:16:41 37716 519 -2.2283728610662 99.028844904591
NTL001 NTL97 2018-01-21 13:16:26 37718 519 -2.2436874832594 99.06150824251
NTL001 NTL97 2018-01-21 13:16:11 37714 519 -2.2590460800049 99.094083290736
NTL001 NTL97 2018-01-21 13:15:56 37711 519 -2.2747692146559 99.126786390589
NTL001 NTL97 2018-01-21 13:15:41 37706 519 -2.2901464373837 99.159370451041
NTL001 NTL97 2018-01-21 13:15:26 37696 519 -2.3051603491328 99.192224616638
NTL001 NTL97 2018-01-21 13:15:11 37582 520 -2.3207659906143 99.22476419699
NTL001 NTL97 2018-01-21 13:14:56 37414 520 -2.3370779965639 99.257252750022
NTL001 NTL97 2018-01-21 13:14:41 37285 517 -2.3518055412453 99.290162094389
NTL001 NTL97 2018-01-21 13:14:26 37006 515 -2.3657145172945 99.323235743456
NTL001 NTL97 2018-01-21 13:14:11 36504 519 -2.382992123594 99.354919329092
NTL001 NTL97 2018-01-21 13:13:56 36137 520 -2.4009110709385 99.386208792927
NTL001 NTL97 2018-01-21 13:13:41 35769 522 -2.4138594478295 99.420054573762
NTL001 NTL97 2018-01-21 13:13:26 35706 520 -2.4288106243761 99.452915719916
NTL001 NTL97 2018-01-21 13:13:11 35709 520 -2.4442744623494 99.485677187621
NTL001 NTL97 2018-01-21 13:12:56 35717 520 -2.4594973868528 99.518743942106
NTL001 NTL97 2018-01-21 13:12:41 35720 520 -2.475013781136 99.551232179834
NTL001 NTL97 2018-01-21 13:12:26 35716 520 -2.4912739923218 99.583801677281
NTL001 NTL97 2018-01-21 13:12:11 35708 520 -2.5074397242305 99.616142275122
NTL001 NTL97 2018-01-21 13:11:56 35707 520 -2.5236583518664 99.648630510062
NTL001 NTL97 2018-01-21 13:11:41 35713 520 -2.5397806548238 99.680913138372
NTL001 NTL97 2018-01-21 13:11:26 35720 520 -2.5560272577449 99.713376588361
NTL001 NTL97 2018-01-21 13:11:11 35718 520 -2.572213653803 99.745815298286
NTL001 NTL97 2018-01-21 13:10:56 35711 520 -2.5883934161949 99.778264342469
NTL001 NTL97 2018-01-21 13:10:41 35707 520 -2.604586255869 99.810634668196
NTL001 NTL97 2018-01-21 13:10:26 35712 520 -2.6207105111678 99.842924247949
NTL001 NTL97 2018-01-21 13:10:11 35719 520 -2.6370029308537 99.875558796698
NTL001 NTL97 2018-01-21 13:09:56 35719 520 -2.6531802446306 99.907959214026
NTL001 NTL97 2018-01-21 13:09:41 35713 520 -2.6692914497487 99.94022646015
NTL001 NTL97 2018-01-21 13:09:26 35706 520 -2.6855774269918 99.972849422707
NTL001 NTL97 2018-01-21 13:09:11 35710 520 -2.7017543317135 100.005269871
NTL001 NTL97 2018-01-21 13:08:56 35717 520 -2.7179374386923 100.03766343596
NTL001 NTL97 2018-01-21 13:08:41 35721 522 -2.7341327933954 100.07011671976
NTL001 NTL97 2018-01-21 13:08:26 35716 522 -2.7504143882923 100.10277940434
NTL001 NTL97 2018-01-21 13:08:11 35709 522 -2.7666292417857 100.13523804834
NTL001 NTL97 2018-01-21 13:07:56 35708 522 -2.7828578081329 100.16776335471
NTL001 NTL97 2018-01-21 13:07:41 35714 522 -2.799026645138 100.20020023938
NTL001 NTL97 2018-01-21 13:07:26 35720 522 -2.8152791854032 100.23275793753
NTL001 NTL97 2018-01-21 13:07:11 35719 522 -2.8315279429372 100.26531221986
NTL001 NTL97 2018-01-21 13:06:56 35711 522 -2.8477574574048 100.29786483787
NTL001 NTL97 2018-01-21 13:06:41 35708 522 -2.8639543793629 100.33034696092
NTL001 NTL97 2018-01-21 13:06:26 35712 522 -2.8802030692637 100.36292784276
NTL001 NTL97 2018-01-21 13:06:11 35720 522 -2.8964468553014 100.39547467778
NTL001 NTL97 2018-01-21 13:05:56 35722 522 -2.9127450467977 100.42817762557
NTL001 NTL97 2018-01-21 13:05:41 35716 522 -2.9289470619452 100.46068745143
NTL001 NTL97 2018-01-21 13:05:26 35708 522 -2.945168389152 100.49319362537
NTL001 NTL97 2018-01-21 13:05:11 35704 522 -2.9614460431072 100.52584222207
NTL001 NTL97 2018-01-21 13:04:56 35709 522 -2.9777144176059 100.55851622151
NTL001 NTL97 2018-01-21 13:04:41 35716 522 -2.9939713586294 100.59114635815
NTL001 NTL97 2018-01-21 13:04:26 35718 522 -3.0101595922399 100.62359601887
NTL001 NTL97 2018-01-21 13:04:11 35712 522 -3.0264057665421 100.65619518822
NTL001 NTL97 2018-01-21 13:03:56 35705 522 -3.0426163065748 100.68874398518
NTL001 NTL97 2018-01-21 13:03:41 35706 522 -3.0589160893194 100.72145542168
NTL001 NTL97 2018-01-21 13:03:26 35713 522 -3.0751738977137 100.75408285056
NTL001 NTL97 2018-01-21 13:03:11 35718 522 -3.0913823529955 100.78662755322
NTL001 NTL97 2018-01-21 13:02:56 35715 524 -3.1076436129387 100.8192553578
NTL001 NTL97 2018-01-21 13:02:41 35708 524 -3.1239261672442 100.8519529844
NTL001 NTL97 2018-01-21 13:02:26 35705 524 -3.1401635637775 100.88456030456
NTL001 NTL97 2018-01-21 13:02:10 35710 524 -3.156456207248 100.9172666434
NTL001 NTL97 2018-01-21 13:01:55 35718 524 -3.1726821687558 100.94986528471
NTL001 NTL97 2018-01-21 13:01:40 35729 524 -3.188960706778 100.9825708507
NTL001 NTL97 2018-01-21 13:01:25 35736 524 -3.2052547533702 101.01531310945
NTL001 NTL97 2018-01-21 13:01:10 35732 524 -3.2214753771431 101.04791980118
NTL001 NTL97 2018-01-21 13:00:55 35724 524 -3.2377492728772 101.08056935697
NTL001 NTL97 2018-01-21 13:00:40 35722 524 -3.2539759940891 101.11316576839
NTL001 NTL97 2018-01-21 13:00:25 35728 524 -3.2702345432804 101.1458626583
NTL001 NTL97 2018-01-21 13:00:10 35735 524 -3.2865500826205 101.17863015609
NTL001 NTL97 2018-01-21 12:59:55 35734 524 -3.302866000192 101.21142123475
NTL001 NTL97 2018-01-21 12:59:40 35727 524 -3.3190498439861 101.24397628052
NTL001 NTL97 2018-01-21 12:59:25 35721 524 -3.3353108628676 101.27667579543
NTL001 NTL97 2018-01-21 12:59:10 35726 524 -3.3516359912695 101.30950121614
NTL001 NTL97 2018-01-21 12:58:55 35734 524 -3.3678929478412 101.34217104317
NTL001 NTL97 2018-01-21 12:58:41 35736 524 -3.3841719566083 101.37490226454
NTL001 NTL97 2018-01-21 12:58:25 35727 524 -3.4004786733522 101.40771882902
NTL001 NTL97 2018-01-21 12:58:10 35722 524 -3.4167165738826 101.44035512718
NTL001 NTL97 2018-01-21 12:57:55 35715 524 -3.4330104909425 101.47310991193
NTL001 NTL97 2018-01-21 12:57:40 35711 524 -3.4492409084962 101.50578219072
NTL001 NTL97 2018-01-21 12:57:25 35720 524 -3.4655362140445 101.53861161534
NTL001 NTL97 2018-01-21 12:57:10 35725 524 -3.4818268256776 101.5713985453
NTL001 NTL97 2018-01-21 12:56:55 35725 524 -3.4980696581765 101.60405425525
NTL001 NTL97 2018-01-21 12:56:41 35718 524 -3.5143280789332 101.63675332692
NTL001 NTL97 2018-01-21 12:56:25 35713 524 -3.5306546145351 101.66960533117
NTL001 NTL97 2018-01-21 12:56:10 35717 524 -3.5469468839629 101.70241768723
NTL001 NTL97 2018-01-21 12:55:55 35725 524 -3.5631687446684 101.73508825286
NTL001 NTL97 2018-01-21 12:55:40 35727 524 -3.5794576003573 101.76784231548
NTL001 NTL97 2018-01-21 12:55:25 35723 524 -3.5957317832531 101.80061109855
NTL001 NTL97 2018-01-21 12:55:10 35716 524 -3.6119969494586 101.83341129238
NTL001 NTL97 2018-01-21 12:54:55 35715 524 -3.6283375308962 101.86633838358
NTL001 NTL97 2018-01-21 12:54:40 35721 526 -3.6446150439288 101.89910242804
NTL001 NTL97 2018-01-21 12:54:25 35728 524 -3.6608806799606 101.93184806739
NTL001 NTL97 2018-01-21 12:54:10 35726 526 -3.6771683157011 101.96468603797
NTL001 NTL97 2018-01-21 12:53:55 35719 526 -3.6934056749087 101.99740620622
NTL001 NTL97 2018-01-21 12:53:40 35715 526 -3.7096570989237 102.03012852264
NTL001 NTL97 2018-01-21 12:53:25 35719 526 -3.7259939945928 102.06310190265
NTL001 NTL97 2018-01-21 12:53:10 35725 526 -3.7422580618556 102.09590688985
NTL001 NTL97 2018-01-21 12:52:55 35729 526 -3.7584684458151 102.1285230484
NTL001 NTL97 2018-01-21 12:52:40 35724 526 -3.7748371793304 102.16153651062
NTL001 NTL97 2018-01-21 12:52:25 35717 526 -3.7911270984124 102.19436158073
NTL001 NTL97 2018-01-21 12:52:10 35717 526 -3.8073858924014 102.22717240712
NTL001 NTL97 2018-01-21 12:51:55 35723 526 -3.8236322359922 102.25997838156
NTL001 NTL97 2018-01-21 12:51:40 35730 526 -3.8399278947338 102.29278226164
NTL001 NTL97 2018-01-21 12:51:25 35727 526 -3.8562206638503 102.3256121082
NTL001 NTL97 2018-01-21 12:51:10 35719 526 -3.8724553428144 102.35848653115
NTL001 NTL97 2018-01-21 12:50:55 35716 526 -3.888693445866 102.39137548139
NTL001 NTL97 2018-01-21 12:50:40 35722 526 -3.9049191470555 102.4242229382
NTL001 NTL97 2018-01-21 12:50:25 35729 526 -3.921136813845 102.45706106817
NTL001 NTL97 2018-01-21 12:50:10 35729 526 -3.9374066524746 102.49004827052
NTL001 NTL97 2018-01-21 12:49:55 35723 526 -3.9536453601128 102.52293480147
NTL001 NTL97 2018-01-21 12:49:40 35717 526 -3.9698968811015 102.55587598501
NTL001 NTL97 2018-01-21 12:49:25 35720 526 -3.9860673699097 102.58866357568
NTL001 NTL97 2018-01-21 12:49:10 35727 526 -4.0023171169212 102.62157998142
NTL001 NTL97 2018-01-21 12:48:55 35731 526 -4.0185676059629 102.65451451269
NTL001 NTL97 2018-01-21 12:48:40 35726 526 -4.0349223240671 102.68767499821
NTL001 NTL97 2018-01-21 12:48:25 35719 526 -4.0511074814888 102.72050597351
NTL001 NTL97 2018-01-21 12:48:10 35718 528 -4.0673649326721 102.75345322045
NTL001 NTL97 2018-01-21 12:47:55 35725 528 -4.0836349079386 102.78643045591
NTL001 NTL97 2018-01-21 12:47:40 35731 528 -4.0998956722225 102.8194408639
NTL001 NTL97 2018-01-21 12:47:25 35729 528 -4.1161386647915 102.85239642667
NTL001 NTL97 2018-01-21 12:47:10 35722 528 -4.1324299490164 102.88542558195
NTL001 NTL97 2018-01-21 12:46:55 35718 528 -4.1487111985058 102.91846292924
NTL001 NTL97 2018-01-21 12:46:41 35723 528 -4.1650036561926 102.95154708441
NTL001 NTL97 2018-01-21 12:46:25 35730 528 -4.1812447791819 102.98451119181
NTL001 NTL97 2018-01-21 12:46:10 35731 528 -4.1975422889421 103.01759298447
NTL001 NTL97 2018-01-21 12:45:55 35725 528 -4.2138282761668 103.0506465784
NTL001 NTL97 2018-01-21 12:45:40 35719 528 -4.2300742254703 103.08360654235
NTL001 NTL97 2018-01-21 12:45:25 35721 528 -4.2463370285616 103.11665429319
NTL001 NTL97 2018-01-21 12:45:10 35728 528 -4.2626060501669 103.14969883404
NTL001 NTL97 2018-01-21 12:44:55 35733 528 -4.2788646257431 103.18270381256
NTL001 NTL97 2018-01-21 12:44:40 35728 528 -4.2951774360913 103.21587281321
NTL001 NTL97 2018-01-21 12:44:25 35721 530 -4.3114810567454 103.24899682829
NTL001 NTL97 2018-01-21 12:44:10 35719 530 -4.3277587164726 103.28206057744
NTL001 NTL97 2018-01-21 12:43:55 35726 530 -4.3440654699499 103.31518085909
NTL001 NTL97 2018-01-21 12:43:40 35732 530 -4.3604204322241 103.34841130699
NTL001 NTL97 2018-01-21 12:43:25 35730 530 -4.3767461573344 103.38160883882
NTL001 NTL97 2018-01-21 12:43:10 35723 530 -4.3930540655749 103.4147783473
NTL001 NTL97 2018-01-21 12:42:55 35719 530 -4.4093993868052 103.44799008564
NTL001 NTL97 2018-01-21 12:42:40 35723 530 -4.4256367199042 103.48100531513
NTL001 NTL97 2018-01-21 12:42:25 35731 530 -4.4420167750664 103.51434609063
NTL001 NTL97 2018-01-21 12:42:10 35732 530 -4.4582398753673 103.54736542141
NTL001 NTL97 2018-01-21 12:41:55 35727 530 -4.4745919064009 103.58061402988
NTL001 NTL97 2018-01-21 12:41:40 35720 530 -4.4909037486512 103.61378570982
NTL001 NTL97 2018-01-21 12:41:25 35721 530 -4.5071680447093 103.64688961305
NTL001 NTL97 2018-01-21 12:41:10 35728 530 -4.5235176888879 103.68019950645
NTL001 NTL97 2018-01-21 12:40:55 35733 530 -4.5398281191183 103.71337332991
NTL001 NTL97 2018-01-21 12:40:40 35730 530 -4.5561833318522 103.74659120274
NTL001 NTL97 2018-01-21 12:40:25 35722 530 -4.5724643497154 103.77982402496
NTL001 NTL97 2018-01-21 12:40:10 35720 530 -4.5886451424865 103.81291393982
NTL001 NTL97 2018-01-21 12:39:55 35725 530 -4.6051008817021 103.84616924053
NTL001 NTL97 2018-01-21 12:39:40 35733 530 -4.6214592493611 103.87929777683
NTL001 NTL97 2018-01-21 12:39:25 35732 530 -4.6375161022084 103.91262798347
NTL001 NTL97 2018-01-21 12:39:10 35725 530 -4.6537744039035 103.94594928429
NTL001 NTL97 2018-01-21 12:38:55 35718 530 -4.6706345762414 103.97894419698
NTL001 NTL97 2018-01-21 12:38:40 35720 530 -4.6868084698473 104.01204219311
NTL001 NTL97 2018-01-21 12:38:25 35729 530 -4.7019652066057 104.04573908092
NTL001 NTL97 2018-01-21 12:38:10 35733 530 -4.7187512763518 104.07862766257
NTL001 NTL97 2018-01-21 12:37:55 35720 528 -4.737247504423 104.11058217663
NTL001 NTL97 2018-01-21 12:37:40 35742 524 -4.7514712580571 104.14462986926
NTL001 NTL97 2018-01-21 12:37:25 35728 520 -4.7625242178818 104.17930716147
NTL001 NTL97 2018-01-21 12:37:10 35719 522 -4.777919689729 104.21222398604
NTL001 NTL97 2018-01-21 12:36:55 35730 515 -4.7979346410757 104.24238352802
NTL001 NTL97 2018-01-21 12:36:40 35739 509 -4.8153477060805 104.27336299321
NTL001 NTL97 2018-01-21 12:36:25 35734 509 -4.8310331340927 104.30529449262
NTL001 NTL97 2018-01-21 12:36:10 35727 509 -4.8466612656164 104.33713433025
NTL001 NTL97 2018-01-21 12:35:55 35727 511 -4.86227321988 104.36906922821
NTL001 NTL97 2018-01-21 12:35:40 35732 511 -4.87796765841 104.4011235091
NTL001 NTL97 2018-01-21 12:35:25 35740 511 -4.8937341795199 104.43307857855
NTL001 NTL97 2018-01-21 12:35:10 35737 511 -4.9094442873658 104.46512234383
NTL001 NTL97 2018-01-21 12:34:55 35729 511 -4.9249324459553 104.49719172414
NTL001 NTL97 2018-01-21 12:34:40 35725 511 -4.9404249023256 104.52932781758
NTL001 NTL97 2018-01-21 12:34:25 35730 511 -4.9558337939765 104.56134380083
NTL001 NTL97 2018-01-21 12:34:10 35737 511 -4.9713438417299 104.59354407057
NTL001 NTL97 2018-01-21 12:33:55 35738 511 -4.9867307614597 104.62547603235
NTL001 NTL97 2018-01-21 12:33:40 35732 511 -5.0021938677328 104.65758616117
NTL001 NTL97 2018-01-21 12:33:25 35726 511 -5.0176974623113 104.68978444044
NTL001 NTL97 2018-01-21 12:33:10 35726 511 -5.0331568667738 104.72186248293
NTL001 NTL97 2018-01-21 12:32:55 35730 511 -5.0486205323037 104.75396177221
NTL001 NTL97 2018-01-21 12:32:40 35737 511 -5.0641253035396 104.78614251212
NTL001 NTL97 2018-01-21 12:32:25 35734 511 -5.0795672480466 104.81821407235
NTL001 NTL97 2018-01-21 12:32:10 35726 511 -5.0950845384887 104.85051386233
NTL001 NTL97 2018-01-21 12:31:55 35723 513 -5.1105155290028 104.88258301028
NTL001 NTL97 2018-01-21 12:31:40 35729 513 -5.1260373783713 104.91472848178
NTL001 NTL97 2018-01-21 12:31:25 35736 513 -5.1415265840596 104.94699711937
NTL001 NTL97 2018-01-21 12:31:10 35736 513 -5.1568983785375 104.97922125479
NTL001 NTL97 2018-01-21 12:30:55 35728 513 -5.1725014271662 105.01143194732
NTL001 NTL97 2018-01-21 12:30:40 35723 513 -5.1881734829523 105.04351725694
NTL001 NTL97 2018-01-21 12:30:25 35725 513 -5.2033949106679 105.07586618726
NTL001 NTL97 2018-01-21 12:30:10 35733 513 -5.2185347059497 105.10829707436
NTL001 NTL97 2018-01-21 12:29:55 35738 513 -5.23478094583 105.14029151585
NTL001 NTL97 2018-01-21 12:29:40 35733 513 -5.2508645081448 105.17221752004
NTL001 NTL97 2018-01-21 12:29:25 35726 513 -5.2644551974569 105.20519624555
NTL001 NTL97 2018-01-21 12:29:10 35723 513 -5.277022908149 105.23871249882
NTL001 NTL97 2018-01-21 12:28:55 35729 513 -5.2895967573682 105.27222632395
NTL001 NTL97 2018-01-21 12:28:40 35736 513 -5.3021852423572 105.30581818014
NTL001 NTL97 2018-01-21 12:28:25 35735 513 -5.3147484260924 105.33939642096
NTL001 NTL97 2018-01-21 12:28:10 35728 513 -5.3273541103896 105.37300844892
NTL001 NTL97 2018-01-21 12:27:55 35723 513 -5.3399382267083 105.40649084356
NTL001 NTL97 2018-01-21 12:27:40 35726 513 -5.3524831546558 105.44006418434
NTL001 NTL97 2018-01-21 12:27:25 35734 515 -5.3650638017243 105.47379523781
NTL001 NTL97 2018-01-21 12:27:10 35736 515 -5.3776289671258 105.50718154314
NTL001 NTL97 2018-01-21 12:26:54 35732 515 -5.3902625553506 105.54075683074
NTL001 NTL97 2018-01-21 12:26:40 35725 515 -5.4028062934814 105.57451813897
NTL001 NTL97 2018-01-21 12:26:25 35724 515 -5.4152384510602 105.60804492747
NTL001 NTL97 2018-01-21 12:26:09 35728 515 -5.4280196859223 105.64161196291
NTL001 NTL97 2018-01-21 12:25:54 35733 515 -5.4409283040159 105.67516570634
NTL001 NTL97 2018-01-21 12:25:39 35737 515 -5.4537858627984 105.70864368746
NTL001 NTL97 2018-01-21 12:25:24 35732 515 -5.4666498118814 105.7421500135
NTL001 NTL97 2018-01-21 12:25:09 35724 515 -5.4794914079834 105.77561691537
NTL001 NTL97 2018-01-21 12:24:54 35725 515 -5.4923210690573 105.80907217966
NTL001 NTL97 2018-01-21 12:24:39 35732 515 -5.5052296922492 105.84270857914
NTL001 NTL97 2018-01-21 12:24:24 35737 515 -5.5181373896753 105.87632954643
NTL001 NTL97 2018-01-21 12:24:09 35734 515 -5.5309690703453 105.90983240798
NTL001 NTL97 2018-01-21 12:23:54 35726 515 -5.5437637321674 105.94326366202
NTL001 NTL97 2018-01-21 12:23:39 35723 515 -5.5566284753791 105.9767532789
NTL001 NTL97 2018-01-21 12:23:24 35728 515 -5.5694757709308 106.01026666295
NTL001 NTL97 2018-01-21 12:23:09 35736 515 -5.5822986619014 106.04373329707
NTL001 NTL97 2018-01-21 12:22:54 35736 515 -5.5952150038698 106.07744623436
NTL001 NTL97 2018-01-21 12:22:39 35729 515 -5.6080521099627 106.11095793762
NTL001 NTL97 2018-01-21 12:22:24 35723 515 -5.6208739262433 106.14444434329
NTL001 NTL97 2018-01-21 12:22:09 35725 515 -5.6337037526374 106.17795829864
NTL001 NTL97 2018-01-21 12:21:54 35733 515 -5.6465768556385 106.21157291651
NTL001 NTL97 2018-01-21 12:21:39 35736 515 -5.6593708628706 106.24499525883
NTL001 NTL97 2018-01-21 12:21:24 35731 515 -5.6722274194707 106.27862466216
NTL001 NTL97 2018-01-21 12:21:09 35724 515 -5.6850522584754 106.31215768117
NTL001 NTL97 2018-01-21 12:20:54 35723 515 -5.6979018631257 106.34573851564
NTL001 NTL97 2018-01-21 12:20:39 35729 515 -5.7107316860896 106.37928558419
NTL001 NTL97 2018-01-21 12:20:24 35736 515 -5.7235541049336 106.41284673794
NTL001 NTL97 2018-01-21 12:20:09 35734 515 -5.7363586359701 106.44633563233
NTL001 NTL97 2018-01-21 12:19:54 35727 515 -5.7491805716 106.47982710205
NTL001 NTL97 2018-01-21 12:19:39 35722 515 -5.76198481967 106.51334441056
NTL001 NTL97 2018-01-21 12:19:24 35728 515 -5.7748470042574 106.54709078438
NTL001 NTL97 2018-01-21 12:19:09 35735 515 -5.7876733598871 106.58065917583
NTL001 NTL97 2018-01-21 12:18:54 35734 515 -5.8005381254225 106.61427898647
NTL001 NTL97 2018-01-21 12:18:39 35727 515 -5.8132970292703 106.64773506884
NTL001 NTL97 2018-01-21 12:18:24 35722 515 -5.826085476418 106.68136507133
NTL001 NTL97 2018-01-21 12:18:09 35725 515 -5.8390034198384 106.7150835737
NTL001 NTL97 2018-01-21 12:17:54 35732 515 -5.8518855281881 106.74859510223
NTL001 NTL97 2018-01-21 12:17:39 35735 515 -5.8646752970442 106.78235669058
NTL001 NTL97 2018-01-21 12:17:24 35731 515 -5.8773271032804 106.81591077456
NTL001 NTL97 2018-01-21 12:17:09 35723 515 -5.8903092072837 106.84946827356
NTL001 NTL97 2018-01-21 12:16:54 35722 515 -5.9033348488805 106.88295425296
NTL001 NTL97 2018-01-21 12:16:40 35730 515 -5.9158050462137 106.91684346375
NTL001 NTL97 2018-01-21 12:16:24 35736 515 -5.9282629128968 106.95053226114
NTL001 NTL97 2018-01-21 12:16:09 35733 515 -5.9420515240729 106.98388965908
NTL001 NTL97 2018-01-21 12:15:54 35725 515 -5.9551986454463 107.01736413629
NTL001 NTL97 2018-01-21 12:15:39 35722 515 -5.9655653699014 107.05180206555
NTL001 NTL97 2018-01-21 12:15:24 35729 515 -5.9749260465934 107.08651605429
NTL001 NTL97 2018-01-21 12:15:09 35736 515 -5.9842439482293 107.1211676134
NTL001 NTL97 2018-01-21 12:14:54 35733 515 -5.9935584883253 107.1558336328
NTL001 NTL97 2018-01-21 12:14:39 35724 515 -6.0029026802887 107.19056162331
NTL001 NTL97 2018-01-21 12:14:24 35721 515 -6.0122676818394 107.22543290206
NTL001 NTL97 2018-01-21 12:14:09 35728 515 -6.0215865242192 107.2601212578
NTL001 NTL97 2018-01-21 12:13:54 35735 515 -6.0308750961247 107.29470217069
NTL001 NTL97 2018-01-21 12:13:39 35735 515 -6.0402254137751 107.32950042048
NTL001 NTL97 2018-01-21 12:13:24 35725 515 -6.0495392109476 107.36415309107
NTL001 NTL97 2018-01-21 12:13:09 35723 515 -6.0588943786189 107.3989903966
NTL001 NTL97 2018-01-21 12:12:54 35723 515 -6.0682103781753 107.43369762073
NTL001 NTL97 2018-01-21 12:12:39 35733 515 -6.0775053402448 107.46839770198
NTL001 NTL97 2018-01-21 12:12:24 35734 515 -6.0868518027765 107.50318971137
NTL001 NTL97 2018-01-21 12:12:09 35728 515 -6.0962265805774 107.53815360311
NTL001 NTL97 2018-01-21 12:11:54 35724 515 -6.1054775773757 107.57276304375
NTL001 NTL97 2018-01-21 12:11:39 35724 517 -6.1148743245503 107.60777330131
NTL001 NTL97 2018-01-21 12:11:24 35733 517 -6.1242309126282 107.64254194113
NTL001 NTL97 2018-01-21 12:11:09 35735 517 -6.1335590257053 107.67732876169
NTL001 NTL97 2018-01-21 12:10:54 35729 517 -6.1428559576212 107.71211982485
NTL001 NTL97 2018-01-21 12:10:39 35722 517 -6.1521787141296 107.74699821435
NTL001 NTL97 2018-01-21 12:10:24 35723 517 -6.1615920192654 107.78198223802
NTL001 NTL97 2018-01-21 12:10:09 35729 517 -6.1709150959425 107.8167515553
NTL001 NTL97 2018-01-21 12:09:54 35735 517 -6.1801780130486 107.85179968435
NTL001 NTL97 2018-01-21 12:09:39 35731 517 -6.1894149792893 107.88648364511
NTL001 NTL97 2018-01-21 12:09:24 35725 517 -6.1989991152855 107.92152502564
NTL001 NTL97 2018-01-21 12:09:09 35721 517 -6.2083079310722 107.95626571755
NTL001 NTL97 2018-01-21 12:08:54 35726 517 -6.2172215332076 107.99144369469
NTL001 NTL97 2018-01-21 12:08:39 35734 517 -6.2261020306664 108.02641533201
NTL001 NTL97 2018-01-21 12:08:24 35732 515 -6.2347993566274 108.06134919587
NTL001 NTL97 2018-01-21 12:08:09 35727 515 -6.2432636931594 108.09631468628
NTL001 NTL97 2018-01-21 12:07:54 35720 515 -6.252166875638 108.13127456522
NTL001 NTL97 2018-01-21 12:07:39 35723 515 -6.2614603864183 108.16609109451
NTL001 NTL97 2018-01-21 12:07:24 35728 515 -6.2697490890398 108.20108486871
NTL001 NTL97 2018-01-21 12:07:09 35731 515 -6.2775590154023 108.2364703391
NTL001 NTL97 2018-01-21 12:06:54 35733 515 -6.2875061986089 108.27110722521
NTL001 NTL97 2018-01-21 12:06:39 35709 515 -6.2979697577444 108.3054382758
NTL001 NTL97 2018-01-21 12:06:24 35727 513 -6.3031098148612 108.34095692504
NTL001 NTL97 2018-01-21 12:06:09 35733 513 -6.304100231695 108.37676388156
NTL001 NTL97 2018-01-21 12:05:54 35731 513 -6.3040155035885 108.412617999
NTL001 NTL97 2018-01-21 12:05:39 35725 513 -6.303921196624 108.44835371833
NTL001 NTL97 2018-01-21 12:05:24 35722 511 -6.3038247595655 108.48407500613
NTL001 NTL97 2018-01-21 12:05:09 35728 511 -6.3037262347965 108.52005327493
NTL001 NTL97 2018-01-21 12:04:54 35735 511 -6.3036231460751 108.5558707681
NTL001 NTL97 2018-01-21 12:04:39 35734 511 -6.3035162032916 108.59161512977
NTL001 NTL97 2018-01-21 12:04:24 35726 511 -6.3034111876649 108.62731428034
NTL001 NTL97 2018-01-21 12:04:09 35721 511 -6.303298899964 108.66297311827
NTL001 NTL97 2018-01-21 12:03:54 35724 511 -6.3031842387637 108.69877350694
NTL001 NTL97 2018-01-21 12:03:39 35732 511 -6.3030792847534 108.73451391651
NTL001 NTL97 2018-01-21 12:03:24 35734 511 -6.302966150022 108.77029400654
NTL001 NTL97 2018-01-21 12:03:09 35728 511 -6.3028310932113 108.80619593773
NTL001 NTL97 2018-01-21 12:02:54 35721 511 -6.3027085103819 108.84184335073
NTL001 NTL97 2018-01-21 12:02:39 35721 511 -6.302602194563 108.87768821799
NTL001 NTL97 2018-01-21 12:02:24 35728 511 -6.3024768429372 108.91327510801
NTL001 NTL97 2018-01-21 12:02:09 35733 511 -6.3023457758304 108.94918585796
NTL001 NTL97 2018-01-21 12:01:54 35729 511 -6.3022209712328 108.98490795654
NTL001 NTL97 2018-01-21 12:01:39 35722 511 -6.3020908696813 109.02046277669
NTL001 NTL97 2018-01-21 12:01:24 35718 511 -6.3019393477594 109.05640903531
NTL001 NTL97 2018-01-21 12:01:09 35724 511 -6.3017918113287 109.09212846696
NTL001 NTL97 2018-01-21 12:00:54 35731 511 -6.3016464915949 109.12770656308
NTL001 NTL97 2018-01-21 12:00:39 35729 511 -6.3015148195838 109.16366541841
NTL001 NTL97 2018-01-21 12:00:24 35724 511 -6.3013855159199 109.19932389188
NTL001 NTL97 2018-01-21 12:00:09 35716 511 -6.3012495835155 109.23497775084
NTL001 NTL97 2018-01-21 11:59:54 35717 511 -6.3010671685389 109.27073110312
NTL001 NTL97 2018-01-21 11:59:39 35725 511 -6.3008979431976 109.30654820723
NTL001 NTL97 2018-01-21 11:59:24 35728 511 -6.3008178622852 109.34219089922
NTL001 NTL97 2018-01-21 11:59:09 35720 511 -6.3007645009482 109.37788682479
NTL001 NTL97 2018-01-21 11:58:54 35714 511 -6.3007168694784 109.4136259669
NTL001 NTL97 2018-01-21 11:58:39 35709 511 -6.3006444141486 109.44945823147
NTL001 NTL97 2018-01-21 11:58:24 35719 511 -6.3005819953672 109.48516682567
NTL001 NTL97 2018-01-21 11:58:09 35724 511 -6.3005128622455 109.52085317449
NTL001 NTL97 2018-01-21 11:57:54 35721 511 -6.3004608888406 109.55654490662
NTL001 NTL97 2018-01-21 11:57:39 35713 511 -6.3004108034592 109.59238948738
NTL001 NTL97 2018-01-21 11:57:24 35709 511 -6.3003458192168 109.62816351573
NTL001 NTL97 2018-01-21 11:57:09 35713 511 -6.3002800925144 109.66384783712
NTL001 NTL97 2018-01-21 11:56:54 35720 511 -6.3001987827398 109.69971049847
NTL001 NTL97 2018-01-21 11:56:39 35720 511 -6.3001157336181 109.73544693356
NTL001 NTL97 2018-01-21 11:56:24 35714 511 -6.3000371287611 109.77133634273
NTL001 NTL97 2018-01-21 11:56:09 35707 511 -6.2999560580142 109.80715691847
NTL001 NTL97 2018-01-21 11:55:54 35707 511 -6.2998747027945 109.84283575329
NTL001 NTL97 2018-01-21 11:55:39 35714 511 -6.2997889611173 109.87854337734
NTL001 NTL97 2018-01-21 11:55:24 35718 511 -6.2996956802103 109.91441939781
NTL001 NTL97 2018-01-21 11:55:09 35714 511 -6.2996094502394 109.95023031289
NTL001 NTL97 2018-01-21 11:54:54 35706 511 -6.2995292522404 109.98603640931
NTL001 NTL97 2018-01-21 11:54:39 35703 511 -6.2994347273424 110.02184995554
NTL001 NTL97 2018-01-21 11:54:24 35708 511 -6.2993271153931 110.05764713379
NTL001 NTL97 2018-01-21 11:54:09 35714 511 -6.29923173144 110.09336427096
NTL001 NTL97 2018-01-21 11:53:54 35713 511 -6.2991504049513 110.12919282055
NTL001 NTL97 2018-01-21 11:53:39 35706 511 -6.2990312969229 110.1648109634
NTL001 NTL97 2018-01-21 11:53:24 35700 511 -6.2988833118968 110.20065035566
NTL001 NTL97 2018-01-21 11:53:09 35701 511 -6.2988008108348 110.23634362859
NTL001 NTL97 2018-01-21 11:52:54 35707 511 -6.2986944201404 110.27201083503
NTL001 NTL97 2018-01-21 11:52:39 35712 511 -6.2985696995734 110.30783878779
NTL001 NTL97 2018-01-21 11:52:24 35708 511 -6.2984535418935 110.34359040946
NTL001 NTL97 2018-01-21 11:52:09 35700 511 -6.2983570460145 110.37926079093
NTL001 NTL97 2018-01-21 11:51:54 35696 511 -6.2982590619611 110.41494683373
NTL001 NTL97 2018-01-21 11:51:39 35701 511 -6.2981480724495 110.45075665843
NTL001 NTL97 2018-01-21 11:51:24 35709 511 -6.2980384545029 110.4863483259
NTL001 NTL97 2018-01-21 11:51:08 35708 509 -6.2979378203883 110.52220169305
NTL001 NTL97 2018-01-21 11:50:53 35703 509 -6.297816898515 110.55779573565
NTL001 NTL97 2018-01-21 11:50:39 35695 509 -6.2976601355694 110.59348827968
NTL001 NTL97 2018-01-21 11:50:23 35696 509 -6.2975507195719 110.62908092493
NTL001 NTL97 2018-01-21 11:50:08 35701 509 -6.2975129124762 110.66462862729
NTL001 NTL97 2018-01-21 11:49:53 35703 509 -6.2974181709641 110.70026865853
NTL001 NTL97 2018-01-21 11:49:38 35701 509 -6.2971059693655 110.73586709596
NTL001 NTL97 2018-01-21 11:49:23 35694 509 -6.2969899850259 110.77152383246
NTL001 NTL97 2018-01-21 11:49:08 35687 507 -6.297352987125 110.80701935867
NTL001 NTL97 2018-01-21 11:48:53 35690 507 -6.2970937916856 110.84252877772
NTL001 NTL97 2018-01-21 11:48:39 35698 507 -6.2958964560803 110.87801688687
NTL001 NTL97 2018-01-21 11:48:23 35705 507 -6.2963411054669 110.91345818737
NTL001 NTL97 2018-01-21 11:48:08 35692 507 -6.2983881962427 110.94869567898
NTL001 NTL97 2018-01-21 11:47:53 35705 507 -6.2960567104928 110.98405718219
NTL001 NTL97 2018-01-21 11:47:38 35683 505 -6.2912799931706 111.01908422443
NTL001 NTL97 2018-01-21 11:47:23 35688 505 -6.2926393659957 111.05428313912
NTL001 NTL97 2018-01-21 11:47:08 35713 505 -6.3007790812099 111.08865583075
NTL001 NTL97 2018-01-21 11:46:53 35686 505 -6.3120703709623 111.12202855956
NTL001 NTL97 2018-01-21 11:46:38 35695 507 -6.3286149798143 111.1534929752
NTL001 NTL97 2018-01-21 11:46:23 35687 507 -6.3473714927038 111.18334963446
NTL001 NTL97 2018-01-21 11:46:08 35682 507 -6.3662543405938 111.21338834123
NTL001 NTL97 2018-01-21 11:45:53 35687 507 -6.3851106807872 111.2433890087
NTL001 NTL97 2018-01-21 11:45:38 35694 507 -6.403941487776 111.27335443623
NTL001 NTL97 2018-01-21 11:45:23 35694 507 -6.422793977616 111.30338794057
NTL001 NTL97 2018-01-21 11:45:08 35687 507 -6.4415611264309 111.33329925763
NTL001 NTL97 2018-01-21 11:44:53 35680 507 -6.4603906125747 111.36331878685
NTL001 NTL97 2018-01-21 11:44:38 35681 507 -6.4792906769112 111.39339289804
NTL001 NTL97 2018-01-21 11:44:23 35689 507 -6.4980856372396 111.4232812661
NTL001 NTL97 2018-01-21 11:44:08 35691 507 -6.5168680929716 111.45330043059
NTL001 NTL97 2018-01-21 11:43:53 35687 507 -6.5356548207948 111.48334052287
NTL001 NTL97 2018-01-21 11:43:38 35679 507 -6.5544952393439 111.51314522397
NTL001 NTL97 2018-01-21 11:43:23 35675 507 -6.5734079748261 111.54314700437
NTL001 NTL97 2018-01-21 11:43:08 35682 505 -6.5919111097717 111.57317785301
NTL001 NTL97 2018-01-21 11:42:53 35689 507 -6.6106496393555 111.60314510714
NTL001 NTL97 2018-01-21 11:42:38 35687 507 -6.6299174007554 111.63267022535
NTL001 NTL97 2018-01-21 11:42:23 35681 507 -6.6493139673533 111.6622638022
NTL001 NTL97 2018-01-21 11:42:08 35674 507 -6.6687845560336 111.69196153101
NTL001 NTL97 2018-01-21 11:41:53 35675 507 -6.6881632023734 111.7215104139
NTL001 NTL97 2018-01-21 11:41:38 35682 507 -6.7075012219701 111.75103698399
NTL001 NTL97 2018-01-21 11:41:23 35685 507 -6.7268623542706 111.78062435675
NTL001 NTL97 2018-01-21 11:41:08 35681 505 -6.7463667087732 111.81040274586
NTL001 NTL97 2018-01-21 11:40:53 35674 505 -6.7656429647414 111.83983019857
NTL001 NTL97 2018-01-21 11:40:38 35670 505 -6.7850806445257 111.86950594775
NTL001 NTL97 2018-01-21 11:40:23 35675 505 -6.804436300233 111.89907956863
NTL001 NTL97 2018-01-21 11:40:08 35683 505 -6.8237635535712 111.92861631322
NTL001 NTL97 2018-01-21 11:39:53 35683 505 -6.8430735006744 111.95809672232
NTL001 NTL97 2018-01-21 11:39:38 35676 505 -6.8623186831854 111.98747699207
NTL001 NTL97 2018-01-21 11:39:23 35669 505 -6.8817041485672 112.01711294326
NTL001 NTL97 2018-01-21 11:39:08 35669 505 -6.9009539238549 112.04656202103
NTL001 NTL97 2018-01-21 11:38:53 35676 505 -6.9203067593064 112.07616384092
NTL001 NTL97 2018-01-21 11:38:38 35681 505 -6.9394854285502 112.10551151426
NTL001 NTL97 2018-01-21 11:38:23 35676 505 -6.9589167661039 112.13517609907
NTL001 NTL97 2018-01-21 11:38:08 35671 505 -6.9781563132611 112.16458023265
NTL001 NTL97 2018-01-21 11:37:53 35666 505 -6.997476425246 112.19414597973
NTL001 NTL97 2018-01-21 11:37:38 35669 505 -7.0166823566488 112.22359177543
NTL001 NTL97 2018-01-21 11:37:23 35676 505 -7.0360079644595 112.25319468336
NTL001 NTL97 2018-01-21 11:37:08 35678 503 -7.0552505910223 112.28257995474
NTL001 NTL97 2018-01-21 11:36:53 35673 503 -7.074529166208 112.31206277788
NTL001 NTL97 2018-01-21 11:36:38 35667 503 -7.0938687395396 112.34179972846
NTL001 NTL97 2018-01-21 11:36:23 35666 503 -7.1130939732949 112.37125660278
NTL001 NTL97 2018-01-21 11:36:08 35673 503 -7.1323826955613 112.40074951953
NTL001 NTL97 2018-01-21 11:35:53 35677 503 -7.1516602935962 112.43028904236
NTL001 NTL97 2018-01-21 11:35:38 35674 503 -7.1708325707366 112.45965793456
NTL001 NTL97 2018-01-21 11:35:23 35667 503 -7.1900938844158 112.48914438439
NTL001 NTL97 2018-01-21 11:35:08 35665 503 -7.2094674874291 112.51881475889
NTL001 NTL97 2018-01-21 11:34:53 35669 503 -7.2285437556112 112.54815828552
NTL001 NTL97 2018-01-21 11:34:39 35674 503 -7.2477274304423 112.57768953736
NTL001 NTL97 2018-01-21 11:34:23 35673 503 -7.2671193557376 112.60723785854
NTL001 NTL97 2018-01-21 11:34:08 35670 503 -7.2864154741644 112.63665403397
NTL001 NTL97 2018-01-21 11:33:53 35668 503 -7.3053878838033 112.66626913094
NTL001 NTL97 2018-01-21 11:33:38 35668 503 -7.3244071836929 112.69572528532
NTL001 NTL97 2018-01-21 11:33:23 35671 503 -7.3442385199082 112.72494664768
NTL001 NTL97 2018-01-21 11:33:08 35673 503 -7.3635484684387 112.75432465911
NTL001 NTL97 2018-01-21 11:32:53 35672 503 -7.3813017222902 112.78466101789
NTL001 NTL97 2018-01-21 11:32:38 35667 503 -7.3995732838623 112.81559556722
NTL001 NTL97 2018-01-21 11:32:23 35658 503 -7.4176245078704 112.84525575888
NTL001 NTL97 2018-01-21 11:32:08 35584 501 -7.4342981750862 112.87610342238
NTL001 NTL97 2018-01-21 11:31:53 35363 499 -7.4504672822828 112.90695692503
NTL001 NTL97 2018-01-21 11:31:38 34964 499 -7.4704502148727 112.93578238962
NTL001 NTL97 2018-01-21 11:31:23 34167 509 -7.4903782446571 112.96475439614
NTL001 NTL97 2018-01-21 11:31:08 33604 513 -7.5053813389593 112.99728829077
NTL001 NTL97 2018-01-21 11:30:53 33671 509 -7.5226037486479 113.02868033533
NTL001 NTL97 2018-01-21 11:30:38 33675 509 -7.5404253043045 113.05956980392
NTL001 NTL97 2018-01-21 11:30:23 33673 509 -7.5582401919356 113.09044823557
NTL001 NTL97 2018-01-21 11:30:08 33670 509 -7.5759510906328 113.12116875052
NTL001 NTL97 2018-01-21 11:29:53 33670 509 -7.5938499798634 113.15222071286
NTL001 NTL97 2018-01-21 11:29:38 33672 507 -7.611623665009 113.18302452054
NTL001 NTL97 2018-01-21 11:29:23 33675 505 -7.6292539537821 113.2136028303
NTL001 NTL97 2018-01-21 11:29:08 33675 503 -7.6469001246792 113.24429008324
NTL001 NTL97 2018-01-21 11:28:53 33668 497 -7.6643557121919 113.27459095977
NTL001 NTL97 2018-01-21 11:28:38 33633 491 -7.6817072027854 113.30467197744
NTL001 NTL97 2018-01-21 11:28:23 33464 491 -7.6988078839198 113.33437792465
NTL001 NTL97 2018-01-21 11:28:08 33150 489 -7.7159802359322 113.36419302006
NTL001 NTL97 2018-01-21 11:27:53 32663 491 -7.7331567281872 113.39404385266
NTL001 NTL97 2018-01-21 11:27:38 32142 493 -7.7504084223935 113.42401192468
NTL001 NTL97 2018-01-21 11:27:23 31674 495 -7.7676498260482 113.45396555483
NTL001 NTL97 2018-01-21 11:27:08 31288 493 -7.784918276491 113.48398826176
NTL001 NTL97 2018-01-21 11:26:53 30830 493 -7.8021421521967 113.51394056972
NTL001 NTL97 2018-01-21 11:26:38 30178 497 -7.8194655394288 113.54406405286
NTL001 NTL97 2018-01-21 11:26:23 29529 501 -7.8368700754608 113.57431795951
NTL001 NTL97 2018-01-21 11:26:08 29110 499 -7.8543720253582 113.60476215732
NTL001 NTL97 2018-01-21 11:25:53 28780 495 -7.8716472789989 113.63487294784
NTL001 NTL97 2018-01-21 11:25:38 28316 493 -7.8888974808234 113.66491741171
NTL001 NTL97 2018-01-21 11:25:23 27923 489 -7.9060623934924 113.69467205688
NTL001 NTL97 2018-01-21 11:25:08 27589 485 -7.9231749510081 113.72444784157
NTL001 NTL97 2018-01-21 11:24:53 27149 484 -7.9399308610485 113.75388022181
NTL001 NTL97 2018-01-21 11:24:38 26729 482 -7.9567990027175 113.78320031817
NTL001 NTL97 2018-01-21 11:24:23 26394 478 -7.9737221246187 113.81217634476
NTL001 NTL97 2018-01-21 11:24:08 25983 474 -7.9902253645368 113.84127817316
NTL001 NTL97 2018-01-21 11:23:53 25546 472 -8.0063195801375 113.87023487339
NTL001 NTL97 2018-01-21 11:23:38 25169 468 -8.0232230682313 113.89863309989
NTL001 NTL97 2018-01-21 11:23:23 24783 466 -8.0404670133988 113.92658107137
NTL001 NTL97 2018-01-21 11:23:08 24355 462 -8.0575376515326 113.95423749246
NTL001 NTL97 2018-01-21 11:22:53 23936 460 -8.0744376745713 113.98162756634
NTL001 NTL97 2018-01-21 11:22:38 23531 456 -8.0913661885705 114.00910044885
NTL001 NTL97 2018-01-21 11:22:23 23129 452 -8.1080268628531 114.03613335846
NTL001 NTL97 2018-01-21 11:22:08 22718 449 -8.1246523541908 114.06308696807
NTL001 NTL97 2018-01-21 11:21:53 22285 445 -8.1410743091205 114.08969282857
NTL001 NTL97 2018-01-21 11:21:38 21859 443 -8.1574631698666 114.11626696471
NTL001 NTL97 2018-01-21 11:21:23 21451 437 -8.1735918191687 114.1425255941
NTL001 NTL97 2018-01-21 11:21:08 20987 435 -8.1895694826842 114.16850530268
NTL001 NTL97 2018-01-21 11:20:53 20540 431 -8.205603661246 114.19439787099
NTL001 NTL97 2018-01-21 11:20:38 20140 427 -8.2214036756787 114.22009331376
NTL001 NTL97 2018-01-21 11:20:23 19682 423 -8.2370192411543 114.24557022612
NTL001 NTL97 2018-01-21 11:20:08 19168 421 -8.2525185707614 114.27066501125
NTL001 NTL97 2018-01-21 11:19:53 18771 417 -8.2679890328342 114.29581400292
NTL001 NTL97 2018-01-21 11:19:38 18342 412 -8.2831584436044 114.32052710944
NTL001 NTL97 2018-01-21 11:19:23 17774 410 -8.2982932391776 114.34507244568
NTL001 NTL97 2018-01-21 11:19:08 17249 408 -8.3133996480733 114.36960353266
NTL001 NTL97 2018-01-21 11:18:53 16808 404 -8.3283053332982 114.3938133428
NTL001 NTL97 2018-01-21 11:18:38 16285 400 -8.3430874276405 114.41783193624
NTL001 NTL97 2018-01-21 11:18:23 15748 398 -8.3577215710292 114.44166336676
NTL001 NTL97 2018-01-21 11:18:08 15272 394 -8.3722731480089 114.46533456953
NTL001 NTL97 2018-01-21 11:17:53 14763 390 -8.3866935399974 114.48878532077
NTL001 NTL97 2018-01-21 11:17:38 14161 388 -8.4010100379877 114.51209750399
NTL001 NTL97 2018-01-21 11:17:23 13617 386 -8.415187324058 114.53517963504
NTL001 NTL97 2018-01-21 11:17:08 13133 380 -8.4293267167221 114.55817820376
NTL001 NTL97 2018-01-21 11:16:53 12605 377 -8.4432322731871 114.58081469151
NTL001 NTL97 2018-01-21 11:16:38 11896 377 -8.4570463409487 114.60331449716
NTL001 NTL97 2018-01-21 11:16:23 11315 375 -8.4708864202346 114.62584708921
NTL001 NTL97 2018-01-21 11:16:08 11003 361 -8.4843699834533 114.64782052461
NTL001 NTL97 2018-01-21 11:15:52 10746 346 -8.4974292681909 114.6690997912
NTL001 NTL97 2018-01-21 11:15:38 10614 326 -8.5097185743387 114.68912221327
NTL001 NTL97 2018-01-21 11:15:22 10448 303 -8.5213248596888 114.70801350366
NTL001 NTL97 2018-01-21 11:15:08 10121 285 -8.5321125622113 114.72561273948
NTL001 NTL97 2018-01-21 11:14:52 9361 281 -8.5424488758772 114.74253712047
NTL001 NTL97 2018-01-21 11:14:37 8546 281 -8.5529607558588 114.75934089794
NTL001 NTL97 2018-01-21 11:14:22 7860 276 -8.5632142876538 114.77610442338
NTL001 NTL97 2018-01-21 11:14:07 7258 264 -8.5709379044487 114.79341525756
NTL001 NTL97 2018-01-21 11:13:52 6289 266 -8.5771439090385 114.81088954896
NTL001 NTL97 2018-01-21 11:13:37 5605 268 -8.5864815997995 114.82697375447
NTL001 NTL97 2018-01-21 11:13:22 5496 270 -8.6021421808455 114.83735150552
NTL001 NTL97 2018-01-21 11:13:07 5489 270 -8.6185020343502 114.8469371443
NTL001 NTL97 2018-01-21 11:12:52 5480 270 -8.6348161049657 114.85654903937
NTL001 NTL97 2018-01-21 11:12:37 5471 270 -8.6511412994362 114.86612292474
NTL001 NTL97 2018-01-21 11:12:22 5465 272 -8.667448143473 114.87560315977
NTL001 NTL97 2018-01-21 11:12:07 5379 272 -8.6836692905141 114.8853896783
NTL001 NTL97 2018-01-21 11:11:52 5155 274 -8.6995100734621 114.89603873752
NTL001 NTL97 2018-01-21 11:11:37 4604 277 -8.7171277315805 114.90393670192
NTL001 NTL97 2018-01-21 11:11:22 3463 283 -8.7348137502722 114.91212196636
NTL001 NTL97 2018-01-21 11:11:07 2960 268 -8.7455350716268 114.92812272963
NTL001 NTL97 2018-01-21 11:10:53 3004 254 -8.7470288271172 114.94617346648
NTL001 NTL97 2018-01-21 11:10:37 3009 254 -8.7472054354401 114.96416838633
NTL001 NTL97 2018-01-21 11:10:22 3000 254 -8.7474043817439 114.98221204226
NTL001 NTL97 2018-01-21 11:10:07 2986 256 -8.7475879615627 115.00009000608
NTL001 NTL97 2018-01-21 11:09:52 2985 254 -8.7477619908815 115.01808495389
NTL001 NTL97 2018-01-21 11:09:37 2991 252 -8.7479290237213 115.03606773782
NTL001 NTL97 2018-01-21 11:09:22 2984 239 -8.7480828638746 115.05334283781
NTL001 NTL97 2018-01-21 11:09:07 2971 235 -8.7482514697537 115.07005277303
NTL001 NTL97 2018-01-21 11:08:52 2835 225 -8.7484229397238 115.0863260586
NTL001 NTL97 2018-01-21 11:08:37 2551 206 -8.7485902178699 115.10151788392
NTL001 NTL97 2018-01-21 11:08:22 2265 186 -8.7487828697024 115.11547075375
NTL001 NTL97 2018-01-21 11:08:07 1883 169 -8.749093133567 115.12788512819
NTL001 NTL97 2018-01-21 11:07:52 1128 171 -8.7495074614133 115.13989666043
NTL001 NTL97 2018-01-21 11:07:37 293 176 -8.7490369068049 115.15202688145
NTL001 NTL97 2018-01-21 11:07:22 27 155 -8.7485119709076 115.16415229246
NTL001 NTL97 2018-01-21 11:07:07 27 106 -8.7481115113682 115.17345788448
NTL001 NTL97 2018-01-21 11:06:52 27 42 -8.7479029945397 115.17888288845
NTL001 NTL97 2018-01-21 11:06:37 27 7 -8.7478519904561 115.1803719842
NTL001 NTL97 2018-01-21 11:06:22 27 0 -8.7478414262544 115.18061899973
NTL001 NTL97 2018-01-21 11:06:07 27 0 -8.7478413856235 115.18061966783
NTL001 NTL97 2018-01-21 11:05:52 27 7 -8.7477418459878 115.1808889537
NTL001 NTL97 2018-01-21 11:05:37 27 7 -8.7470157725995 115.1809370461
NTL001 NTL97 2018-01-21 11:05:22 27 0 -8.7467014967475 115.18090176917
NTL001 NTL97 2018-01-21 11:05:07 27 0 -8.7466757976757 115.18089823527
NTL001 NTL97 2018-01-21 11:04:52 27 0 -8.7466753014483 115.18089816695
NTL001 NTL97 2018-01-21 11:04:37 27 0 -8.7466748006493 115.18089809801
NTL001 NTL97 2018-01-21 11:04:22 27 0 -8.7466743026891 115.18089802945
NTL001 NTL97 2018-01-21 11:04:07 27 0 -8.7466737997801 115.18089796021
NTL001 NTL97 2018-01-21 11:03:52 27 7 -8.7464479125377 115.18081095609
NTL001 NTL97 2018-01-21 11:03:37 27 13 -8.7462592739252 115.18000882442
NTL001 NTL97 2018-01-21 11:03:22 27 11 -8.7463085534776 115.17901026594
NTL001 NTL97 2018-01-21 11:03:07 27 11 -8.7463444461236 115.17814170547
NTL001 NTL97 2018-01-21 11:02:52 27 13 -8.7463746619931 115.17724272429
NTL001 NTL97 2018-01-21 11:02:37 27 17 -8.746417369392 115.17611602021
NTL001 NTL97 2018-01-21 11:02:22 27 19 -8.7464843709458 115.17473906028
NTL001 NTL97 2018-01-21 11:02:07 27 19 -8.7465461156721 115.17321359477
NTL001 NTL97 2018-01-21 11:01:52 27 15 -8.7465922818146 115.17191661857
NTL001 NTL97 2018-01-21 11:01:37 27 9 -8.7466311076117 115.17093296135
NTL001 NTL97 2018-01-21 11:01:22 27 3 -8.7466569491407 115.17031953467
NTL001 NTL97 2018-01-21 11:01:07 27 0 -8.7466658254356 115.17012123238
NTL001 NTL97 2018-01-21 11:00:52 27 0 -8.7466660114597 115.17011721625
NTL001 NTL97 2018-01-21 11:00:37 27 0 -8.7466660114597 115.17011721625
NTL001 NTL97 2018-01-21 11:00:22 27 0 -8.7466660114597 115.17011721625
NTL001 NTL97 2018-01-21 11:00:07 27 0 -8.7466660114597 115.17011721625
NTL001 NTL97 2018-01-21 10:59:52 27 0 -8.7466660114597 115.17011721625
NTL001 NTL97 2018-01-21 10:59:37 27 0 -8.7466660114597 115.17011721625
NTL001 NTL97 2018-01-21 10:59:22 27 0 -8.7466660114597 115.17011721625
NTL001 NTL97 2018-01-21 10:59:07 27 0 -8.7466660114597 115.17011721625
NTL001 NTL97 2018-01-21 10:58:52 27 0 -8.7466660114597 115.17011721625
NTL001 NTL97 2018-01-21 10:58:37 27 0 -8.7466660114597 115.17011721625
NTL001 NTL97 2018-01-21 10:58:22 27 0 -8.7466660114597 115.17011721625
NTL001 NTL97 2018-01-21 10:58:07 27 0 -8.746659787843 115.170251811
NTL001 NTL97 2018-01-21 10:57:52 27 1 -8.7466498374886 115.17040318383
NTL001 NTL97 2018-01-21 10:57:37 27 1 -8.7466033492076 115.17052899397
NTL001 NTL97 2018-01-21 10:57:22 27 1 -8.7465110380638 115.1706252122
NTL001 NTL97 2018-01-21 10:57:07 27 1 -8.7463834658077 115.17068310015
NTL001 NTL97 2018-01-21 10:56:52 27 1 -8.7462377008319 115.17069975993
NTL001 NTL97 2018-01-21 10:56:37 27 1 -8.7460787579769 115.17069336968
NTL001 NTL97 2018-01-21 10:56:22 27 1 -8.7459161226679 115.17068691856
NTL001 NTL97 2018-01-21 10:56:07 27 1 -8.7457531179862 115.17068045278
NTL001 NTL97 2018-01-21 10:55:52 27 1 -8.7455895613857 115.17067396511
NTL001 NTL97 2018-01-21 10:55:37 27 0 -8.7454485163708 115.1706683704
NTL001 NTL97 2018-01-21 10:55:22 27 0 -8.7454363705102 115.17066788861
NTL001 NTL97 2018-01-21 10:55:07 27 0 -8.7454363705102 115.17066788861
NTL001 NTL97 2018-01-21 10:54:52 27 0 -8.7454363705102 115.17066788861
NTL001 NTL97 2018-01-21 10:54:37 27 0 -8.7454363705102 115.17066788861
NTL001 NTL97 2018-01-21 10:54:22 27 0 -8.7454363705102 115.17066788861
NTL001 NTL97 2018-01-21 10:54:07 27 0 -8.7454363705102 115.17066788861
NTL001 NTL97 2018-01-21 10:53:52 27 0 -8.7454363705102 115.17066788861
NTL001 NTL97 2018-01-21 10:53:37 27 0 -8.7454363705102 115.17066788861
NTL001 NTL97 2018-01-21 10:53:22 27 0 -8.7454363705102 115.17066788861
NTL001 NTL97 2018-01-21 10:53:07 27 0 -8.7454363705102 115.17066788861
NTL001 NTL97 2018-01-21 10:52:52 27 0 -8.7454363705102 115.17066788861
NTL001 NTL97 2018-01-21 10:52:37 27 0 -8.7454363705102 115.17066788861
NTL001 NTL97 2018-01-21 10:52:22 27 0 -8.7454363705102 115.17066788861
NTL001 NTL97 2018-01-21 10:52:07 27 0 -8.7454363705102 115.17066788861
NTL001 NTL97 2018-01-21 10:51:52 27 0 -8.7454363705102 115.17066788861
NTL001 NTL97 2018-01-21 10:51:37 27 0 -8.7454363705102 115.17066788861
NTL001 NTL97 2018-01-21 10:51:22 27 0 -8.7454363705102 115.17066788861
NTL001 NTL97 2018-01-21 10:51:07 27 0 -8.7454363705102 115.17066788861
NTL001 NTL97 2018-01-21 10:50:52 27 0 -8.7454363705102 115.17066788861
NTL001 NTL97 2018-01-21 10:50:37 27 0 -8.7454363705102 115.17066788861
NTL001 NTL97 2018-01-21 10:50:22 27 0 -8.7454363705102 115.17066788861
NTL001 NTL97 2018-01-21 10:50:07 27 0 -8.7454363705102 115.17066788861
NTL001 NTL97 2018-01-21 10:49:52 27 0 -8.7454363705102 115.17066788861
NTL001 NTL97 2018-01-21 10:49:37 27 0 -8.7454363705102 115.17066788861
NTL001 NTL97 2018-01-21 10:49:22 27 0 -8.7454363705102 115.17066788861
NTL001 NTL97 2018-01-21 10:49:07 27 0 -8.7454363705102 115.17066788861
NTL001 NTL97 2018-01-21 10:48:52 27 0 -8.7454363705102 115.17066788861
NTL001 NTL97 2018-01-21 10:48:38 27 0 -8.7454363705102 115.17066788861
NTL001 NTL97 2018-01-21 10:48:22 27 0 -8.7454363705102 115.17066788861
NTL001 NTL97 2018-01-21 10:48:07 27 0 -8.7454363705102 115.17066788861
NTL001 NTL97 2018-01-21 10:47:52 27 0 -8.7454363705102 115.17066788861
NTL001 NTL97 2018-01-21 10:47:37 27 0 -8.7454363705102 115.17066788861
NTL001 NTL97 2018-01-21 10:47:22 27 0 -8.7454363705102 115.17066788861
NTL001 NTL97 2018-01-21 10:47:07 27 0 -8.7454363705102 115.17066788861
NTL001 NTL97 2018-01-21 10:46:52 27 0 -8.7454363705102 115.17066788861
NTL001 NTL97 2018-01-21 10:46:37 27 0 -8.7454363705102 115.17066788861
NTL001 NTL97 2018-01-21 10:46:22 27 0 -8.7454363705102 115.17066788861
NTL001 NTL97 2018-01-21 10:46:07 27 0 -8.7454363705102 115.17066788861
NTL001 NTL97 2018-01-21 10:45:52 27 0 -8.7454363705102 115.17066788861
NTL001 NTL97 2018-01-21 10:45:37 27 0 -8.7454363705102 115.17066788861
NTL001 NTL97 2018-01-21 10:45:22 27 0 -8.7454363705102 115.17066788861
NTL001 NTL97 2018-01-21 10:45:07 27 0 -8.7454363705102 115.17066788861
NTL001 NTL97 2018-01-21 10:44:52 27 0 -8.7454363705102 115.17066788861
NTL001 NTL97 2018-01-21 10:44:37 27 0 -8.7454363705102 115.17066788861
NTL001 NTL97 2018-01-21 10:44:22 27 0 -8.7454363705102 115.17066788861
NTL001 NTL97 2018-01-21 10:44:07 27 0 -8.7454363705102 115.17066788861
NTL001 NTL97 2018-01-21 10:43:52 27 0 -8.7454363705102 115.17066788861
NTL001 NTL97 2018-01-21 10:43:37 27 0 -8.7454363705102 115.17066788861
NTL001 NTL97 2018-01-21 10:43:22 27 0 -8.7454363705102 115.17066788861
NTL001 NTL97 2018-01-21 10:43:07 27 0 -8.7454363705102 115.17066788861
NTL001 NTL97 2018-01-21 10:42:52 27 0 -8.7454363705102 115.17066788861
NTL001 NTL97 2018-01-21 10:42:37 27 0 -8.7454363705102 115.17066788861
NTL001 NTL97 2018-01-21 10:42:22 27 0 -8.7454363705102 115.17066788861
NTL001 NTL97 2018-01-21 10:42:07 27 0 -8.7454363705102 115.17066788861
NTL001 NTL97 2018-01-21 10:41:52 27 0 -8.7454363705102 115.17066788861
NTL001 NTL97 2018-01-21 10:41:37 27 0 -8.7454363705102 115.17066788861
NTL001 NTL97 2018-01-21 10:41:22 27 0 -8.7454363705102 115.17066788861
NTL001 NTL97 2018-01-21 10:41:07 27 0 -8.7454363705102 115.17066788861
NTL001 NTL97 2018-01-21 10:40:52 27 0 -8.7454363705102 115.17066788861
NTL001 NTL97 2018-01-21 10:40:37 27 0 -8.7454363705102 115.17066788861
NTL001 NTL97 2018-01-21 10:40:22 27 0 -8.7454363705102 115.17066788861
NTL001 NTL97 2018-01-21 10:40:06 27 0 -8.7454363705102 115.17066788861
NTL001 NTL97 2018-01-21 10:39:51 27 0 -8.7454363705102 115.17066788861
NTL001 NTL97 2018-01-21 10:39:36 27 0 -8.7454363705102 115.17066788861
NTL001 NTL97 2018-01-21 10:39:21 27 0 -8.7454363705102 115.17066788861
NTL001 NTL97 2018-01-21 10:39:06 27 0 -8.7454363705102 115.17066788861
NTL001 NTL97 2018-01-21 10:38:51 27 0 -8.7454363705102 115.17066788861
NTL001 NTL97 2018-01-21 10:38:36 27 0 -8.7454363705102 115.17066788861
NTL001 NTL97 2018-01-21 10:38:21 27 0 -8.7454363705102 115.17066788861
NTL001 NTL97 2018-01-21 10:38:06 27 0 -8.7454363705102 115.17066788861
NTL001 NTL97 2018-01-21 10:37:51 27 0 -8.7454363705102 115.17066788861
NTL001 NTL97 2018-01-21 10:37:36 27 0 -8.7454363705102 115.17066788861
NTL001 NTL97 2018-01-21 10:37:21 27 0 -8.7454363705102 115.17066788861
NTL001 NTL97 2018-01-21 10:37:06 27 0 -8.7454363705102 115.17066788861
NTL001 NTL97 2018-01-21 10:36:51 27 0 -8.7454363705102 115.17066788861
NTL001 NTL97 2018-01-21 10:36:36 27 0 -8.7454363705102 115.17066788861
NTL001 NTL97 2018-01-21 10:36:21 27 0 -8.7454363705102 115.17066788861
NTL001 NTL97 2018-01-21 10:36:06 27 0 -8.7454363705102 115.17066788861
NTL001 NTL97 2018-01-21 10:35:51 27 0 -8.7454363705102 115.17066788861
NTL001 NTL97 2018-01-21 10:35:36 27 0 -8.7454363705102 115.17066788861
NTL001 NTL97 2018-01-21 10:35:21 27 0 -8.7454363705102 115.17066788861
NTL001 NTL97 2018-01-21 10:35:06 27 0 -8.7454363705102 115.17066788861
NTL001 NTL97 2018-01-21 10:34:51 27 0 -8.7454363705102 115.17066788861
NTL001 NTL97 2018-01-21 10:34:36 27 0 -8.7454363705102 115.17066788861
NTL001 NTL97 2018-01-21 10:34:21 27 0 -8.7454363705102 115.17066788861
NTL001 NTL97 2018-01-21 10:34:06 27 0 -8.7454363705102 115.17066788861
NTL001 NTL97 2018-01-21 10:33:51 27 0 -8.7454363705102 115.17066788861
NTL001 NTL97 2018-01-21 10:33:36 27 0 -8.7454363705102 115.17066788861
NTL001 NTL97 2018-01-21 10:33:21 27 0 -8.7454363705102 115.17066788861
NTL001 NTL97 2018-01-21 10:33:06 27 0 -8.7454363705102 115.17066788861
NTL001 NTL97 2018-01-21 10:32:51 27 0 -8.7454363705102 115.17066788861
NTL001 NTL97 2018-01-21 10:32:36 27 0 -8.7454363705102 115.17066788861
NTL001 NTL97 2018-01-21 10:32:21 27 0 -8.7454363705102 115.17066788861
NTL001 NTL97 2018-01-21 10:32:06 27 0 -8.7454363705102 115.17066788861
NTL001 NTL97 2018-01-21 10:31:51 27 0 -8.7454363705102 115.17066788861
NTL001 NTL97 2018-01-21 10:31:36 27 0 -8.7454363705102 115.17066788861
NTL001 NTL97 2018-01-21 10:31:21 27 0 -8.7454363705102 115.17066788861
NTL001 NTL97 2018-01-21 10:31:06 27 0 -8.7454363705102 115.17066788861
NTL001 NTL97 2018-01-21 10:30:51 27 0 -8.7454363705102 115.17066788861
NTL001 NTL97 2018-01-21 10:30:36 27 0 -8.7454363705102 115.17066788861
NTL001 NTL97 2018-01-21 10:30:21 27 0 -8.7454363705102 115.17066788861
NTL001 NTL97 2018-01-21 10:30:06 27 0 -8.7454363705102 115.17066788861
NTL001 NTL97 2018-01-21 10:29:51 27 0 -8.7454363705102 115.17066788861
NTL001 NTL97 2018-01-21 10:29:36 27 0 -8.7454363705102 115.17066788861
NTL001 NTL97 2018-01-21 10:29:21 27 0 -8.7454363705102 115.17066788861
NTL001 NTL97 2018-01-21 10:29:06 27 0 -8.7454363705102 115.17066788861
NTL001 NTL97 2018-01-21 10:28:51 27 0 -8.7454363705102 115.17066788861
NTL001 NTL97 2018-01-21 10:28:36 27 0 -8.7454363705102 115.17066788861
NTL001 NTL97 2018-01-21 10:28:21 27 0 -8.7454363705102 115.17066788861
NTL001 NTL97 2018-01-21 10:28:06 27 0 -8.7454363705102 115.17066788861
NTL001 NTL97 2018-01-21 10:27:51 27 0 -8.7454363705102 115.17066788861
NTL001 NTL97 2018-01-21 10:27:36 27 0 -8.7454363705102 115.17066788861
NTL001 NTL97 2018-01-21 10:27:21 27 0 -8.7454363705102 115.17066788861
NTL001 NTL97 2018-01-21 10:27:06 27 0 -8.7454363705102 115.17066788861
NTL001 NTL97 2018-01-21 10:26:51 27 0 -8.7454363705102 115.17066788861
NTL001 NTL97 2018-01-21 10:26:36 27 0 -8.7454363705102 115.17066788861
NTL001 NTL97 2018-01-21 10:26:21 27 0 -8.7454363705102 115.17066788861
NTL001 NTL97 2018-01-21 10:26:06 27 0 -8.7454363705102 115.17066788861
NTL001 NTL97 2018-01-21 10:25:51 27 0 -8.7454363705102 115.17066788861
NTL001 NTL97 2018-01-21 10:25:36 27 0 -8.7454363705102 115.17066788861
NTL001 NTL97 2018-01-21 10:25:21 27 0 -8.7454363705102 115.17066788861
NTL001 NTL97 2018-01-21 10:25:06 27 0 -8.7454363705102 115.17066788861
NTL001 NTL97 2018-01-21 10:24:51 27 0 -8.7454363705102 115.17066788861
NTL001 NTL97 2018-01-21 10:24:37 27 0 -8.7454363705102 115.17066788861
NTL001 NTL97 2018-01-21 10:24:21 27 0 -8.7454363705102 115.17066788861
NTL001 NTL97 2018-01-21 10:24:06 27 0 -8.7454363705102 115.17066788861
NTL001 NTL97 2018-01-21 10:23:51 27 0 -8.7454363705102 115.17066788861
NTL001 NTL97 2018-01-21 10:23:36 27 0 -8.7454363705102 115.17066788861
NTL001 NTL97 2018-01-21 10:23:21 27 0 -8.7454363705102 115.17066788861
NTL001 NTL97 2018-01-21 10:23:06 27 0 -8.7454363705102 115.17066788861
NTL001 NTL97 2018-01-21 10:22:51 27 0 -8.7454363705102 115.17066788861
NTL001 NTL97 2018-01-21 10:22:37 27 0 -8.7454363705102 115.17066788861
NTL001 NTL97 2018-01-21 10:22:21 27 0 -8.7454363705102 115.17066788861
NTL001 NTL97 2018-01-21 10:22:06 27 0 -8.7454363705102 115.17066788861
NTL001 NTL97 2018-01-21 10:21:51 27 0 -8.7454363705102 115.17066788861
NTL001 NTL97 2018-01-21 10:21:36 27 0 -8.7454363705102 115.17066788861
NTL001 NTL97 2018-01-21 10:21:21 27 0 -8.7454363705102 115.17066788861
NTL001 NTL97 2018-01-21 10:21:06 27 0 -8.7454363705102 115.17066788861
NTL001 NTL97 2018-01-21 10:20:51 27 0 -8.7454363705102 115.17066788861
NTL001 NTL97 2018-01-21 10:20:36 27 0 -8.7454363705102 115.17066788861
NTL001 NTL97 2018-01-21 10:20:21 27 0 -8.7454363705102 115.17066788861
NTL001 NTL97 2018-01-21 10:20:06 27 0 -8.7454363705102 115.17066788861
NTL001 NTL97 2018-01-21 10:19:51 27 0 -8.7454363705102 115.17066788861
NTL001 NTL97 2018-01-21 10:19:36 27 0 -8.7454363705102 115.17066788861
NTL001 NTL97 2018-01-21 10:19:21 27 0 -8.7454363705102 115.17066788861
NTL001 NTL97 2018-01-21 10:19:06 27 0 -8.7454363705102 115.17066788861
NTL001 NTL97 2018-01-21 10:18:51 27 0 -8.7454363705102 115.17066788861
NTL001 NTL97 2018-01-21 10:18:36 27 0 -8.7454363705102 115.17066788861
NTL001 NTL97 2018-01-21 10:18:21 27 0 -8.7454363705102 115.17066788861
NTL001 NTL97 2018-01-21 10:18:06 27 0 -8.7454363705102 115.17066788861
NTL001 NTL97 2018-01-21 10:17:51 27 0 -8.7454363705102 115.17066788861
NTL001 NTL97 2018-01-21 10:17:36 27 0 -8.7454363705102 115.17066788861
NTL001 NTL97 2018-01-21 10:17:21 27 0 -8.7454363705102 115.17066788861
NTL001 NTL97 2018-01-21 10:17:06 27 0 -8.7454363705102 115.17066788861
NTL001 NTL97 2018-01-21 10:16:51 27 0 -8.7454363705102 115.17066788861
NTL001 NTL97 2018-01-21 10:16:36 27 0 -8.7454363705102 115.17066788861
NTL001 NTL97 2018-01-21 10:16:21 27 0 -8.7454363705102 115.17066788861
NTL001 NTL97 2018-01-21 10:16:06 27 0 -8.7454363705102 115.17066788861
NTL001 NTL97 2018-01-21 10:15:51 27 0 -8.7454363705102 115.17066788861
NTL001 NTL97 2018-01-21 10:15:36 27 0 -8.7454363705102 115.17066788861
NTL001 NTL97 2018-01-21 10:15:21 27 0 -8.7454363705102 115.17066788861
NTL001 NTL97 2018-01-21 10:15:06 27 0 -8.7454363705102 115.17066788861
NTL001 NTL97 2018-01-21 10:14:51 27 0 -8.7454363705102 115.17066788861
NTL001 NTL97 2018-01-21 10:14:36 27 0 -8.7454363705102 115.17066788861
NTL001 NTL97 2018-01-21 10:14:21 27 0 -8.7454363705102 115.17066788861
NTL001 NTL97 2018-01-21 10:14:06 27 0 -8.7454363705102 115.17066788861
NTL001 NTL97 2018-01-21 10:13:51 27 0 -8.7454363705102 115.17066788861
NTL001 NTL97 2018-01-21 10:13:36 27 0 -8.7454363705102 115.17066788861
NTL001 NTL97 2018-01-21 10:13:21 27 0 -8.7454363705102 115.17066788861
NTL001 NTL97 2018-01-21 10:13:06 27 0 -8.7454363705102 115.17066788861
NTL001 NTL97 2018-01-21 10:12:51 27 0 -8.7454363705102 115.17066788861
NTL001 NTL97 2018-01-21 10:12:36 27 0 -8.7454363705102 115.17066788861
NTL001 NTL97 2018-01-21 10:12:21 27 0 -8.7454363705102 115.17066788861
NTL001 NTL97 2018-01-21 10:12:06 27 0 -8.7454363705102 115.17066788861
NTL001 NTL97 2018-01-21 10:11:51 27 0 -8.7454363705102 115.17066788861
NTL001 NTL97 2018-01-21 10:11:36 27 0 -8.7454363705102 115.17066788861
NTL001 NTL97 2018-01-21 10:11:21 27 0 -8.7454363705102 115.17066788861
NTL001 NTL97 2018-01-21 10:11:06 27 0 -8.7454363705102 115.17066788861
NTL001 NTL97 2018-01-21 10:10:51 27 0 -8.7454363705102 115.17066788861
NTL001 NTL97 2018-01-21 10:10:36 27 0 -8.7454363705102 115.17066788861
PILOT LOGIN
PILOT ID

PASSWORD

Register Login
I forgot my password
 
AIRLINE INFO
ICAO Code : NTL
Callsign : Anatolia
Pilots : 38
Aircrafts : 257
Flights Flown : 3894
Total Hours : 13084.17
Miles Flown : 5439268
Passengers : 3610043
Active Flights : 0
Av. Landing Rate : -169.55 fpm
 
LATEST NEWS